[[{"header":{"parameterUnit":"m.s-1","parameterCategory":1,"la1":31.0,"la2":29.5877,"lo1":-88.7671,"lo2":-86.6584,"dx":0.0162,"dy":0.0185,"nx":115,"ny":88,"refTime":"2022-11-22T06:00:00:Z","depth":0,"parameterNumber":2,"parameterNumberName":"U-component_of_WINDS"},"data":[0.0,0.0,0.0,0.0,0.0,0.0,0.0,0.0,0.0,0.0,0.0,0.0,0.0,0.0,0.0,0.0,0.0,0.0,0.0,0.0,0.0,0.0,0.0,0.0,0.0,0.0,0.0,0.0,0.0,0.0,0.0,0.0,0.0,0.0,0.0,0.0,0.0,0.0,0.0,0.0,0.0,0.0,0.0,0.0,0.0,0.0,0.0,0.0,0.0,0.0,0.0,0.0,0.0,0.0,0.0,0.0,0.0,0.0,0.0,0.0,0.0,0.0,0.0,0.0,0.0,0.0,0.0,0.0,0.0,0.0,0.0,0.0,0.0,0.0,0.0,0.0,0.0,0.0,0.0,0.0,0.0,0.0,0.0,0.0,0.0,0.0,0.0,0.0,0.0,0.0,0.0,0.0,0.0,0.0,0.0,0.0,0.0,0.0,0.0,0.0,0.0,0.0,0.0,0.0,0.0,0.0,0.0,0.0,0.0,0.0,0.0,0.0,0.0,0.0,0.0,0.0,0.0,0.0,0.0,0.0,0.0,0.0,0.0,0.0,0.0,0.0,0.0,0.0,0.0,0.0,0.0,0.0,0.0,0.0,0.0,0.0,0.0,0.0,0.0,0.0,0.0,0.0,0.0,0.0,0.0,0.0,0.0,0.0,0.0,0.0,0.0,0.0,0.0,0.0,0.0,0.0,0.0,0.0,0.0,0.0,0.0,0.0,0.0,0.0,0.0,0.0,0.0,0.0,0.0,0.0,0.0,0.0,0.0,0.0,0.0,0.0,0.0,0.0,0.0,0.0,0.0,0.0,0.0,0.0,0.0,0.0,0.0,0.0,0.0,0.0,0.0,0.0,0.0,0.0,0.0,0.0,0.0,0.0,0.0,0.0,0.0,0.0,0.0,0.0,0.0,0.0,0.0,0.0,0.0,0.0,0.0,0.0,0.0,0.0,0.0,0.0,0.0,0.0,0.0,0.0,0.0,0.0,0.0,0.0,0.0,0.0,0.0,0.0,0.0,0.0,0.0,0.0,0.0,0.0,0.0,0.0,0.0,0.0,0.0,0.0,0.0,0.0,0.0,0.0,0.0,0.0,0.0,0.0,0.0,0.0,0.0,0.0,0.0,0.0,0.0,0.0,0.0,0.0,0.0,0.0,0.0,0.0,0.0,0.0,0.0,0.0,0.0,0.0,0.0,0.0,0.0,0.0,0.0,0.0,0.0,0.0,0.0,0.0,0.0,0.0,0.0,0.0,0.0,0.0,0.0,0.0,0.0,0.0,0.0,0.0,0.0,0.0,0.0,0.0,0.0,0.0,0.0,0.0,0.0,0.0,0.0,0.0,0.0,0.0,0.0,0.0,0.0,0.0,0.0,0.0,0.0,0.0,0.0,0.0,0.0,0.0,0.0,0.0,0.0,0.0,0.0,0.0,0.0,0.0,0.0,0.0,0.0,0.0,0.0,0.0,0.0,0.0,0.0,0.0,0.0,0.0,0.0,0.0,0.0,0.0,0.0,0.0,0.0,0.0,0.0,0.0,0.0,0.0,0.0,0.0,0.0,0.0,0.0,0.0,0.0,0.0,0.0,0.0,0.0,0.0,0.0,0.0,0.0,0.0,0.0,0.0,0.0,0.0,0.0,0.0,0.0,0.0,0.0,0.0,0.0,0.0,0.0,0.0,0.0,0.0,0.0,0.0,0.0,0.0,0.0,0.0,0.0,0.0,0.0,0.0,0.0,0.0,0.0,0.0,0.0,0.0,0.0,0.0,0.0,0.0,0.0,0.0,0.0,0.0,0.0,0.0,0.0,0.0,0.0,0.0,0.0,0.0,0.0,0.0,0.0,0.0,0.0,0.0,0.0,0.0,0.0,0.0,0.0,0.0,0.0,0.0,0.0,0.0,0.0,0.0,0.0,0.0,0.0,0.0,0.0,0.0,0.0,0.0,0.0,0.0,0.0,0.0,0.0,0.0,0.0,0.0,0.0,0.0,0.0,0.0,0.0,0.0,0.0,0.0,0.0,0.0,0.0,0.0,0.0,0.0,0.0,0.0,0.0,0.0,0.0,0.0,0.0,0.0,0.0,0.0,0.0,0.0,0.0,0.0,0.0,0.0,0.0,0.0,0.0,0.0,0.0,0.0,0.0,0.0,0.0,0.0,0.0,0.0,0.0,0.0,0.0,0.0,0.0,0.0,0.0,0.0,0.0,0.0,0.0,0.0,0.0,0.0,0.0,0.0,0.0,0.0,0.0,0.0,0.0,0.0,0.0,0.0,0.0,0.0,0.0,0.0,0.0,0.0,0.0,0.0,0.0,0.0,0.0,0.0,0.0,0.0,0.0,0.0,0.0,0.0,0.0,0.0,0.0,0.0,0.0,0.0,0.0,0.0,0.0,0.0,0.0,0.0,0.0,0.0,0.0,0.0,0.0,0.0,0.0,0.0,0.0,0.0,0.0,0.0,0.0,0.0,0.0,0.0,0.0,0.0,0.0,0.0,0.0,0.0,0.0,0.0,0.0,0.0,0.0,0.0,0.0,0.0,0.0,0.0,0.0,0.0,0.0,0.0,0.0,0.0,0.0,0.0,0.0,0.0,0.0,0.0,0.0,0.0,0.0,0.0,0.0,0.0,0.0,0.0,0.0,0.0,0.0,0.0,0.0,0.0,0.0,0.0,0.0,0.0,0.0,0.0,0.0,0.0,0.0,0.0,0.0,0.0,0.0,0.0,0.0,0.0,0.0,0.0,0.0,0.0,0.0,0.0,0.0,0.0,0.0,0.0,0.0,0.0,0.0,0.0,0.0,0.0,0.0,0.0,0.0,0.0,0.0,0.0,0.0,0.0,0.0,0.0,0.0,0.0,0.0,0.0,0.0,0.0,0.0,0.0,0.0,0.0,0.0,0.0,0.0,0.0,0.0,0.0,0.0,0.0,0.0,0.0,0.0,0.0,0.0,0.0,0.0,0.0,0.0,0.0,0.0,0.0,0.0,0.0,0.0,0.0,0.0,0.0,0.0,0.0,0.0,0.0,0.0,0.0,0.0,0.0,0.0,0.0,0.0,0.0,0.0,0.0,0.0,0.0,0.0,0.0,0.0,0.0,0.0,0.0,0.0,0.0,0.0,0.0,0.0,0.0,0.0,0.0,0.0,0.0,0.0,0.0,0.0,0.0,0.0,0.0,0.0,0.0,0.0,0.0,0.0,0.0,0.0,0.0,0.0,0.0,0.0,0.0,0.0,0.0,0.0,0.0,0.0,0.0,0.0,0.0,0.0,0.0,0.0,0.0,0.0,0.0,0.0,0.0,0.0,0.0,0.0,0.0,0.0,0.0,0.0,0.0,0.0,0.0,0.0,0.0,0.0,0.0,0.0,0.0,0.0,0.0,0.0,0.0,0.0,0.0,0.0,0.0,0.0,0.0,0.0,0.0,0.0,0.0,0.0,0.0,0.0,0.0,0.0,0.0,0.0,0.0,0.0,0.0,0.0,0.0,0.0,0.0,0.0,0.0,0.0,0.0,0.0,0.0,0.0,0.0,0.0,0.0,0.0,0.0,0.0,0.0,0.0,0.0,0.0,0.0,0.0,0.0,0.0,0.0,0.0,0.0,0.0,0.0,0.0,0.0,0.0,0.0,0.0,0.0,0.0,0.0,0.0,0.0,0.0,0.0,0.0,0.0,0.0,0.0,0.0,0.0,0.0,0.0,0.0,0.0,0.0,0.0,0.0,0.0,0.0,0.0,0.0,0.0,0.0,0.0,0.0,0.0,0.0,0.0,0.0,0.0,0.0,0.0,0.0,0.0,0.0,0.0,0.0,0.0,0.0,0.0,0.0,0.0,0.0,0.0,0.0,0.0,0.0,0.0,0.0,0.0,0.0,0.0,0.0,0.0,0.0,0.0,0.0,0.0,0.0,0.0,0.0,0.0,0.0,0.0,0.0,0.0,0.0,0.0,0.0,0.0,0.0,0.0,0.0,0.0,0.0,0.0,0.0,0.0,0.0,0.0,0.0,0.0,0.0,0.0,0.0,0.0,0.0,0.0,0.0,0.0,0.0,0.0,0.0,0.0,0.0,0.0,0.0,0.0,0.0,0.0,0.0,0.0,0.0,0.0,0.0,0.0,0.0,0.0,0.0,0.0,0.0,0.0,0.0,0.0,0.0,0.0,0.0,0.0,0.0,0.0,0.0,0.0,0.0,0.0,0.0,0.0,0.0,0.0,0.0,0.0,0.0,0.0,0.0,0.0,0.0,0.0,0.0,0.0,0.0,0.0,-0.3055,0.0,0.0,0.0,-0.2695,0.0,0.0,0.0,0.0,0.0,0.0,0.0,0.0,0.0,0.0,0.0,0.0,0.0,0.0,0.0,0.0,0.0,0.0,0.0,0.0,0.0,0.0,0.0,0.0,0.0,0.0,0.0,0.0,0.0,0.0,0.0,0.0,0.0,0.0,0.0,0.0,0.0,0.0,0.0,0.0,0.0,0.0,0.0,0.0,0.0,0.0,0.0,0.0,0.0,0.0,0.0,0.0,0.0,0.0,0.0,0.0,0.0,0.0,0.0,0.0,0.0,0.0,0.0,0.0,0.0,0.0,0.0,0.0,0.0,0.0,0.0,0.0,0.0,0.0,0.0,0.0,0.0,0.0,0.0,0.0,0.0,0.0,0.0,0.0,0.0,0.0,0.0,0.0,0.0,0.0,0.0,0.0,0.0,0.0,0.0,0.0,0.0,0.0,0.0,0.0,0.0,0.0,0.0,0.0,0.0,0.0,0.0,0.0,0.0,0.0,-0.3168,-0.31,-0.298,-0.2854,-0.2707,0.0,0.0,0.0,0.0,0.0,0.0,0.0,0.0,0.0,0.0,0.0,0.0,0.0,0.0,0.0,0.0,0.0,0.0,0.0,0.0,0.0,0.0,0.0,0.0,0.0,0.0,0.0,0.0,0.0,0.0,0.0,0.0,0.0,0.0,0.0,0.0,0.0,0.0,0.0,0.0,0.0,0.0,0.0,0.0,0.0,0.0,0.0,0.0,0.0,0.0,0.0,0.0,0.0,0.0,0.0,0.0,0.0,0.0,0.0,0.0,0.0,0.0,0.0,0.0,0.0,0.0,0.0,0.0,0.0,0.0,0.0,0.0,0.0,0.0,0.0,0.0,0.0,0.0,0.0,0.0,0.0,0.0,0.0,0.0,0.0,0.0,0.0,0.0,0.0,0.0,0.0,0.0,0.0,0.0,0.0,0.0,0.0,0.0,0.0,0.0,0.0,0.0,0.0,0.0,0.0,0.0,0.0,0.0,0.0,0.0,0.0,0.0,-0.313,-0.2959,-0.2789,0.0,0.0,0.0,0.0,0.0,0.0,0.0,0.0,0.0,0.0,0.0,0.0,0.0,0.0,0.0,0.0,0.0,0.0,0.0,0.0,0.0,0.0,0.0,0.0,0.0,0.0,0.0,0.0,0.0,0.0,0.0,0.0,0.0,0.0,0.0,0.0,0.0,0.0,0.0,0.0,0.0,0.0,0.0,0.0,0.0,0.0,0.0,0.0,0.0,0.0,0.0,0.0,0.0,0.0,0.0,0.0,0.0,0.0,0.0,0.0,0.0,0.0,0.0,0.0,0.0,0.0,0.0,0.0,0.0,0.0,0.0,0.0,0.0,0.0,0.0,0.0,0.0,0.0,0.0,0.0,0.0,0.0,0.0,0.0,0.0,0.0,0.0,0.0,0.0,0.0,0.0,0.0,0.0,0.0,0.0,0.0,0.0,0.0,0.0,0.0,0.0,0.0,0.0,0.0,0.0,0.0,0.0,0.0,0.0,0.0,-0.3383,-0.3742,-0.3379,0.0,-0.3105,0.0,0.0,0.0,0.0,0.0,0.0,0.0,0.0,0.0,0.0,0.0,0.0,0.0,0.0,0.0,0.0,0.0,0.0,0.0,0.0,0.0,0.0,0.0,0.0,0.0,0.0,0.0,0.0,0.0,0.0,0.0,0.0,0.0,0.0,0.0,0.0,0.0,0.0,0.0,0.0,0.0,0.0,0.0,0.0,0.0,0.0,0.0,0.0,0.0,0.0,0.0,0.0,0.0,0.0,0.0,0.0,0.0,0.0,0.0,0.0,0.0,0.0,0.0,0.0,0.0,0.0,0.0,0.0,0.0,0.0,0.0,0.0,0.0,0.0,0.0,0.0,0.0,0.0,0.0,0.0,0.0,0.0,0.0,0.0,0.0,0.0,0.0,0.0,0.0,0.0,0.0,0.0,0.0,0.0,0.0,0.0,0.0,0.0,0.0,0.0,0.0,0.0,0.0,0.0,0.0,0.0,0.0,0.0,0.0,0.0,-0.3343,-0.3704,-0.3474,-0.332,0.0,0.0,0.0,0.0,0.0,0.0,0.0,0.0,0.0,0.0,0.0,0.0,0.0,0.0,0.0,0.0,0.0,0.0,0.0,0.0,0.0,0.0,0.0,0.0,0.0,0.0,0.0,0.0,0.0,0.0,0.0,0.0,0.0,0.0,0.0,0.0,0.0,0.0,0.0,0.0,0.0,0.0,0.0,0.0,0.0,0.0,0.0,0.0,0.0,0.0,0.0,0.0,0.0,0.0,0.0,0.0,0.0,0.0,0.0,0.0,0.0,0.0,0.0,0.0,0.0,0.0,0.0,0.0,0.0,0.0,0.0,0.0,0.0,0.0,0.0,0.0,0.0,0.0,0.0,0.0,0.0,0.0,0.0,0.0,0.0,0.0,0.0,0.0,0.0,0.0,0.0,0.0,0.0,0.0,0.0,0.0,0.0,0.0,0.0,0.0,0.0,0.0,0.0,0.0,0.0,0.0,0.0,0.0,0.0,0.0,-0.3226,-0.3418,-0.3652,-0.3639,-0.3676,-0.365,0.0,0.0,0.0,0.0,0.0,0.0,0.0,0.0,0.0,0.0,0.0,0.0,0.0,0.0,0.0,0.0,0.0,0.0,0.0,0.0,0.0,0.0,0.0,0.0,0.0,0.0,0.0,0.0,0.0,0.0,0.0,0.0,0.0,0.0,0.0,0.0,0.0,0.0,0.0,0.0,0.0,0.0,0.0,0.0,0.0,0.0,0.0,0.0,0.0,0.0,0.0,0.0,0.0,0.0,0.0,0.0,0.0,0.0,0.0,0.0,0.0,0.0,0.0,0.0,0.0,0.0,0.0,0.0,0.0,0.0,0.0,0.0,0.0,0.0,0.0,0.0,0.0,0.0,0.0,0.0,0.0,0.0,0.0,0.0,0.0,0.0,0.0,0.0,0.0,0.0,0.0,0.0,0.0,0.0,0.0,0.0,0.0,0.0,0.0,0.0,0.0,0.0,0.0,0.0,0.0,0.0,0.0,0.0,-0.3226,-0.3364,-0.3586,-0.3811,-0.4115,-0.4187,0.0,0.0,0.0,0.0,0.0,0.0,0.0,0.0,0.0,0.0,0.0,0.0,0.0,0.0,0.0,0.0,0.0,0.0,0.0,0.0,0.0,0.0,0.0,0.0,0.0,0.0,0.0,0.0,0.0,0.0,0.0,0.0,0.0,0.0,0.0,0.0,0.0,0.0,0.0,0.0,0.0,0.0,0.0,0.0,0.0,0.0,0.0,0.0,0.0,0.0,0.0,0.0,0.0,0.0,0.0,0.0,0.0,0.0,0.0,0.0,0.0,0.0,0.0,0.0,0.0,0.0,0.0,0.0,0.0,0.0,0.0,0.0,0.0,0.0,0.0,0.0,0.0,0.0,0.0,0.0,0.0,0.0,0.0,0.0,0.0,0.0,0.0,0.0,0.0,0.0,0.0,0.0,0.0,0.0,0.0,0.0,0.0,0.0,0.0,0.0,0.0,0.0,0.0,0.0,0.0,0.0,0.0,0.0,0.0,-0.3431,-0.3699,-0.3875,-0.3967,-0.4159,-0.4267,0.0,0.0,0.0,0.0,0.0,0.0,0.0,0.0,0.0,0.0,0.0,0.0,0.0,0.0,0.0,0.0,0.0,0.0,0.0,0.0,0.0,0.0,0.0,0.0,0.0,0.0,0.0,0.0,0.0,0.0,0.0,0.0,0.0,0.0,0.0,0.0,0.0,0.0,0.0,0.0,0.0,0.0,0.0,0.0,0.0,0.0,0.0,0.0,0.0,0.0,0.0,0.0,0.0,0.0,0.0,0.0,0.0,0.0,0.0,0.0,0.0,0.0,0.0,0.0,0.0,0.0,0.0,0.0,0.0,0.0,0.0,0.0,0.0,0.0,0.0,0.0,0.0,0.0,0.0,0.0,0.0,0.0,0.0,0.0,0.0,0.0,0.0,0.0,0.0,0.0,0.0,0.0,0.0,0.0,0.0,0.0,0.0,0.0,0.0,0.0,0.0,0.0,0.0,0.0,0.0,0.0,0.0,0.0,0.0,-0.3792,-0.3998,-0.4188,-0.4219,-0.4273,-0.4392,0.0,0.0,0.0,0.0,0.0,0.0,0.0,0.0,0.0,0.0,0.0,0.0,0.0,0.0,0.0,0.0,0.0,0.0,0.0,0.0,0.0,0.0,0.0,0.0,0.0,0.0,0.0,0.0,0.0,0.0,0.0,0.0,0.0,0.0,0.0,0.0,0.0,0.0,0.0,0.0,0.0,0.0,0.0,0.0,0.0,0.0,0.0,0.0,0.0,0.0,0.0,0.0,0.0,0.0,0.0,0.0,0.0,0.0,0.0,0.0,0.0,0.0,0.0,0.0,0.0,0.0,0.0,0.0,0.0,0.0,0.0,0.0,0.0,0.0,0.0,0.0,0.0,0.0,0.0,0.0,0.0,0.0,0.0,0.0,0.0,0.0,0.0,0.0,0.0,0.0,0.0,0.0,0.0,0.0,0.0,0.0,0.0,0.0,0.0,0.0,0.0,0.0,0.0,0.0,0.0,0.0,0.0,0.0,-0.3895,-0.4349,-0.4426,-0.4512,-0.4688,-0.4463,-0.449,0.0,0.0,0.0,0.0,0.0,0.0,0.0,0.0,0.0,0.0,0.0,0.0,0.0,0.0,0.0,0.0,0.0,0.0,0.0,0.0,0.0,0.0,0.0,0.0,0.0,0.0,0.0,0.0,0.0,0.0,0.0,0.0,0.0,0.0,0.0,0.0,0.0,0.0,0.0,0.0,0.0,0.0,0.0,0.0,0.0,0.0,0.0,0.0,0.0,0.0,0.0,0.0,0.0,0.0,0.0,0.0,0.0,0.0,0.0,0.0,0.0,0.0,0.0,0.0,0.0,0.0,0.0,0.0,0.0,0.0,0.0,0.0,0.0,0.0,0.0,0.0,0.0,0.0,0.0,0.0,0.0,0.0,0.0,0.0,0.0,0.0,0.0,0.0,0.0,0.0,0.0,0.0,0.0,0.0,0.0,0.0,0.0,0.0,0.0,0.0,0.0,0.0,0.0,0.0,0.0,0.0,0.0,0.0,0.0,-0.4587,-0.4726,-0.4925,-0.5092,-0.4792,-0.4774,0.0,0.0,0.0,0.0,0.0,0.0,0.0,0.0,0.0,0.0,0.0,0.0,0.0,0.0,0.0,0.0,0.0,0.0,0.0,0.0,0.0,0.0,0.0,0.0,0.0,0.0,0.0,0.0,0.0,0.0,0.0,0.0,0.0,0.0,0.0,0.0,0.0,0.0,0.0,0.0,0.0,0.0,0.0,0.0,0.0,0.0,0.0,0.0,0.0,0.0,0.0,0.0,0.0,0.0,0.0,0.0,0.0,0.0,0.0,0.0,0.0,0.0,0.0,0.0,0.0,0.0,0.0,0.0,0.0,0.0,0.0,0.0,0.0,0.0,0.0,0.0,0.0,0.0,0.0,0.0,0.0,0.0,0.0,0.0,0.0,0.0,0.0,0.0,0.0,0.0,0.0,0.0,0.0,0.0,0.0,0.0,0.0,0.0,0.0,0.0,0.0,0.0,0.0,0.0,0.0,0.0,0.0,0.0,0.0,-0.5378,-0.5455,-0.5585,-0.5682,-0.5315,-0.5249,-0.5454,0.0,0.0,0.0,0.0,0.0,0.0,0.0,0.0,0.0,0.0,0.0,0.0,0.0,0.0,0.0,0.0,0.0,0.0,0.0,0.0,0.0,0.0,0.0,0.0,0.0,0.0,0.0,0.0,0.0,0.0,0.0,0.0,0.0,0.0,0.0,0.0,0.0,0.0,0.0,0.0,0.0,0.0,0.0,0.0,0.0,0.0,0.0,0.0,0.0,0.0,0.0,0.0,0.0,0.0,0.0,0.0,0.0,0.0,0.0,0.0,0.0,0.0,0.0,0.0,0.0,0.0,0.0,0.0,0.0,0.0,0.0,0.0,0.0,0.0,0.0,0.0,0.0,0.0,0.0,0.0,0.0,0.0,0.0,0.0,0.0,0.0,0.0,0.0,0.0,0.0,0.0,0.0,0.0,0.0,0.0,0.0,0.0,0.0,0.0,0.0,0.0,0.0,0.0,0.0,0.0,0.0,0.0,0.0,-0.6602,-0.6442,-0.6367,-0.6383,-0.5903,-0.573,0.0,0.0,0.0,0.0,0.0,0.0,0.0,0.0,0.0,0.0,0.0,0.0,0.0,0.0,0.0,0.0,0.0,0.0,0.0,0.0,0.0,0.0,0.0,0.0,0.0,0.0,0.0,0.0,0.0,0.0,0.0,0.0,0.0,0.0,0.0,0.0,0.0,0.0,0.0,0.0,0.0,0.0,0.0,0.0,0.0,0.0,0.0,0.0,0.0,0.0,0.0,0.0,0.0,0.0,0.0,0.0,0.0,0.0,0.0,0.0,0.0,0.0,0.0,0.0,0.0,0.0,0.0,0.0,0.0,0.0,0.0,0.0,0.0,0.0,0.0,0.0,0.0,0.0,0.0,0.0,0.0,0.0,0.0,0.0,0.0,0.0,0.0,0.0,0.0,0.0,0.0,0.0,0.0,0.0,0.0,0.0,0.0,0.0,0.0,0.0,0.0,0.0,0.0,0.0,0.0,0.0,0.0,0.0,0.0,-0.6962,-0.7177,-0.7111,-0.694,-0.6609,-0.637,0.0,0.0,0.0,0.0,0.0,0.0,0.0,0.0,0.0,0.0,0.0,0.0,0.0,0.0,0.0,0.0,0.0,0.0,0.0,0.0,0.0,0.0,0.0,0.0,0.0,0.0,0.0,0.0,0.0,0.0,0.0,0.0,0.0,0.0,0.0,0.0,0.0,0.0,0.0,0.0,0.0,0.0,0.0,0.0,0.0,0.0,0.0,0.0,0.0,0.0,0.0,0.0,0.0,0.0,0.0,0.0,0.0,0.0,0.0,0.0,0.0,0.0,0.0,0.0,0.0,0.0,0.0,0.0,0.0,0.0,0.0,0.0,0.0,0.0,0.0,0.0,0.0,0.0,0.0,0.0,0.0,0.0,0.0,0.0,0.0,0.0,0.0,0.0,0.0,0.0,0.0,0.0,0.0,0.0,0.0,0.0,0.0,0.0,0.0,0.0,0.0,0.0,0.0,0.0,0.0,0.0,0.0,0.0,-0.6962,-0.7356,-0.7671,-0.7801,-0.7624,-0.7389,-0.7027,0.0,0.0,0.0,0.0,0.0,0.0,0.0,0.0,0.0,0.0,0.0,0.0,0.0,0.0,0.0,0.0,0.0,0.0,0.0,0.0,0.0,0.0,0.0,0.0,0.0,0.0,0.0,0.0,0.0,0.0,0.0,0.0,0.0,0.0,0.0,0.0,0.0,0.0,0.0,0.0,0.0,0.0,0.0,0.0,0.0,0.0,0.0,0.0,0.0,0.0,0.0,0.0,0.0,0.0,0.0,0.0,0.0,0.0,0.0,0.0,0.0,0.0,0.0,0.0,0.0,0.0,0.0,0.0,0.0,0.0,0.0,0.0,0.0,0.0,0.0,0.0,0.0,0.0,0.0,0.0,0.0,0.0,0.0,0.0,0.0,0.0,0.0,0.0,0.0,0.0,0.0,0.0,0.0,0.0,0.0,0.0,0.0,0.0,0.0,0.0,0.0,0.0,0.0,0.0,0.0,0.0,0.0,0.0,-0.7469,-0.7834,-0.8119,-0.8269,-0.8255,-0.8094,-0.7656,0.0,0.0,0.0,0.0,0.0,0.0,0.0,0.0,0.0,0.0,0.0,0.0,0.0,0.0,0.0,0.0,0.0,0.0,0.0,0.0,0.0,0.0,0.0,0.0,0.0,0.0,0.0,0.0,0.0,0.0,0.0,0.0,0.0,0.0,0.0,0.0,0.0,0.0,0.0,0.0,0.0,0.0,0.0,0.0,0.0,0.0,0.0,0.0,0.0,0.0,0.0,0.0,0.0,0.0,0.0,0.0,0.0,0.0,0.0,0.0,0.0,0.0,0.0,0.0,0.0,0.0,0.0,0.0,0.0,0.0,0.0,0.0,0.0,0.0,0.0,0.0,0.0,0.0,0.0,0.0,0.0,0.0,0.0,0.0,0.0,0.0,0.0,0.0,0.0,0.0,0.0,0.0,0.0,0.0,0.0,0.0,0.0,0.0,0.0,0.0,0.0,0.0,0.0,0.0,0.0,0.0,0.0,0.0,-0.7604,-0.7984,-0.8174,-0.8269,-0.8269,-0.8104,-0.7738,0.0,0.0,0.0,0.0,0.0,0.0,0.0,0.0,0.0,0.0,0.0,0.0,0.0,0.0,0.0,0.0,0.0,0.0,0.0,0.0,0.0,0.0,0.0,0.0,0.0,0.0,0.0,0.0,0.0,0.0,0.0,0.0,0.0,0.0,0.0,0.0,0.0,0.0,0.0,0.0,0.0,0.0,0.0,0.0,0.0,0.0,0.0,0.0,-0.1267,0.0,0.0,0.0,0.0,0.0,0.0,0.0,0.0,0.0,0.0,0.0,0.0,0.0,0.0,0.0,0.0,0.0,0.0,0.0,0.0,0.0,0.0,0.0,0.0,0.0,0.0,0.0,0.0,0.0,0.0,0.0,0.0,0.0,0.0,0.0,0.0,0.0,0.0,0.0,0.0,0.0,0.0,0.0,0.0,0.0,0.0,0.0,0.0,0.0,0.0,0.0,0.0,0.0,0.0,0.0,0.0,0.0,0.0,0.0,-0.7868,-0.8133,-0.8397,-0.8479,-0.857,-0.8251,-0.7861,0.0,0.0,0.0,0.0,0.0,0.0,0.0,0.0,0.0,0.0,0.0,0.0,0.0,0.0,0.0,0.0,0.0,0.0,0.0,0.0,0.0,0.0,0.0,0.0,0.0,0.0,0.0,0.0,0.0,0.0,0.0,0.0,0.0,0.0,0.0,0.0,0.0,0.0,0.0,0.0,0.0,0.0,0.0,0.0,0.0,0.0,0.0,0.0,0.0,0.0,0.0,0.0,0.0,0.0,0.0,0.0,0.0,0.0,0.0,0.0,0.0,0.0,0.0,0.0,0.0,0.0,0.0,0.0,0.0,0.0,0.0,0.0,0.0,0.0,0.0,0.0,0.0,0.0,0.0,0.0,0.0,0.0,0.0,0.0,0.0,0.0,0.0,0.0,0.0,0.0,0.0,0.0,0.0,0.0,0.0,0.0,0.0,0.0,0.0,0.0,0.0,0.0,0.0,0.0,0.0,0.0,0.0,-0.7848,-0.8113,-0.8394,-0.8555,-0.8845,-0.8925,-0.8426,-0.7896,-0.7547,0.0,0.0,0.0,0.0,0.0,0.0,0.0,0.0,0.0,0.0,0.0,0.0,0.0,0.0,0.0,0.0,0.0,0.0,0.0,0.0,0.0,0.0,0.0,0.0,0.0,0.0,0.0,0.0,0.0,0.0,0.0,0.0,0.0,0.0,0.0,0.0,0.0,0.0,-0.1265,-0.1244,0.0,0.0,0.0,0.0,0.0,0.0,0.0,0.0,-0.0749,0.0,0.0,0.0,0.0,0.0,0.0,0.0,0.0,0.0,0.0,0.0,0.0,0.0,0.0,0.0,0.0,0.0,0.0,0.0,0.0,0.0,0.0,0.0,0.0,0.0,0.0,0.0,0.0,0.0,0.0,0.0,0.0,0.0,0.0,0.0,0.0,0.0,0.0,0.0,0.0,0.0,0.0,0.0,0.0,0.0,0.0,0.0,0.0,0.0,0.0,0.0,0.0,0.0,0.0,0.0,0.0,-0.7556,-0.8004,-0.8377,-0.8555,-0.8709,-0.8845,-0.8932,-0.8836,-0.8512,-0.7945,0.0,0.0,0.0,0.0,0.0,0.0,0.0,0.0,0.0,0.0,0.0,0.0,0.0,0.0,0.0,0.0,0.0,0.0,0.0,0.0,0.0,0.0,0.0,0.0,0.0,0.0,0.0,0.0,0.0,0.0,0.0,0.0,0.0,0.0,0.0,0.0,0.0,0.0,0.0,-0.0963,-0.0721,0.0,0.0,0.0,0.0,0.0,0.0,0.0,0.0,-0.0679,0.0,0.0,0.0,0.0,0.0,0.0,0.0,0.0,0.0,0.0,0.0,0.0,0.0,0.0,0.0,0.0,0.0,0.0,0.0,0.0,0.0,0.0,0.0,0.0,0.0,0.0,0.0,0.0,0.0,0.0,0.0,0.0,0.0,0.0,0.0,0.0,0.0,0.0,0.0,0.0,0.0,0.0,0.0,0.0,0.0,0.0,0.0,0.0,0.0,0.0,0.0,0.0,0.0,0.0,0.0,-0.7814,-0.8194,-0.8526,-0.8702,-0.8673,-0.8562,-0.8491,-0.8501,-0.8426,0.0,0.0,0.0,0.0,0.0,0.0,0.0,0.0,0.0,0.0,0.0,0.0,0.0,0.0,0.0,0.0,0.0,0.0,0.0,0.0,0.0,0.0,0.0,0.0,0.0,0.0,0.0,0.0,0.0,0.0,0.0,0.0,0.0,0.0,0.0,0.0,0.0,0.0,0.0,0.0,-0.1006,-0.0846,-0.0391,0.0,0.0,0.0,0.0,0.0,0.0,-0.0512,-0.0302,0.0,0.0,0.0,0.0,0.0,0.0,0.0,0.0,0.0,0.0,0.0,0.0,0.0,0.0,0.0,0.0,0.0,0.0,0.0,0.0,0.0,0.0,0.0,0.0,0.0,0.0,0.0,0.0,0.0,0.0,0.0,0.0,0.0,0.0,0.0,0.0,0.0,0.0,0.0,0.0,0.0,0.0,0.0,0.0,0.0,0.0,0.0,0.0,0.0,0.0,0.0,0.0,0.0,0.0,0.0,-0.7872,-0.817,-0.8448,-0.8706,-0.8491,-0.8263,-0.7919,-0.8006,-0.8053,0.0,0.0,0.0,0.0,0.0,0.0,0.0,0.0,0.0,0.0,0.0,0.0,0.0,0.0,0.0,0.0,0.0,0.0,0.0,0.0,0.0,0.0,0.0,0.0,0.0,0.0,0.0,0.0,0.0,0.0,0.0,0.0,0.0,0.0,0.0,0.0,0.0,0.0,0.0,0.0,0.0,-0.0876,-0.0,-0.0,0.0,0.0,0.0,0.0,-0.0,-0.0,0.0,0.0,0.0,0.0,0.0,0.0,0.0,0.0,0.0,0.0,0.0,0.0,0.0,0.0,0.0,0.0,0.0,0.0,0.0,0.0,0.0,0.0,0.0,0.0,0.0,0.0,0.0,0.0,0.0,0.0,0.0,0.0,0.0,0.0,0.0,0.0,0.0,0.0,0.0,0.0,0.0,0.0,0.0,0.0,0.0,0.0,0.0,0.0,0.0,0.0,0.0,0.0,0.0,0.0,0.0,0.0,-0.7514,-0.7787,-0.7998,-0.8374,-0.8159,-0.7931,-0.7814,-0.7678,-0.7626,0.0,0.0,0.0,0.0,0.0,0.0,0.0,0.0,0.0,0.0,0.0,0.0,0.0,0.0,0.0,0.0,0.0,0.0,0.0,0.0,0.0,0.0,0.0,0.0,0.0,0.0,0.0,0.0,0.0,0.0,0.0,0.0,0.0,0.0,0.0,0.0,0.0,0.0,0.0,0.0,0.0,-0.0099,-0.0,-0.0,-0.0,0.0,0.0,-0.0,-0.0,-0.0,0.0,0.0,0.0,0.0,0.0,0.0,0.0,0.0,0.0,0.0,0.0,0.0,0.0,0.0,0.0,0.0,0.0,0.0,0.0,0.0,0.0,0.0,0.0,0.0,0.0,0.0,0.0,0.0,0.0,0.0,0.0,0.0,0.0,0.0,0.0,0.0,0.0,0.0,0.0,0.0,0.0,0.0,0.0,0.0,0.0,0.0,0.0,0.0,0.0,0.0,0.0,0.0,0.0,0.0,0.0,-0.7113,-0.7443,-0.7779,-0.7987,-0.8159,-0.7937,-0.7715,-0.7482,-0.7248,-0.7142,0.0,0.0,0.0,0.0,0.0,0.0,0.0,0.0,0.0,0.0,0.0,0.0,0.0,0.0,0.0,0.0,0.0,0.0,0.0,0.0,0.0,0.0,0.0,0.0,0.0,0.0,0.0,0.0,0.0,0.0,0.0,0.0,0.0,0.0,0.0,0.0,0.0,0.0,0.0,0.0,0.0,0.0,-0.0,-0.0,0.0,0.0,0.0,-0.0,-0.0,0.0,0.0,0.0,0.0,0.0,0.0,0.0,0.0,0.0,0.0,0.0,0.0,0.0,0.0,0.0,0.0,0.0,0.0,0.0,0.0,0.0,0.0,0.0,0.0,0.0,0.0,0.0,0.0,0.0,0.0,0.0,0.0,0.0,0.0,0.0,0.0,0.0,0.0,0.0,0.0,0.0,0.0,0.0,0.0,0.0,0.0,0.0,0.0,0.0,0.0,0.0,0.0,0.0,0.0,0.0,0.0,0.0,-0.7285,-0.7707,-0.7903,-0.7762,-0.7685,-0.746,-0.7198,-0.6997,0.0,0.0,0.0,0.0,0.0,0.0,0.0,0.0,0.0,0.0,0.0,0.0,0.0,0.0,0.0,0.0,0.0,0.0,0.0,0.0,0.0,0.0,0.0,0.0,0.0,0.0,0.0,-0.1444,0.0,0.0,0.0,0.0,0.0,0.0,0.0,0.0,0.0,0.0,0.0,0.0,0.0,0.0,-0.0,-0.0,-0.0,-0.0,0.0,0.0,-0.0,-0.0,-0.0,-0.0,0.0,0.0,0.0,0.0,0.0,0.0,0.0,0.0,0.0,0.0,0.0,0.0,0.0,0.0,0.0,0.0,0.0,0.0,0.0,0.0,0.0,0.0,0.0,0.0,0.0,0.0,0.0,0.0,0.0,0.0,0.0,0.0,0.0,0.0,0.0,0.0,0.0,0.0,0.0,0.0,0.0,0.0,0.0,0.0,0.0,0.0,0.0,0.0,0.0,0.0,0.0,0.0,0.0,0.0,0.0,-0.6907,-0.7252,-0.7432,-0.7328,-0.7437,-0.7437,-0.7209,-0.7198,-0.7078,0.0,0.0,0.0,0.0,0.0,0.0,0.0,0.0,0.0,0.0,0.0,0.0,0.0,0.0,0.0,0.0,0.0,0.0,0.0,0.0,0.0,0.0,0.0,0.0,0.0,0.0,0.0,0.0,0.0,0.0,0.0,0.0,0.0,0.0,0.0,0.0,0.0,0.0,0.0,0.0,0.0,-0.0,-0.0,-0.0,-0.0,0.0,0.0,-0.0,-0.0,-0.0,-0.0,-0.0,0.0,0.0,0.0,0.0,0.0,0.0,0.0,0.0,0.0,0.0,0.0,0.0,0.0,0.0,0.0,0.0,0.0,0.0,0.0,0.0,0.0,0.0,0.0,0.0,0.0,0.0,0.0,0.0,0.0,0.0,0.0,0.0,0.0,0.0,0.0,0.0,0.0,0.0,0.0,0.0,0.0,0.0,0.0,0.0,0.0,0.0,0.0,0.0,0.0,0.0,0.0,0.0,0.0,-0.6857,-0.7018,-0.7274,-0.7421,-0.7332,-0.7497,-0.7497,-0.7685,-0.7328,-0.7165,0.0,0.0,0.0,0.0,0.0,0.0,0.0,0.0,0.0,0.0,0.0,0.0,0.0,0.0,0.0,0.0,0.0,0.0,0.0,0.0,0.0,0.0,0.0,0.0,0.0,0.0,0.0,0.0,-0.1463,-0.149,-0.1532,0.0,0.0,0.0,0.0,0.0,0.0,0.0,0.0,0.0,0.0,-0.0,-0.0,-0.0,0.0,0.0,-0.0,-0.0,-0.0,-0.0,-0.0,-0.0,-0.0,0.0,0.0,0.0,0.0,0.0,0.0,0.0,0.0,0.0,0.0,0.0,0.0,0.0,0.0,0.0,0.0,0.0,0.0,0.0,0.0,0.0,0.0,0.0,0.0,0.0,0.0,0.0,0.0,0.0,0.0,0.0,0.0,0.0,0.0,0.0,0.0,0.0,0.0,0.0,0.0,0.0,0.0,0.0,0.0,0.0,0.0,0.0,0.0,0.0,0.0,0.0,0.0,-0.6866,-0.7154,-0.7415,-0.7573,-0.7504,-0.7693,-0.7817,-0.787,-0.7657,-0.7404,0.0,0.0,0.0,0.0,0.0,0.0,0.0,0.0,0.0,0.0,0.0,0.0,0.0,0.0,0.0,0.0,0.0,0.0,0.0,0.0,0.0,0.0,0.0,0.0,0.0,0.0,0.0,0.0,-0.1362,-0.1577,-0.1572,0.0,0.0,0.0,0.0,0.0,0.0,0.0,0.0,0.0,0.0,-0.0,-0.0,-0.0,-0.0,-0.0,-0.0,-0.0,-0.0,-0.0,-0.0,-0.0,0.0,0.0,0.0,0.0,0.0,0.0,0.0,0.0,0.0,0.0,0.0,0.0,0.0,0.0,0.0,0.0,0.0,0.0,0.0,0.0,0.0,0.0,0.0,0.0,0.0,0.0,0.0,0.0,0.0,0.0,-0.6344,0.0,0.0,0.0,0.0,0.0,0.0,0.0,0.0,0.0,0.0,0.0,0.0,0.0,0.0,0.0,0.0,0.0,0.0,0.0,0.0,0.0,0.0,-0.704,-0.7165,-0.7731,-0.7846,-0.75,-0.7969,-0.8095,-0.7872,-0.7861,-0.7817,-0.7464,0.0,0.0,0.0,0.0,0.0,0.0,0.0,0.0,0.0,0.0,0.0,0.0,0.0,0.0,0.0,0.0,0.0,0.0,0.0,0.0,0.0,0.0,0.0,0.0,0.0,0.0,-0.0802,-0.1251,-0.1563,0.0,0.0,0.0,0.0,0.0,0.0,0.0,0.0,0.0,0.0,-0.0,-0.0,-0.0,-0.0,-0.0,-0.0,-0.0,-0.0,-0.0,-0.0,-0.0,0.0,0.0,0.0,0.0,0.0,0.0,0.0,0.0,0.0,0.0,0.0,0.0,0.0,0.0,0.0,0.0,0.0,0.0,0.0,0.0,0.0,0.0,0.0,0.0,0.0,0.0,0.0,-0.7428,-0.7502,0.0,0.0,0.0,0.0,0.0,0.0,0.0,0.0,0.0,0.0,0.0,-0.6437,-0.6399,0.0,0.0,0.0,0.0,0.0,0.0,0.0,0.0,0.0,0.0,0.0,0.0,-0.7274,-0.7622,-0.7828,-0.7992,-0.798,-0.8066,-0.8198,-0.8374,-0.8243,-0.7981,-0.7823,0.0,0.0,0.0,0.0,0.0,0.0,0.0,0.0,0.0,0.0,0.0,0.0,0.0,0.0,0.0,0.0,0.0,0.0,0.0,0.0,0.0,0.0,0.0,0.0,0.0,-0.11,0.0,0.0,0.0,0.0,0.0,0.0,0.0,0.0,0.0,0.0,0.0,-0.0335,-0.0,-0.0,-0.0,-0.0,-0.0,-0.0,0.0,0.0,0.0,0.0,0.0,0.0,0.0,0.0,0.0,0.0,0.0,0.0,0.0,0.0,0.2097,0.2045,0.2035,0.1915,0.1915,0.0,0.0,0.0,0.0,0.0,0.0,0.0,0.0,0.0,0.0,0.0,0.0,0.0,0.0,-0.7916,0.0,-0.795,0.0,0.0,0.0,0.0,0.0,0.0,0.0,0.0,-0.7277,-0.7083,-0.6931,-0.6888,-0.6828,0.0,-0.6469,-0.6386,0.0,0.0,0.0,0.0,0.0,0.0,0.0,0.0,-0.7519,-0.7861,-0.8035,-0.8198,-0.835,-0.8443,-0.8443,-0.8626,-0.828,-0.816,-0.8002,-0.8102,-0.7829,0.0,0.0,0.0,0.0,0.0,0.0,0.0,0.0,0.0,0.0,0.0,0.0,0.0,0.0,0.0,0.0,0.0,0.0,0.0,0.0,0.0,0.0,0.0,-0.064,0.0,0.0,0.0,0.0,0.0,0.0,0.0,0.0,0.0,-0.0983,-0.0341,-0.0,-0.0,-0.0,-0.0,-0.0,0.0,0.0,0.0,0.0,0.0,0.0,0.0,0.2273,0.2264,0.1862,0.1592,0.2113,0.212,0.2129,0.2273,0.0,0.0,0.2181,0.2165,0.2038,0.2038,0.2038,0.2038,0.2038,0.2038,0.1925,0.0,0.0,0.0,0.0,0.0,0.0,0.0,0.0,-0.8309,-0.8391,0.0,-0.8513,0.0,0.0,0.0,0.0,0.0,-0.8504,0.0,0.0,-0.8043,-0.7988,-0.7519,-0.7404,-0.735,-0.7345,-0.7011,-0.6899,-0.722,-0.7243,0.0,0.0,0.0,0.0,0.0,0.0,-0.7774,-0.7915,-0.835,-0.8595,-0.8606,-0.8823,-0.8834,-0.8606,-0.8372,-0.8253,-0.8258,-0.8511,-0.8329,-0.7731,-0.7377,0.0,0.0,0.0,0.0,0.0,0.0,0.0,0.0,0.0,0.0,0.0,0.0,0.0,0.0,0.0,0.0,0.0,0.0,0.0,0.0,-0.0559,0.0,0.0,0.0,0.0,0.0,0.0,0.0,0.0,0.0,0.0,-0.0119,-0.0,-0.0,-0.0,0.0,0.0,0.0,0.0,-0.0,-0.0,-0.0,-0.0,-0.0,0.1238,0.2211,0.2238,0.0,0.0,0.2207,0.2226,0.2236,0.2349,0.2371,0.2232,0.2176,0.2159,0.2155,0.2158,0.2157,0.2158,0.2161,0.2159,0.2033,-0.8872,0.0,0.0,0.0,0.0,-0.8682,-0.8825,-0.9062,-0.9062,-0.915,-0.9279,-0.9171,0.0,0.0,0.0,0.0,0.0,0.0,-0.8671,-0.8413,-0.826,-0.8079,-0.7769,-0.7736,-0.772,-0.772,-0.7402,-0.7322,-0.7474,-0.7617,-0.7752,-0.7979,0.0,0.0,0.0,0.0,-0.8182,-0.8383,-0.8606,-0.8758,-0.8988,-0.8916,-0.8916,-0.8845,-0.8611,-0.8568,-0.8736,-0.8649,-0.8453,-0.8204,-0.7861,0.0,0.0,0.0,0.0,0.0,0.0,0.0,0.0,0.0,0.0,0.0,0.0,0.0,0.0,0.0,0.0,0.0,0.0,0.0,-0.0448,-0.0115,-0.0,0.0,0.0,0.0,0.0,0.0,0.0,0.0,0.0,0.0,-0.0,-0.0,-0.0,0.0,0.0,-0.0,-0.0,-0.0,-0.0,-0.0,-0.0,0.0,0.0,0.1255,0.1676,0.2244,0.2245,0.2249,0.2263,0.2273,0.2289,0.2319,0.2334,0.2341,0.2342,0.2275,0.2232,0.2247,0.2252,0.2259,0.2277,0.2282,0.2147,-0.9578,-0.9449,-0.9218,-0.9117,-0.9117,-0.9117,-0.9218,-0.9381,-0.9381,-0.9462,-0.9612,-0.9453,-0.9392,-0.9298,-0.9096,0.0,0.0,0.0,-0.8883,-0.864,-0.8523,-0.8346,-0.8084,-0.8084,-0.8111,-0.8155,-0.797,-0.774,-0.7745,-0.7992,-0.8339,-0.8511,0.0,0.0,-0.8269,-0.8383,-0.8519,-0.866,-0.8829,-0.8948,-0.9024,-0.9024,-0.9024,-0.9019,-0.8834,-0.8802,-0.8943,-0.8762,-0.8618,-0.8552,-0.8209,-0.7739,0.0,0.0,0.0,0.0,0.0,0.0,0.0,0.0,0.0,0.0,0.0,-0.1375,0.0,0.0,0.0,0.0,-0.0896,-0.0575,-0.0,-0.0,0.0,0.0,0.0,0.0,0.0,0.0,0.0,-0.0,-0.0,-0.0,-0.0,-0.0,-0.0,-0.0,-0.0,-0.0,-0.0,0.0,-0.0,-0.0,0.0561,0.1126,0.1565,0.171,0.1859,0.2313,0.2316,0.2322,0.2192,0.2343,0.2356,0.2237,0.2397,0.2402,0.2421,0.2363,0.232,0.2339,0.2343,0.2349,0.2365,0.2368,0.2226,-1.0148,-1.0229,-0.9686,-0.9456,-0.9449,-0.9449,-0.9456,-0.9449,-0.9456,-0.953,-0.9673,-0.9438,-0.9381,-0.9516,-0.9277,0.0,-0.898,-0.898,-0.8919,-0.8788,-0.8788,-0.8598,-0.8459,-0.8459,-0.8513,-0.8617,-0.8344,-0.821,-0.821,-0.859,-0.8791,-0.8933,-0.8989,-0.8795,-0.8622,-0.8736,-0.8802,-0.8802,-0.903,-0.9144,-0.915,-0.915,-0.915,-0.915,-0.903,-0.897,-0.8976,-0.8993,-0.8927,-0.8791,-0.8475,-0.8236,-0.8095,0.0,0.0,0.0,0.0,0.0,0.0,0.0,0.0,0.0,0.0,0.0,0.0,0.0,0.0,0.0,-0.0604,0.0,-0.0,-0.0,0.0,0.0,0.0,-0.0,-0.0,-0.0,-0.0,-0.0,0.0,0.0,-0.0,-0.0,-0.0,-0.0,-0.0,-0.0,-0.0,-0.0,-0.0,-0.0,0.1412,0.2281,0.2334,0.2341,0.2357,0.2403,0.2424,0.2417,0.2266,0.2267,0.227,0.2275,0.2427,0.2429,0.2431,0.2429,0.2431,0.2433,0.2429,0.2427,0.2429,0.2431,0.2432,-1.0243,-1.027,-1.0127,-1.0066,-1.0066,-1.0066,-1.0066,-1.0066,-1.0066,-1.0086,-1.0127,-1.0029,-0.9982,-0.9954,-0.9569,-0.9257,-0.9115,-0.9383,-0.9323,-0.9169,-0.9175,-0.8974,-0.8823,-0.8823,-0.884,-0.8861,-0.8729,-0.8724,-0.8729,-0.9038,-0.9098,-0.9181,-0.9137,-0.9076,-0.8872,-0.8986,-0.9046,-0.9046,-0.9188,-0.9264,-0.9264,-0.9264,-0.9264,-0.9264,-0.9297,-0.9133,-0.9209,-0.9165,-0.9093,-0.9035,-0.8878,-0.8547,-0.8075,-0.7214,0.0,0.0,0.0,0.0,0.0,0.0,0.0,0.0,0.0,-0.1222,-0.0115,0.0,-0.0365,0.0,-0.0126,-0.0,-0.0,-0.0,0.0,0.0,-0.0,-0.0,-0.0,-0.0,-0.0,-0.0,-0.0,-0.0,-0.0,-0.0,-0.0,-0.0,-0.0,-0.0,-0.0,-0.0,0.0435,0.1611,0.2216,0.2386,0.2399,0.2402,0.2409,0.2421,0.2425,0.2424,0.2424,0.2424,0.2431,0.2453,0.2458,0.2466,0.2488,0.2493,0.2502,0.2518,0.2491,0.2466,0.2487,0.2492,0.2499,-1.0412,-1.0473,-1.048,-1.0473,-1.0473,-1.0405,-1.0243,-1.0121,-1.0187,-1.0084,-0.9961,-1.0156,-0.9871,-0.9588,-0.932,-0.9227,-0.9154,-0.9296,-0.9194,-0.9125,-0.9181,-0.9131,-0.9106,-0.9106,-0.9139,-0.9188,-0.9133,-0.9111,-0.9111,-0.9253,-0.9286,-0.9352,-0.9352,-0.9177,-0.9111,-0.9177,-0.9209,-0.9209,-0.9269,-0.9302,-0.9307,-0.9356,-0.9211,-0.9018,-0.9157,-0.9157,-0.8729,-0.8419,-0.8379,-0.8479,-0.8057,-0.7779,-0.7528,-0.6617,-0.589,0.0,0.0,0.0,0.0,0.0,0.0,0.0,0.0,0.0,0.0,0.0,-0.0,-0.0,-0.0,-0.0,-0.0,-0.0,-0.0,-0.0,-0.0,-0.0,-0.0,-0.0,-0.0,-0.0,-0.0,-0.0,-0.0,-0.0,0.0293,0.0891,0.1022,0.0724,-0.0,-0.0,0.0596,0.2248,0.2564,0.2435,0.2458,0.2487,0.2503,0.2503,0.2503,0.2503,0.2503,0.2503,0.2508,0.2525,0.2527,0.2533,0.2549,0.2553,0.2559,0.2567,0.2552,0.2537,0.2549,0.2552,0.256,-1.0656,-1.0778,-1.0799,-1.0806,-1.0799,-1.0683,-1.034,-1.0038,-1.018,-1.0111,-0.9716,-0.998,-0.9692,-0.897,-0.8976,-0.9126,-0.9137,-0.8997,-0.8997,-0.9003,-0.9106,-0.9215,-0.9329,-0.9329,-0.9394,-0.9503,-0.94,-0.9351,-0.9351,-0.9351,-0.9351,-0.9351,-0.9351,-0.9351,-0.9351,-0.9351,-0.934,-0.9329,-0.9345,-0.9351,-0.9205,-0.9307,-0.9166,-0.8634,-0.9024,-0.8725,-0.7883,-0.7069,-0.6909,-0.7263,-0.6831,-0.6609,-0.6745,-0.5891,-0.5202,0.0,-0.3965,0.0,0.0,0.0,0.0,0.0,0.0,0.0,0.0,-0.0,-0.0,-0.0,-0.0,-0.0,-0.0,-0.0,-0.0,-0.0,-0.0,-0.0,-0.0,-0.0,-0.0,-0.0,-0.0,-0.0,-0.0,0.0297,0.0891,0.1934,0.209,0.1651,0.0607,-0.0,0.0607,0.2129,0.2442,0.2322,0.2518,0.2567,0.2596,0.2598,0.2593,0.2601,0.2594,0.2596,0.2598,0.2598,0.2596,0.2598,0.2601,0.26,0.2601,0.2607,0.2604,0.2601,0.2598,0.2596,0.244,-1.0913,-1.109,-1.1212,-1.126,-1.1274,-1.1369,-1.1199,-1.0739,-1.0879,-1.0803,-1.0397,-1.0291,-0.9962,-0.9519,-0.9242,-0.915,-0.9237,-0.9237,-0.9237,-0.9237,-0.9258,-0.9334,-0.9449,-0.9454,-0.9514,-0.9628,-0.9457,-0.9297,-0.9297,-0.9297,-0.9446,-0.9601,-0.9601,-0.9601,-0.9601,0.0,0.0,0.0,-0.9546,-0.9452,-0.9004,-0.8721,-0.8421,-0.7954,-0.8131,0.0,-0.6806,-0.5746,-0.5424,-0.6112,-0.608,0.0,0.0,0.0,0.0,0.0,0.0,0.0,0.0,0.0,0.0,0.0,-0.0797,-0.0,-0.0,-0.0,-0.0,-0.0,-0.0,-0.0,-0.0,-0.0,-0.0,-0.0,-0.0,-0.0,-0.0,-0.0,-0.0,-0.0,-0.0,-0.0,0.1486,0.1917,0.1914,0.2234,0.2271,0.2154,0.1869,0.0774,0.0463,0.1403,0.1742,0.2088,0.2425,0.2596,0.2608,0.2604,0.2602,0.2604,0.2605,0.2604,0.2602,0.2604,0.2601,0.2604,0.2766,0.2601,0.2615,0.2634,0.2639,0.2631,0.2607,0.2602,0.2609,-1.153,0.0,-1.147,-1.1504,0.0,-1.166,-1.1599,-1.1382,-1.0959,-1.0536,-0.9971,-0.9836,-0.9729,-0.9506,-0.9363,-0.9247,-0.9302,-0.9302,-0.934,-0.9394,-0.9454,-0.9546,-0.9661,-0.9661,-0.9693,-0.9748,-0.9543,-0.9516,-0.9516,-0.9666,-0.9671,-0.9822,-0.9822,-0.9849,-0.991,-0.9813,-0.9753,-0.9579,-0.9639,-0.9521,-0.9371,-0.9127,-0.8824,-0.8323,0.0,0.0,0.0,0.0,0.0,0.0,0.0,0.0,0.0,0.0,0.0,-0.3887,-0.2742,-0.2319,-0.2609,-0.2336,-0.1797,-0.112,-0.0421,-0.0,-0.0,-0.0,-0.0,-0.0,-0.0,-0.0,-0.0,-0.0,-0.0,-0.0,0.0729,0.1171,0.1178,0.0741,0.0593,0.059,0.0589,0.0738,0.119,0.1935,0.2243,0.227,0.2001,0.2034,0.2214,0.1743,0.143,0.1439,0.1784,0.2296,0.2627,0.2639,0.2646,0.2649,0.2647,0.2646,0.2646,0.2646,0.2646,0.2646,0.2647,0.2646,0.2647,0.2658,0.2673,0.269,0.2705,0.2709,0.2691,0.2668,0.265,-1.1997,-1.1701,-1.1728,-1.1735,-1.1748,-1.1717,-1.175,-1.1417,0.0,0.0,0.0,-0.9479,-0.9479,-0.9334,-0.9362,-0.9367,-0.9367,-0.9345,-0.94,-0.9525,-0.9601,-0.9709,-0.9835,-0.984,-0.9851,-0.9867,-0.9775,-0.9731,-0.9731,-0.9888,-1.0039,-1.0044,-1.0044,-0.9932,-1.0031,-0.9981,-0.9949,-0.978,-0.9748,-0.9737,-0.9591,-0.9693,-0.9239,-0.792,-0.8636,-0.7552,-0.456,-0.2733,-0.2578,-0.3935,-0.345,-0.3115,-0.3222,-0.2602,-0.2141,-0.1833,-0.1267,-0.1132,-0.1717,-0.1861,-0.1295,-0.0145,-0.0,-0.0,-0.0,-0.0,-0.0,-0.0,-0.0,-0.0,-0.0,-0.0,0.0441,0.0445,0.1484,0.2224,0.2225,0.1783,0.1335,0.1475,0.1474,0.1183,0.0751,0.1664,0.2288,0.2159,0.1721,0.159,0.2414,0.2598,0.2284,0.1802,0.2146,0.2654,0.2658,0.2672,0.2694,0.2697,0.2699,0.2702,0.2707,0.2709,0.2709,0.2707,0.2709,0.2709,0.271,0.2727,0.2746,0.2746,0.277,0.2791,0.2788,0.2757,0.2725,-1.2303,-1.2006,-1.2142,-1.2196,-1.2196,-1.1914,-1.1246,-1.053,-1.0988,-1.0779,-1.0046,-1.0052,-0.99,-0.9318,-0.9568,-0.9617,-0.9457,-0.9508,-0.953,-0.9639,-0.9552,-0.9628,-0.9835,-0.984,-0.9889,-0.9987,-0.9976,-0.997,-0.997,-0.997,-0.9981,-0.9992,-0.9981,-0.9987,-1.0019,-1.0208,-1.0263,-1.0008,-0.9901,-0.9682,-0.9221,-0.9724,-0.8154,-0.4688,-0.5327,-0.4836,-0.2925,-0.1231,-0.0765,-0.1667,-0.1663,-0.1803,-0.2376,-0.2346,-0.1736,-0.0429,-0.0,-0.0143,-0.0,-0.0,-0.0287,-0.0,-0.0,-0.0,-0.0,-0.0,-0.0,-0.0,-0.0,-0.0,-0.0,0.1177,0.1773,0.1908,0.1611,0.1611,0.235,0.2225,0.2103,0.2135,0.2275,0.228,0.2012,0.232,0.2313,0.1861,0.1749,0.1957,0.2483,0.2657,0.2656,0.2506,0.2515,0.2686,0.2687,0.269,0.2706,0.2728,0.2732,0.2739,0.2759,0.2762,0.2762,0.2769,0.2766,0.2767,0.2769,0.2773,0.2782,0.2785,0.2808,0.2826,0.2827,0.283,0.2825,-1.2457,-1.2311,-1.2379,-1.2406,-1.2406,-1.1939,-1.1293,-1.0456,-1.0787,-1.0494,-0.9792,-0.9854,-0.9695,-0.935,-0.9617,-0.9666,-0.9666,-0.9612,-0.965,-0.9753,-0.9704,-0.9769,-0.9927,-0.9938,-0.997,-1.003,-1.0036,-1.0041,-1.0047,-1.0052,-1.0085,-1.0003,-0.9956,-0.904,-0.742,-0.7585,-0.7609,-0.7483,-0.9128,-0.9065,-0.7027,-0.8978,-0.9152,-0.7213,-0.4139,-0.1899,-0.1102,-0.0469,-0.0155,-0.0464,-0.0614,-0.0763,-0.1062,-0.105,-0.0743,-0.0,-0.0,-0.0,-0.0,-0.0,-0.0,-0.0,-0.0,-0.0,-0.0,-0.0,-0.0,-0.0,-0.0,0.0294,0.1168,0.1174,0.1326,0.2214,0.194,0.1956,0.2262,0.2451,0.2326,0.2024,0.2326,0.2484,0.2511,0.2517,0.2526,0.2226,0.2282,0.233,0.269,0.2697,0.2695,0.2695,0.2705,0.2716,0.2718,0.2732,0.2747,0.2761,0.2762,0.2767,0.2781,0.2784,0.2785,0.2785,0.2796,0.2982,0.281,0.2836,0.2851,0.2857,0.2879,0.2893,0.2883,0.2876,0.2863,-1.2501,-1.2501,-1.2347,-1.2192,-1.2037,-1.1727,-1.1107,-1.0474,-1.0378,-1.0061,-0.9595,-0.9666,-0.9655,-0.943,-0.9693,-0.9748,-0.9899,-0.9726,-0.9775,-0.9878,-0.9862,-0.9916,-1.0025,-1.0036,-1.0041,-1.0057,-1.0079,-0.9944,-0.996,-0.854,-0.779,-0.7709,-0.7681,-0.7248,-0.6253,-0.5596,-0.5437,-0.561,-0.8468,-0.8737,-0.633,-0.7324,-0.7661,-0.7328,-0.2742,-0.0,-0.0,-0.0,-0.0,-0.0,-0.0,-0.0,-0.0,-0.0,-0.0,-0.0,-0.0,-0.0,-0.0,-0.0,-0.0,-0.0,-0.0,-0.0,-0.0,-0.0,-0.0,-0.0,-0.0,0.0442,0.1322,0.1181,0.089,0.1795,0.1975,0.2147,0.2162,0.2197,0.2225,0.1898,0.2213,0.2527,0.2545,0.2564,0.259,0.2623,0.2671,0.2701,0.2706,0.2729,0.2735,0.2725,0.2733,0.2747,0.2748,0.2765,0.2782,0.2791,0.2793,0.2799,0.2806,0.281,0.2815,0.2823,0.302,0.304,0.3043,0.2885,0.2908,0.2908,0.2923,0.2938,0.2927,0.2911,0.2891,-1.2501,-1.2501,-1.2192,-1.1417,-1.0796,-1.0796,-1.0486,-1.0175,-1.0008,-0.9932,-0.9807,-0.9818,-0.9813,-0.9666,-0.9921,-0.9976,-0.997,-0.9889,-0.9757,-0.9842,-0.9773,-0.9794,-0.9745,-0.9912,-1.0074,-0.9933,-1.0024,-0.9755,-0.9118,-0.3858,-0.0,-0.097,-0.0975,-0.3917,-0.8336,-0.6696,-0.5415,-0.5471,-0.8458,-0.9902,-0.9303,-0.3905,-0.0977,-0.0813,-0.0,-0.0,-0.0,-0.0,-0.0,-0.0,-0.0,-0.0,-0.0,-0.0,-0.0,-0.0,-0.0,-0.0,-0.0,-0.0,-0.0,-0.0,-0.0,-0.0,-0.0,-0.0,-0.0,-0.0,-0.0,-0.0,0.0298,0.121,0.1523,0.0756,0.1216,0.1676,0.2007,0.17,0.2036,0.2428,0.2898,0.2575,0.2782,0.2632,0.2649,0.2676,0.2705,0.2731,0.2736,0.2759,0.2778,0.2774,0.2778,0.278,0.2781,0.2781,0.2801,0.2821,0.2826,0.2837,0.2859,0.2882,0.2901,0.2881,0.2913,0.293,0.3113,0.2936,0.2917,0.2921,0.2927,0.2928,0.2949,0.2947,0.2934,-1.2347,-1.2192,-1.2037,-1.1417,-1.0641,-1.0641,-1.033,-1.0019,-1.0019,-0.9992,-0.9949,-0.996,-0.9767,-0.9709,-0.997,-1.003,-1.0047,-0.9998,-0.89,-0.7205,-0.7022,-0.703,-0.7064,-0.7114,-0.794,-0.9882,-0.9993,-0.7927,-0.4208,-0.0,-0.0,-0.0,-0.0,-0.0,-0.3821,-0.2824,-0.2166,-0.2174,-0.3514,-0.4009,-0.3823,-0.1494,-0.0,-0.0,-0.0,-0.0,-0.0,-0.0,-0.0,-0.0,-0.0,-0.0,-0.0,-0.0,-0.0,-0.0,-0.0,-0.0,-0.0,-0.0,-0.0,-0.0,-0.0,-0.0,-0.0,-0.0,0.1514,0.4801,0.2409,-0.0,-0.0,0.1518,0.2138,0.1532,0.155,0.2514,0.5246,0.4829,0.4903,0.6453,0.5283,0.429,0.4161,0.334,0.2687,0.2713,0.2732,0.2916,0.2762,0.2791,0.2808,0.2812,0.2825,0.2827,0.2816,0.2826,0.2846,0.287,0.2881,0.2891,0.2912,0.2913,0.2915,0.2916,0.293,0.2938,0.3111,0.2945,0.2943,0.2936,0.2923,0.292,0.2932,0.2934,0.2923,-1.2212,-1.1895,-1.1746,-1.128,-1.0503,-1.0503,-1.0347,-1.0036,-1.0036,-1.0036,-1.0036,-1.0052,-0.9853,-0.9634,-0.9056,-0.9095,-0.9912,-1.0063,-0.8793,-0.6275,-0.4547,-0.3611,-0.3625,-0.3654,-0.48,-0.6927,-0.7162,-0.4749,-0.0,-0.0,-0.0,-0.0,-0.0,-0.0,-0.0,-0.0,-0.0,-0.0,-0.0,-0.0,-0.0,-0.0,-0.0,-0.0,-0.0,-0.0,-0.0,-0.0,-0.0,-0.0,-0.0,-0.0,-0.0,-0.0,-0.0,-0.0,-0.0,-0.0,-0.0,-0.0,-0.0,-0.0,0.1542,0.2938,0.2783,0.2316,0.4013,0.7586,0.5405,-0.0,0.0612,0.2298,0.3704,0.391,0.366,0.5158,0.7831,0.7458,0.7346,0.8725,0.7198,0.6218,0.6062,0.523,0.4576,0.4622,0.4476,0.4319,0.4185,0.405,0.3725,0.3549,0.3216,0.2863,0.2848,0.2864,0.2893,0.2898,0.2902,0.2915,0.2939,0.2919,0.2916,0.2916,0.2921,0.293,0.2938,0.2951,0.2942,0.2935,0.292,0.2905,0.2904,0.2905,0.2897,-1.2109,-1.1616,-1.1323,-1.0543,-0.9912,-0.9912,-0.9912,-0.9594,-0.9756,-0.9912,-0.975,-1.0074,-1.0074,-0.975,-0.69,-0.6904,-0.9443,-0.9923,-0.961,-0.8342,-0.3142,-0.0,-0.016,-0.016,-0.0,-0.0,-0.0,-0.0,-0.0,-0.0,-0.0,-0.0,-0.0,-0.0,-0.0,-0.0,-0.0,-0.0,-0.0,-0.0,-0.0,-0.0,-0.0,-0.0,-0.0,-0.0,-0.0,-0.0,-0.0,-0.0,-0.0,-0.0,-0.0,-0.0,-0.0,-0.0,-0.0,-0.0,-0.0,-0.0,-0.0,-0.0,0.6261,0.991,0.9211,0.7405,0.6745,0.7102,0.9337,0.7986,0.3145,0.4724,0.6687,0.7428,0.8424,0.9135,0.9563,0.8761,0.7966,0.8373,0.824,0.7937,0.7993,0.8174,0.7704,0.778,0.8031,0.7906,0.7395,0.6399,0.5717,0.5189,0.4301,0.2874,0.2874,0.2882,0.289,0.2898,0.2906,0.2913,0.29,0.2894,0.2906,0.2919,0.2928,0.2938,0.2947,0.2938,0.2912,0.2898,0.2891,0.2882,0.2886,0.2881,0.2882,-0.9891,-0.8145,-0.7529,-0.706,-0.6744,-0.6744,-0.6744,-0.6744,-0.6744,-0.6744,-0.7221,-0.8968,-1.0085,-0.9771,-0.6445,-0.4397,-0.4081,-0.8024,-0.7711,-0.3772,-0.1108,-0.0,-0.0,-0.0,-0.0,-0.0,-0.0,-0.0,-0.0,-0.0,-0.0,-0.0,-0.0,-0.0,-0.0,-0.0,-0.0,-0.0,-0.0,-0.0,-0.0,-0.0,-0.0,-0.0,-0.0,-0.0,-0.0,-0.0,-0.0,-0.0,-0.0,-0.0,-0.0,-0.0,-0.0,-0.0,-0.0,-0.0,-0.0,-0.0,0.2099,0.6637,1.0249,1.2093,1.1589,1.0745,1.0233,1.0556,1.1535,1.0517,0.8258,0.8071,0.8751,0.901,0.8866,0.9226,0.9973,0.9998,1.0206,1.1154,1.0725,0.9773,0.8937,0.8436,0.8473,0.8557,0.8607,0.8653,0.853,0.7859,0.7517,0.7338,0.5912,0.4662,0.4662,0.3597,0.2889,0.2901,0.2912,0.2926,0.2923,0.3088,0.2913,0.2908,0.292,0.2913,0.2913,0.2915,0.2889,0.2887,0.2878,0.2887,0.2875,0.2897,0.2906,-0.769,-0.4388,-0.3605,-0.3448,-0.3448,-0.3448,-0.3448,-0.3448,-0.3448,-0.3448,-0.392,-0.5811,-0.7872,-0.8983,-0.5347,-0.22,-0.0628,-0.4714,-0.425,-0.0,-0.0,-0.0,-0.0,-0.0,-0.0,-0.0,-0.0,-0.0,-0.0,-0.0,-0.0,-0.0,-0.0,-0.0,-0.0,-0.0,-0.0,-0.0,-0.0,-0.0,-0.0,-0.0,-0.0,-0.0,-0.0,-0.0,-0.0,-0.0,-0.0,-0.0,-0.0,-0.0,-0.0,-0.0,-0.0,-0.0,-0.0,0.3456,0.3126,0.1313,0.328,1.023,1.2213,1.269,1.2188,1.2338,1.2325,1.2475,1.28,1.2507,1.14,1.1066,1.0744,1.0288,0.9783,1.0154,1.1432,1.1622,1.2191,1.2985,1.2563,1.1595,1.0605,1.0442,1.0493,1.0419,1.0434,1.047,1.0352,0.9833,0.9477,0.9299,0.7874,0.6803,0.6624,0.592,0.3956,0.3612,0.2906,0.2926,0.2926,0.3095,0.3087,0.29,0.2893,0.2881,0.2878,0.2883,0.2886,0.2887,0.2905,0.292,0.2923,0.2934,0.2938,-0.5971,-0.0,-0.0,-0.0,-0.0,-0.0,-0.0,-0.0,-0.0,-0.0,-0.0,-0.0,-0.4086,-0.7248,-0.2987,-0.0,-0.0,-0.0,-0.0,-0.0,-0.0,-0.0,-0.0,-0.0,-0.0,-0.0,-0.0,-0.0,-0.0,-0.0,-0.0,-0.0,-0.0,-0.0,-0.0,-0.0,-0.0,-0.0,-0.0,-0.0,-0.0,-0.0,-0.0,-0.0,-0.0,-0.0,-0.0,-0.0,-0.0,-0.0,-0.0,-0.0,-0.0,-0.0,-0.0,-0.0,0.6359,0.978,0.9608,0.4349,0.4507,1.0398,1.2099,1.2395,1.2548,1.2542,1.2694,1.2853,1.3045,1.3231,1.3251,1.3177,1.2688,1.1254,1.1908,1.2984,1.325,1.3465,1.3688,1.381,1.3528,1.3919,1.3854,1.3546,1.3423,1.352,1.3558,1.3558,1.3224,1.2154,1.1621,1.1083,0.9833,0.8765,0.8587,0.8409,0.6091,0.4312,0.3435,0.2909,0.2897,0.2885,0.2887,0.2885,0.2896,0.2886,0.2891,0.2898,0.2915,0.292,0.2939,0.2949,0.295,0.2954,0.2964,-0.1885,-0.0,-0.0,-0.0,-0.0,-0.0,-0.0,-0.0,-0.0,-0.0,-0.0,-0.0,-0.1256,-0.0,-0.0,-0.0,-0.0,-0.0,-0.0,-0.0,-0.0,-0.0,-0.0,-0.0,-0.0,-0.0,-0.0,-0.0,-0.0,-0.0,-0.0,-0.0,-0.0,-0.0,-0.0,-0.0,-0.0,-0.0,-0.0,-0.0,-0.0,-0.0,-0.0,-0.0,-0.0,-0.0,-0.0,-0.0,-0.0,-0.0,0.4672,0.7353,0.7009,0.5007,0.3842,0.3844,0.5533,0.8584,1.0964,0.9244,0.8382,1.1772,1.2765,1.2752,1.2746,1.2912,1.3238,1.3251,1.3325,1.3559,1.358,1.3688,1.3363,1.2726,1.3303,1.3702,1.377,1.3865,1.3939,1.4,1.4089,1.4177,1.4211,1.4224,1.4238,1.4278,1.4299,1.4299,1.4122,1.3761,1.3407,1.3224,1.1793,1.0545,1.0545,1.0189,0.8587,0.6624,0.5396,0.343,0.3055,0.287,0.2871,0.2882,0.2891,0.2901,0.2908,0.2923,0.2941,0.2949,0.2958,0.2962,0.2964,0.2973,0.2987,-0.0,-0.0,-0.0,-0.0,-0.0,-0.0,-0.0,-0.0,-0.0,-0.0,-0.0,-0.0,-0.0,-0.0,-0.0,-0.0,-0.0,-0.0,-0.0,-0.0,-0.0,-0.0,-0.0,-0.0,-0.0,-0.0,-0.0,-0.0,-0.0,-0.0,-0.0,-0.0,-0.0,-0.0,-0.0,-0.0,-0.0,-0.0,-0.0,-0.0,-0.0,-0.0,-0.0,-0.0,-0.0,-0.0,0.0497,0.117,0.268,0.3999,0.7327,0.9169,1.0175,0.8838,0.7849,0.7853,0.8211,0.9412,1.179,1.1426,1.1576,1.242,1.3085,1.3244,1.3078,1.3271,1.3485,1.3505,1.362,1.3709,1.3729,1.3838,1.3871,1.381,1.381,1.3865,1.3926,1.4061,1.4143,1.4177,1.4231,1.4285,1.4299,1.4299,1.4299,1.4299,1.4299,1.4299,1.4299,1.4299,1.4299,1.4122,1.3224,1.2509,1.2331,1.1799,1.1083,0.9473,0.7874,0.5194,0.3576,0.3042,0.2864,0.2887,0.2902,0.292,0.2928,0.2957,0.2977,0.298,0.2984,0.2999,0.301,0.3013,0.3022,-0.0,-0.0,-0.0,-0.0,-0.0,-0.0,-0.0,-0.0,-0.0,-0.0,-0.0,-0.0,-0.0,-0.0,-0.0,-0.0,-0.0,-0.0,-0.0,-0.0,-0.0,-0.0,-0.0,-0.0,-0.0,-0.0,-0.0,-0.0,-0.0,-0.0,-0.0,-0.0,-0.0,-0.0,-0.0,-0.0,-0.0,-0.0,-0.0,-0.0,-0.0,-0.0,-0.0,0.1489,0.6139,0.6639,0.2986,0.4341,0.7331,0.9687,0.7868,0.8199,1.0324,1.1558,1.1635,1.1476,1.2222,1.2087,1.2432,1.2081,1.2229,1.274,1.3264,1.3417,1.3451,1.3559,1.3641,1.3648,1.377,1.3851,1.3878,1.3994,1.4061,1.4068,1.3987,1.398,1.4075,1.4204,1.4258,1.4278,1.4299,1.4299,1.4299,1.4299,1.4299,1.4299,1.4299,1.4299,1.4299,1.4299,1.4299,1.4122,1.3938,1.3761,1.3401,1.3224,1.2509,1.1799,1.0545,0.8575,0.6252,0.5719,0.3585,0.3433,0.2919,0.2935,0.3145,0.2988,0.3006,0.301,0.3024,0.3046,0.3051,0.3048,0.3054,-0.0,-0.0,-0.0,-0.0,-0.0,-0.0,-0.0,-0.0,-0.0,-0.0,-0.0,-0.0,-0.0,-0.0,-0.0,-0.0,-0.0,-0.0,-0.0,-0.0,-0.0,-0.0,-0.0,-0.0,-0.0,-0.0,-0.0,-0.0,-0.0,-0.0,-0.0,-0.0,-0.0,-0.0,-0.0,-0.0,-0.0,-0.0,-0.0,-0.0,-0.0,0.5221,0.7872,0.7954,0.7338,0.7531,0.7702,0.9397,1.0581,1.1552,1.0677,1.0495,1.183,1.202,1.2198,1.2204,1.2222,1.2414,1.258,1.2407,1.2567,1.3078,1.3512,1.3573,1.3573,1.3702,1.3777,1.381,1.3919,1.4014,1.4034,1.4143,1.4217,1.4238,1.4177,1.417,1.4224,1.4272,1.4299,1.4299,1.4299,1.4299,1.4299,1.4299,1.4299,1.4299,1.4299,1.4299,1.4299,1.4299,1.4299,1.4299,1.4122,1.4299,1.4299,1.4299,1.4122,1.3945,1.323,1.2875,1.1632,1.1298,0.7739,0.4891,0.3485,0.3142,0.3175,0.302,0.3028,0.3033,0.3046,0.3059,0.3063,0.3065,0.308,-0.0,-0.0,-0.0,-0.0,-0.0,-0.0,-0.0,-0.0,-0.0,-0.0,-0.0,-0.0,-0.0,-0.0,-0.0,-0.0,-0.0,-0.0,-0.0,-0.0,-0.0,-0.0,-0.0,-0.0,-0.0,-0.0,-0.0,-0.0,-0.0,-0.0,-0.0,-0.0,-0.0,-0.0,-0.0,-0.0,-0.0,-0.0,0.2253,0.3055,0.0812,0.5526,0.8889,0.9993,0.872,0.924,1.1098,1.2105,1.2618,1.2284,1.1939,1.1926,1.226,1.2414,1.2401,1.2401,1.2567,1.2733,1.2912,1.2778,1.2984,1.3351,1.3641,1.3709,1.3743,1.3851,1.3939,1.3953,1.4082,1.415,1.4177,1.4251,1.4292,1.4292,1.4299,1.4299,1.4299,1.4292,1.4299,1.4299,1.4299,1.4299,1.4299,1.4299,1.4299,1.4299,1.4299,1.4299,1.4299,1.4299,1.4299,1.4299,1.4299,1.4299,1.4299,1.4299,1.4299,1.4299,1.4306,1.4312,1.4346,1.4222,1.1607,0.7481,0.4981,0.3169,0.3201,0.3036,0.3041,0.305,0.3061,0.3071,0.3078,0.3095,0.311,-0.0,-0.0,-0.0,-0.0,-0.0,-0.0,-0.0,-0.0,-0.0,-0.0,-0.0,-0.0,-0.0,-0.0,-0.0,-0.0,-0.0,-0.0,-0.0,-0.0,-0.0,-0.0,-0.0,-0.0,-0.0,-0.0,-0.0,-0.0,-0.0,-0.0,-0.0,-0.0,-0.0,-0.0,-0.0,-0.0,-0.0,-0.0,0.5593,0.5937,0.3399,0.5686,0.8543,1.056,1.1087,1.1248,1.2081,1.2752,1.3098,1.2605,1.2247,1.2241,1.2241,1.2567,1.2733,1.2899,1.3072,1.3238,1.3444,1.3378,1.3459,1.3661,1.3783,1.3865,1.3892,1.4,1.4095,1.4095,1.4217,1.4265,1.4278,1.4299,1.4299,1.4299,1.4299,1.4299,1.4299,1.4299,1.4299,1.4299,1.4299,1.4299,1.4299,1.4299,1.4299,1.4299,1.4299,1.4299,1.4299,1.4299,1.4299,1.4299,1.4299,1.4299,1.4299,1.4299,1.4299,1.4299,1.4299,1.4312,1.4346,1.4064,1.3325,1.0861,0.5552,0.3181,0.3033,0.3048,0.3243,0.3065,0.3077,0.3091,0.3104,0.3129,0.3148,-0.0,-0.0,-0.0,-0.0,-0.0,-0.0,-0.0,-0.0,-0.0,-0.0,-0.0,-0.0,-0.0,-0.0,-0.0,-0.0,-0.0,-0.0,-0.0,-0.0,-0.0,-0.0,-0.0,-0.0,-0.0,-0.0,-0.0,-0.0,-0.0,-0.0,-0.0,-0.0,-0.0,-0.0,-0.0,0.4555,0.7738,0.7676,0.7133,0.7334,0.8263,0.8769,1.0182,1.1409,1.1754,1.2241,1.2573,1.3078,1.3251,1.3078,1.2906,1.2733,1.3072,1.3065,1.3231,1.3231,1.3238,1.3451,1.3559,1.3445,1.3512,1.3626,1.3933,1.4201,1.4027,1.4156,1.4238,1.4251,1.4285,1.4299,1.4299,1.4299,1.4299,1.4299,1.4299,1.4299,1.4299,1.4299,1.4299,1.4299,1.4299,1.4299,1.4299,1.4299,1.4299,1.4299,1.4299,1.4299,1.4299,1.4299,1.4299,1.4299,1.4299,1.4299,1.4299,1.4299,1.4299,1.4299,1.4299,1.4299,1.4333,1.3911,1.3344,0.9569,0.4444,0.3563,0.4753,0.3812,0.4196,0.3649,0.348,0.4081,0.4299,0.3944,0.397,-0.0,-0.0,-0.0,-0.0,-0.0,-0.0,-0.0,-0.0,-0.0,-0.0,-0.0,-0.0,-0.0,-0.0,-0.0,-0.0,-0.0,-0.0,-0.0,-0.0,-0.0,-0.0,-0.0,-0.0,-0.0,-0.0,-0.0,-0.0,-0.0,-0.0,-0.0,0.4878,0.4657,-0.0,0.262,0.6123,0.8304,0.985,0.8988,0.8883,1.0689,1.138,1.1812,1.2032,1.2075,1.2395,1.3072,1.3238,1.3403,1.3403,1.3231,1.3065,1.3403,1.3397,1.3397,1.3397,1.3403,1.3471,1.3587,1.3526,1.3619,1.3767,1.4095,1.4156,1.419,1.4265,1.4292,1.4299,1.4299,1.4299,1.4299,1.4299,1.4299,1.4299,1.4299,1.4299,1.4299,1.4299,1.4299,1.4299,1.4299,1.4299,1.4299,1.4299,1.4299,1.4299,1.4299,1.4299,1.4299,1.4299,1.4299,1.4299,1.4299,1.4299,1.4299,1.4299,1.4299,1.4299,1.4299,1.4299,1.4312,1.3925,1.3362,1.0133,0.7614,0.7142,0.7795,0.6476,0.5733,0.6347,0.6586,0.6245,0.5708,0.5158,0.5784,-0.0,-0.0,-0.0,-0.0,-0.0,-0.0,-0.0,-0.0,-0.0,-0.0,-0.0,-0.0,-0.0,-0.0,-0.0,-0.0,-0.0,-0.0,-0.0,-0.0,-0.0,-0.0,-0.0,-0.0,-0.0,-0.0,-0.0,-0.0,-0.0,-0.0,-0.0,0.8896,1.0309,0.8358,0.6475,0.6238,0.8243,1.0716,1.0687,1.0785,1.1481,1.1851,1.2137,1.2682,1.2567,1.2727,1.3231,1.3403,1.3397,1.3397,1.3397,1.3397,1.3397,1.3397,1.3397,1.3397,1.3397,1.3498,1.3661,1.3777,1.3899,1.4082,1.4211,1.4285,1.4292,1.4292,1.4299,1.4299,1.4299,1.4299,1.4299,1.4299,1.4299,1.4299,1.4299,1.4299,1.4299,1.4299,1.4299,1.4299,1.4299,1.4299,1.4299,1.4299,1.4299,1.4299,1.4299,1.4299,1.4299,1.4299,1.4299,1.4299,1.4299,1.4299,1.4299,1.4299,1.4299,1.4312,1.4306,1.4333,1.436,1.4036,1.384,1.4467,1.3085,1.2096,1.0659,0.9353,0.9008,0.9641,0.9342,0.8649,0.753,0.6387,0.7408,-0.0,-0.0,-0.0,-0.0,-0.0,-0.0,-0.0,-0.0,-0.0,-0.0,-0.0,-0.0,-0.0,-0.0,-0.0,-0.0,-0.0,-0.0,-0.0,-0.0,-0.0,-0.0,0.6881,0.8597,0.8252,0.5206,0.2852,-0.0,-0.0,-0.0,-0.0,0.9462,1.1347,1.089,1.0286,1.0465,1.0074,1.1149,1.1286,1.1572,1.1936,1.2204,1.2469,1.3211,1.3065,1.3231,1.3238,1.3403,1.3397,1.3397,1.3397,1.3403,1.3397,1.3397,1.3397,1.3397,1.3403,1.3505,1.3722,1.3817,1.3994,1.4183,1.4285,1.4292,1.4299,1.4299,1.4299,1.4299,1.4299,1.4299,1.4299,1.4299,1.4299,1.4299,1.4299,1.4299,1.4299,1.4299,1.4299,1.4299,1.4299,1.4299,1.4299,1.4299,1.4299,1.4299,1.4299,1.4299,1.4299,1.4299,1.4299,1.4299,1.4299,1.4299,1.4299,1.4299,1.4299,1.4326,1.4346,1.4421,1.433,1.4381,1.4527,1.4909,1.5382,1.4597,1.334,1.2037,1.1548,1.162,1.1358,1.1087,1.0753,1.0206,0.9412,-0.0,-0.0,-0.0,-0.0,-0.0,-0.0,-0.0,-0.0,-0.0,-0.0,-0.0,-0.0,-0.0,-0.0,-0.0,-0.0,-0.0,-0.0,-0.0,0.5164,0.7026,0.6766,0.9354,1.1432,1.1622,1.008,0.7877,0.6536,-0.0,-0.0,0.8352,1.0138,1.1818,1.1671,1.1574,1.1239,1.1616,1.1585,1.1597,1.1867,1.2475,1.2754,1.3117,1.3349,1.3397,1.3397,1.3417,1.3492,1.3478,1.3437,1.3478,1.3464,1.3431,1.3397,1.3397,1.3397,1.3403,1.3492,1.3709,1.379,1.3946,1.4318,1.4245,1.4299,1.4299,1.4299,1.4292,1.4292,1.4299,1.4299,1.4299,1.4299,1.4299,1.4299,1.4299,1.4299,1.4299,1.4299,1.4306,1.4312,1.4319,1.4319,1.4299,1.4299,1.4299,1.4299,1.4299,1.4299,1.4299,1.4299,1.4299,1.4299,1.4299,1.4299,1.4299,1.4476,1.4476,1.4496,1.4367,1.4441,1.473,1.4915,1.4841,1.5073,1.5596,1.6126,1.5779,1.4461,1.4234,1.3801,1.4091,1.4397,1.4558,1.4048,1.304,-0.0,-0.0,-0.0,-0.0,-0.0,-0.0,-0.0,-0.0,-0.0,-0.0,-0.0,-0.0,-0.0,-0.0,-0.0,-0.0,0.1884,-0.0,-0.0,0.9133,1.1671,1.0958,0.9748,1.049,1.2414,1.2432,1.242,1.3451,1.2272,1.2266,1.2586,1.2484,1.1956,1.1684,1.1783,1.1754,1.1804,1.1914,1.205,1.2351,1.2949,1.3234,1.3397,1.3397,1.3403,1.341,1.3471,1.372,1.3587,1.3553,1.3566,1.3573,1.3464,1.3417,1.3403,1.3397,1.3397,1.3485,1.3614,1.3722,1.3865,1.4256,1.4366,1.4251,1.4278,1.4265,1.4245,1.4251,1.4245,1.4238,1.4231,1.4278,1.4292,1.4299,1.4299,1.4299,1.4312,1.4333,1.4373,1.4373,1.436,1.4346,1.4333,1.4299,1.4299,1.4299,1.4299,1.4299,1.4299,1.4299,1.4299,1.4299,1.4299,1.4299,1.4299,1.4476,1.4646,1.4653,1.4537,1.4434,1.5068,1.5557,1.5672,1.5993,1.648,1.7181,1.7017,1.6921,1.6349,1.6301,1.7173,1.7329,1.6962,1.6857,1.6453,-0.0,-0.0,-0.0,-0.0,-0.0,-0.0,-0.0,-0.0,-0.0,-0.0,-0.0,-0.0,-0.0,-0.0,0.6131,0.8337,0.7702,0.5965,0.5991,0.8926,1.1249,1.2346,1.1522,1.2402,1.2821,1.3045,1.3238,1.3403,1.3424,1.3431,1.3363,1.309,1.3037,1.2943,1.2327,1.2298,1.2554,1.2514,1.2414,1.2657,1.2949,1.3241,1.3363,1.3397,1.3417,1.3471,1.3573,1.3816,1.3858,1.3756,1.3675,1.3634,1.358,1.3464,1.3417,1.3397,1.3417,1.3471,1.3587,1.3485,1.3593,1.4139,1.4256,1.4345,1.419,1.415,1.4102,1.4095,1.4109,1.4122,1.4156,1.4231,1.4278,1.4299,1.4299,1.4299,1.4312,1.4401,1.4434,1.4489,1.4496,1.4421,1.4373,1.4333,1.4299,1.4299,1.4299,1.4299,1.4299,1.4299,1.4299,1.4299,1.4469,1.4469,1.4653,1.4646,1.4822,1.4999,1.4864,1.4764,1.5227,1.6062,1.7167,1.7492,1.778,1.7699,1.76,1.7726,1.7907,1.8033,1.8135,1.855,1.9002,1.9058,1.8869,0.1726,0.0314,0.4084,0.5658,0.5341,0.3766,0.2822,0.2823,0.2667,0.2656,0.3113,0.4857,0.3766,0.2352,0.7068,1.0398,1.071,0.9271,0.8963,0.9489,1.1634,1.2536,1.2475,1.2943,1.307,1.3117,1.3191,1.3403,1.3403,1.3397,1.3363,1.3473,1.3391,1.3152,1.2734,1.2688,1.2594,1.2548,1.2684,1.2745,1.2956,1.3152,1.3315,1.3403,1.3478,1.3559,1.3648,1.3995,1.4016,1.3878,1.3838,1.3831,1.3743,1.362,1.3532,1.3526,1.3444,1.3437,1.3492,1.3412,1.3532,1.3797,1.3892,1.3966,1.4014,1.3987,1.3939,1.3939,1.4027,1.4061,1.4095,1.4211,1.4272,1.4299,1.4299,1.4299,1.4326,1.462,1.4695,1.4577,1.4624,1.4563,1.4502,1.4475,1.4401,1.4299,1.4299,1.4299,1.4299,1.4299,1.4299,1.4299,1.4469,1.4822,1.4999,1.5175,1.5352,1.5352,1.5506,1.5425,1.572,1.6407,1.7278,1.7802,1.7916,1.7853,1.8168,1.8257,1.8174,1.8335,1.8704,1.8907,1.9094,1.924,1.9058,0.4706,0.2983,0.7072,0.9135,0.9766,0.7221,0.6271,0.6275,0.6121,0.5618,0.5903,0.7985,0.6908,0.4539,0.7846,1.1017,1.1966,1.1485,1.1778,1.2278,1.2487,1.2561,1.2648,1.2969,1.3091,1.3173,1.3275,1.3349,1.339,1.3397,1.3397,1.3397,1.3466,1.3411,1.3166,1.3003,1.2854,1.2725,1.2718,1.28,1.2956,1.3098,1.3281,1.3431,1.3392,1.3492,1.3763,1.4098,1.416,1.4021,1.4007,1.398,1.3892,1.377,1.3688,1.3668,1.3593,1.3526,1.3519,1.3372,1.3418,1.3485,1.3573,1.3693,1.3858,1.3824,1.3824,1.3858,1.3926,1.4007,1.4089,1.4211,1.4278,1.4299,1.4299,1.4299,1.4326,1.4634,1.4757,1.4658,1.4713,1.4936,1.4881,1.4658,1.4543,1.4353,1.4299,1.4306,1.4299,1.4476,1.4469,1.4646,1.4999,1.5175,1.5352,1.5528,1.5704,1.5873,1.5858,1.6064,1.6364,1.6627,1.7087,1.7443,1.7851,1.7989,1.8119,1.8168,1.8233,1.8428,1.8615,1.8769,1.8939,1.9118,1.9248,0.9599,0.9125,0.6587,0.7377,0.9917,0.9756,0.9594,0.9271,0.9438,0.769,0.6095,0.8315,0.9573,0.9417,0.988,1.1305,1.1442,1.1274,1.1734,1.1895,1.2063,1.2298,1.2541,1.2793,1.2915,1.3105,1.337,1.3459,1.337,1.339,1.3397,1.339,1.3356,1.337,1.3315,1.3159,1.2929,1.28,1.2752,1.2827,1.2969,1.3125,1.3322,1.3546,1.3465,1.3579,1.4014,1.4256,1.4311,1.4197,1.4143,1.4102,1.4034,1.3912,1.3838,1.3817,1.377,1.3695,1.3641,1.3532,1.3338,1.3445,1.3369,1.3599,1.3756,1.3695,1.3715,1.3831,1.3912,1.3987,1.4089,1.4197,1.4285,1.4299,1.4299,1.4299,1.4353,1.4482,1.4604,1.4719,1.497,1.5188,1.535,1.5287,1.5021,1.4833,1.4537,1.4537,1.4659,1.4646,1.4822,1.4999,1.5352,1.5704,1.5704,1.5881,1.6233,1.6401,1.6569,1.6593,1.6824,1.7073,1.7007,1.7403,1.7644,1.7949,1.8256,1.8144,1.8241,1.8379,1.8533,1.8688,1.8874,1.9273,1.9191,1.0041,0.9885,0.8613,0.8778,1.0057,1.0047,1.0041,1.0041,1.0052,0.9578,0.8618,0.981,1.0274,1.0314,1.1119,1.1753,1.1895,1.1734,1.1882,1.2192,1.236,1.2387,1.261,1.2691,1.28,1.2935,1.3226,1.3356,1.3418,1.3342,1.339,1.3397,1.3397,1.3397,1.3349,1.3241,1.3017,1.2847,1.2827,1.2915,1.2983,1.32,1.341,1.36,1.3673,1.3753,1.4068,1.417,1.4238,1.4265,1.4231,1.4211,1.4183,1.4055,1.3994,1.3966,1.3919,1.3838,1.3756,1.362,1.3539,1.3471,1.3365,1.3412,1.3614,1.3593,1.3695,1.381,1.3939,1.4048,1.4204,1.4272,1.4299,1.4299,1.4299,1.4299,1.4353,1.4647,1.4792,1.5083,1.5364,1.5618,1.5759,1.5891,1.5433,1.5146,1.504,1.4942,1.4886,1.4999,1.5352,1.5521,1.5873,1.6049,1.6225,1.6401,1.6761,1.6944,1.6961,1.7025,1.7081,1.7105,1.7234,1.7435,1.762,1.794,1.8248,1.8144,1.8225,1.8306,1.8444,1.8615,1.9011,1.9208,1.929,1.0019,1.0019,1.0019,1.0025,1.0036,1.0025,1.0019,1.0019,1.0186,1.0508,1.0969,1.0863,1.0673,1.0732,1.1405,1.2011,1.2313,1.2172,1.234,1.2347,1.2501,1.2501,1.2542,1.2603,1.2684,1.2766,1.2908,1.3212,1.3363,1.3453,1.3349,1.3383,1.3397,1.3397,1.3363,1.3241,1.3064,1.2942,1.2901,1.3003,1.3051,1.3261,1.3512,1.3688,1.3747,1.3894,1.415,1.4238,1.4278,1.4292,1.4285,1.4292,1.4258,1.4211,1.415,1.4102,1.4048,1.396,1.3885,1.3599,1.3459,1.3539,1.3498,1.3478,1.3451,1.3546,1.3702,1.3912,1.4055,1.4211,1.4373,1.4421,1.4394,1.4394,1.4312,1.4299,1.451,1.4599,1.5111,1.5258,1.5708,1.5971,1.6435,1.6567,1.6059,1.5767,1.5629,1.5355,1.5483,1.5594,1.5881,1.6049,1.6401,1.6401,1.6577,1.6816,1.7065,1.7097,1.7121,1.7007,1.7055,1.725,1.733,1.7737,1.7892,1.8157,1.8248,1.8152,1.8176,1.8184,1.8355,1.8541,1.8631,1.9002,1.9117,1.0019,1.0019,1.0019,1.0019,1.0019,1.0019,1.0019,1.0175,1.0486,1.0796,1.1268,1.1553,1.1484,1.1447,1.2132,1.2427,1.2379,1.244,1.2488,1.2494,1.2501,1.2501,1.2508,1.2542,1.2603,1.2698,1.28,1.2942,1.3295,1.3363,1.3439,1.3356,1.3383,1.3397,1.3383,1.3254,1.3173,1.3139,1.303,1.3085,1.3186,1.3363,1.36,1.3817,1.3834,1.3981,1.4238,1.4272,1.4299,1.4299,1.4299,1.4299,1.4285,1.4285,1.4265,1.4258,1.4258,1.419,1.4075,1.3747,1.3613,1.3654,1.362,1.3398,1.3485,1.3573,1.3763,1.4,1.419,1.4414,1.4543,1.4597,1.4536,1.4634,1.4551,1.4496,1.4701,1.4935,1.5276,1.5745,1.6007,1.6469,1.7011,1.7258,1.672,1.6386,1.622,1.5958,1.5921,1.6209,1.6487,1.6448,1.68,1.6753,1.6961,1.7105,1.7364,1.7404,1.7282,1.7338,1.7378,1.7575,1.7878,1.8067,1.8141,1.8198,1.828,1.8176,1.8176,1.8192,1.8298,1.8444,1.8517,1.8606,1.8736,1.0175,1.033,1.033,1.0641,1.0796,1.0486,1.0641,1.0796,1.1107,1.1262,1.1572,1.1889,1.1965,1.2199,1.2179,1.2345,1.2477,1.2325,1.2386,1.2501,1.2501,1.2501,1.2501,1.2508,1.2535,1.2589,1.2507,1.2588,1.2708,1.3051,1.3343,1.3418,1.3363,1.3397,1.3397,1.3329,1.3288,1.3207,1.3214,1.3288,1.3349,1.3553,1.3777,1.398,1.4129,1.4238,1.4292,1.4299,1.4299,1.4299,1.4299,1.4299,1.4299,1.4299,1.4299,1.4299,1.4299,1.4285,1.4231,1.3968,1.3847,1.3871,1.3763,1.3702,1.3593,1.3797,1.396,1.4089,1.4292,1.4509,1.4658,1.4685,1.4631,1.4882,1.4977,1.5084,1.5269,1.5512,1.5793,1.6212,1.6649,1.6985,1.7333,1.7588,1.7285,1.7032,1.6711,1.6649,1.6618,1.6868,1.7137,1.7081,1.7049,1.7153,1.7169,1.7364,1.7437,1.7437,1.7362,1.7475,1.7689,1.7911,1.7843,1.7821,1.803,1.8231,1.8119,1.8176,1.8176,1.8217,1.8282,1.8355,1.8428,1.8311,1.8391,1.0641,1.0796,1.0796,1.1107,1.1417,1.1107,1.1107,1.1417,1.1572,1.1727,1.2037,1.2192,1.2273,1.2484,1.245,1.2291,1.2443,1.245,1.2366,1.2488,1.2501,1.2501,1.2501,1.2501,1.2508,1.2535,1.2583,1.2507,1.2601,1.2983,1.3152,1.3275,1.3349,1.339,1.3397,1.3376,1.3356,1.3295,1.3336,1.3403,1.3519,1.3695,1.3899,1.4061,1.419,1.4299,1.4299,1.4299,1.4299,1.4299,1.4299,1.4299,1.4299,1.4299,1.4299,1.4299,1.4299,1.4299,1.4285,1.4285,1.4156,1.4048,1.3966,1.3824,1.3736,1.3878,1.4,1.415,1.4353,1.473,1.4881,1.4908,1.5035,1.5284,1.5599,1.5705,1.5734,1.598,1.616,1.6752,1.6955,1.7483,1.7628,1.7652,1.7636,1.7604,1.7389,1.7349,1.7104,1.7338,1.7437,1.7421,1.7339,1.7258,1.7323,1.7502,1.7534,1.7486,1.7632,1.7827,1.7867,1.81,1.7837,1.7715,1.8046,1.8223,1.8127,1.8176,1.8176,1.8176,1.82,1.8265,1.815,1.8198,1.8247,1.1262,1.1262,1.1262,1.1572,1.1727,1.1572,1.1572,1.1882,1.1882,1.2192,1.2501,1.2501,1.2427,1.2471,1.245,1.2277,1.2119,1.2277,1.2366,1.2454,1.2488,1.2494,1.2501,1.2501,1.2501,1.2501,1.2528,1.2447,1.2561,1.2749,1.3119,1.3322,1.3383,1.3397,1.3397,1.3397,1.3383,1.3376,1.3383,1.3485,1.3634,1.3763,1.3939,1.4095,1.4231,1.4285,1.4299,1.4299,1.4299,1.4299,1.4299,1.4299,1.4299,1.4299,1.4299,1.4299,1.4299,1.4299,1.4299,1.4299,1.4292,1.4197,1.429,1.4091,1.3838,1.3926,1.4048,1.415,1.4483,1.4889,1.5251,1.5412,1.5571,1.5889,1.604,1.622,1.625,1.6445,1.6767,1.6947,1.729,1.7575,1.7737,1.7786,1.7811,1.7843,1.7636,1.7587,1.7515,1.7378,1.7518,1.7616,1.7518,1.7388,1.7469,1.7575,1.7559,1.7486,1.7843,1.8046,1.8079,1.8239,1.8095,1.7909,1.8022,1.8223,1.8135,1.8176,1.8176,1.8176,1.8176,1.8192,1.8265,1.8241,1.8273,1.1417,1.1727,1.1727,1.2037,1.2347,1.2192,1.2192,1.2347,1.2347,1.2347,1.2501,1.2501,1.258,1.245,1.2291,1.2072,1.2059,1.2072,1.2291,1.2372,1.2467,1.2488,1.2501,1.2501,1.2501,1.2501,1.2508,1.2535,1.263,1.282,1.3119,1.3356,1.3894,1.3735,1.3562,1.3397,1.3397,1.3397,1.3397,1.3546,1.3702,1.3817,1.3987,1.417,1.4258,1.4299,1.4299,1.4299,1.4299,1.4299,1.4299,1.4299,1.4299,1.4299,1.4299,1.4299,1.4299,1.4299,1.4299,1.4299,1.4299,1.4448,1.4689,1.4347,1.4098,1.398,1.4277,1.4304,1.4632,1.5227,1.5579,1.5782,1.6189,1.659,1.6718,1.6664,1.6861,1.697,1.7119,1.7095,1.7445,1.7591,1.7729,1.7746,1.7778,1.7851,1.7884,1.7843,1.7762,1.7632,1.7616,1.7713,1.7583,1.7421,1.7461,1.7559,1.7526,1.7551,1.7908,1.8135,1.8256,1.8239,1.8111,1.8119,1.8264,1.8095,1.8152,1.8176,1.8176,1.8176,1.8176,1.8176,1.8176,1.8176,1.8176,1.1882,1.2192,1.2192,1.2347,1.2501,1.2501,1.2501,1.2501,1.2501,1.2501,1.2501,1.2501,1.2454,1.2532,1.2325,1.2277,1.2112,1.2119,1.2166,1.242,1.2467,1.2488,1.2501,1.2508,1.2501,1.2501,1.2515,1.2549,1.2651,1.3214,1.3683,1.5711,1.5404,1.5058,1.4713,1.4541,1.4052,1.3728,1.3437,1.3587,1.3722,1.3851,1.4034,1.4231,1.4292,1.4299,1.4299,1.4299,1.4299,1.4299,1.4299,1.4299,1.4299,1.4299,1.4299,1.4299,1.4299,1.4476,1.4469,1.4462,1.4469,1.478,1.5024,1.4873,1.4664,1.47,1.4678,1.4678,1.5125,1.5556,1.5867,1.6363,1.6849,1.7333,1.7397,1.7278,1.7378,1.7469,1.7437,1.7413,1.7502,1.7656,1.7729,1.7729,1.7794,1.794,1.7997,1.7957,1.7867,1.7746,1.7746,1.7819,1.7616,1.7413,1.7494,1.7607,1.764,1.7705,1.7748,1.7909,1.8038,1.8256,1.8144,1.8168,1.8168,1.8176,1.8176,1.8176,1.8176,1.8176,1.8176,1.8176,1.8176,1.8176,1.8176,1.2501,1.2501,1.2501,1.2501,1.2501,1.2501,1.2501,1.2501,1.2501,1.2501,1.2501,1.2501,1.2494,1.2454,1.2539,1.2525,1.2359,1.2192,1.2233,1.2501,1.2542,1.2556,1.2549,1.2522,1.2535,1.2522,1.2549,1.2637,1.28,1.3325,1.5008,1.8402,1.8942,1.8238,1.6517,1.5679,1.5028,1.4217,1.3763,1.3539,1.3756,1.3878,1.398,1.4238,1.4299,1.4299,1.4299,1.4299,1.4299,1.4299,1.4299,1.4476,1.4299,1.4299,1.4299,1.4476,1.4476,1.4646,1.4801,1.478,1.4942,1.525,1.5511,1.5324,1.5257,1.5038,1.5017,1.4987,1.5395,1.6046,1.6407,1.6687,1.7159,1.7668,1.7676,1.7604,1.7563,1.764,1.7534,1.7518,1.7543,1.7689,1.7819,1.7835,1.7892,1.8046,1.8095,1.8054,1.7981,1.7859,1.7875,1.7924,1.7754,1.7591,1.7656,1.7754,1.7811,1.7732,1.7675,1.7691,1.7837,1.8079,1.8168,1.8176,1.8176,1.8176,1.8176,1.8176,1.8176,1.8176,1.8176,1.8176,1.8176,1.8176,1.8176,1.2501,1.2501,1.2501,1.2501,1.2501,1.2501,1.2501,1.2501,1.2501,1.2501,1.2501,1.2501,1.2501,1.2488,1.2461,1.2587,1.2519,1.2427,1.2467,1.2542,1.2596,1.2623,1.2664,1.2644,1.2603,1.2569,1.2623,1.2779,1.3269,1.3893,1.5318,1.8654,2.0405,2.0753,1.8146,1.7147,1.6172,1.5358,1.4563,1.4034,1.411,1.3871,1.398,1.4197,1.4299,1.4292,1.4469,1.4822,1.4653,1.4476,1.4646,1.4646,1.4299,1.4299,1.4469,1.4822,1.4808,1.5147,1.5293,1.5403,1.5344,1.5602,1.5817,1.5825,1.564,1.5504,1.5421,1.5564,1.5851,1.6333,1.6759,1.7206,1.7499,1.7827,1.794,1.7924,1.7908,1.7778,1.764,1.764,1.7624,1.7721,1.7867,1.7957,1.8022,1.8079,1.8135,1.8127,1.8079,1.7997,1.7997,1.8014,1.7932,1.7835,1.7859,1.7851,1.7892,1.7932,1.7845,1.7837,1.7821,1.7901,1.8176,1.8176,1.8176,1.8176,1.8176,1.8176,1.8176,1.8176,1.8176,1.8176,1.8176,1.8176,1.8176,1.2501,1.2501,1.2501,1.2501,1.2501,1.2501,1.2501,1.2501,1.2501,1.2501,1.2501,1.2501,1.2501,1.2501,1.2501,1.2474,1.2553,1.2461,1.2549,1.2617,1.263,1.2657,1.2698,1.2752,1.2691,1.2657,1.28,1.3123,1.4062,1.7332,1.9805,2.0984,2.2912,2.2565,1.9775,1.8617,1.7801,1.7147,1.6016,1.5513,1.5093,1.4508,1.3994,1.4204,1.4469,1.4455,1.4604,1.4956,1.5506,1.5337,1.5506,1.6042,1.5873,1.5528,1.5175,1.5147,1.5286,1.5418,1.5722,1.5805,1.5871,1.6113,1.5987,1.5837,1.6037,1.5887,1.5988,1.616,1.6396,1.688,1.7135,1.7451,1.7811,1.7981,1.7949,1.7892,1.7819,1.7705,1.7713,1.7802,1.7786,1.7778,1.79,1.7949,1.8022,1.8119,1.8168,1.8176,1.8135,1.8103,1.8111,1.8087,1.7997,1.7932,1.79,1.79,1.7932,1.7981,1.8038,1.807,1.8095,1.8135,1.8176,1.8176,1.8176,1.8176,1.8176,1.8176,1.8176,1.8176,1.8176,1.8176,1.8176,1.8176,1.8176,1.2501,1.2501,1.2501,1.2501,1.2501,1.2501,1.2501,1.2501,1.2501,1.2501,1.2501,1.2501,1.2501,1.2501,1.2501,1.2501,1.2501,1.2494,1.2583,1.2698,1.2651,1.2766,1.2979,1.313,1.3109,1.2979,1.2922,1.4494,1.6079,1.9897,2.2531,2.3686,2.3489,2.2959,2.19,2.106,2.0241,1.9105,1.8328,1.7928,1.6785,1.5278,1.4851,1.4689,1.4977,1.5103,1.5074,1.5608,1.653,1.7238,1.7247,1.6904,1.7088,1.6569,1.6003,1.5805,1.5548,1.6002,1.6434,1.6299,1.6568,1.6656,1.6341,1.6116,1.6308,1.6397,1.6503,1.6698,1.6942,1.7218,1.7478,1.7681,1.7875,1.8062,1.7981,1.7916,1.7819,1.7713,1.7811,1.7932,1.7916,1.7892,1.794,1.7989,1.8046,1.8144,1.8176,1.8176,1.8168,1.8152,1.8144,1.8103,1.803,1.7981,1.7965,1.7973,1.8014,1.8054,1.8119,1.8152,1.8176,1.8176,1.8176,1.8176,1.8176,1.8176,1.8176,1.8176,1.8176,1.8176,1.8176,1.8176,1.8176,1.8176,1.8176,1.2501,1.2501,1.2501,1.2501,1.2501,1.2501,1.2501,1.2501,1.2501,1.2501,1.2501,1.2501,1.2501,1.2501,1.2501,1.2501,1.2501,1.2508,1.2698,1.2861,1.28,1.2929,1.3653,1.4586,1.4106,1.3792,1.4296,1.6504,1.895,2.2128,2.3848,2.374,2.3728,2.3544,2.3211,2.2372,2.1383,2.0575,2.011,1.9529,1.891,1.7617,1.6136,1.6325,1.6832,1.6467,1.6467,1.7563,1.9516,2.0578,2.0385,1.8994,1.8296,1.7947,1.7547,1.6933,1.649,1.6902,1.7298,1.7289,1.7539,1.7504,1.7033,1.6617,1.6676,1.6943,1.6927,1.6958,1.7239,1.7419,1.7665,1.7607,1.7786,1.8038,1.8087,1.8087,1.8038,1.7949,1.794,1.7989,1.7997,1.8022,1.8087,1.8111,1.8111,1.8176,1.8176,1.8176,1.8176,1.8176,1.8176,1.8127,1.807,1.8111,1.8127,1.8095,1.8119,1.816,1.8176,1.8176,1.8176,1.8176,1.8176,1.8176,1.8176,1.8176,1.8176,1.8176,1.8176,1.8176,1.8176,1.8176,1.8176,1.8176,1.8176]},{"header":{"parameterUnit":"m.s-1","parameterCategory":1,"la1":31.0,"la2":29.5877,"lo1":-88.7671,"lo2":-86.6584,"dx":0.0162,"dy":0.0185,"nx":115,"ny":88,"refTime":"2022-11-22T06:00:00:Z","depth":0,"parameterNumber":3,"parameterNumberName":"V-component_of_WINDS"},"data":[0.0,0.0,0.0,0.0,0.0,0.0,0.0,0.0,0.0,0.0,0.0,0.0,0.0,0.0,0.0,0.0,0.0,0.0,0.0,0.0,0.0,0.0,0.0,0.0,0.0,0.0,0.0,0.0,0.0,0.0,0.0,0.0,0.0,0.0,0.0,0.0,0.0,0.0,0.0,0.0,0.0,0.0,0.0,0.0,0.0,0.0,0.0,0.0,0.0,0.0,0.0,0.0,0.0,0.0,0.0,0.0,0.0,0.0,0.0,0.0,0.0,0.0,0.0,0.0,0.0,0.0,0.0,0.0,0.0,0.0,0.0,0.0,0.0,0.0,0.0,0.0,0.0,0.0,0.0,0.0,0.0,0.0,0.0,0.0,0.0,0.0,0.0,0.0,0.0,0.0,0.0,0.0,0.0,0.0,0.0,0.0,0.0,0.0,0.0,0.0,0.0,0.0,0.0,0.0,0.0,0.0,0.0,0.0,0.0,0.0,0.0,0.0,0.0,0.0,0.0,0.0,0.0,0.0,0.0,0.0,0.0,0.0,0.0,0.0,0.0,0.0,0.0,0.0,0.0,0.0,0.0,0.0,0.0,0.0,0.0,0.0,0.0,0.0,0.0,0.0,0.0,0.0,0.0,0.0,0.0,0.0,0.0,0.0,0.0,0.0,0.0,0.0,0.0,0.0,0.0,0.0,0.0,0.0,0.0,0.0,0.0,0.0,0.0,0.0,0.0,0.0,0.0,0.0,0.0,0.0,0.0,0.0,0.0,0.0,0.0,0.0,0.0,0.0,0.0,0.0,0.0,0.0,0.0,0.0,0.0,0.0,0.0,0.0,0.0,0.0,0.0,0.0,0.0,0.0,0.0,0.0,0.0,0.0,0.0,0.0,0.0,0.0,0.0,0.0,0.0,0.0,0.0,0.0,0.0,0.0,0.0,0.0,0.0,0.0,0.0,0.0,0.0,0.0,0.0,0.0,0.0,0.0,0.0,0.0,0.0,0.0,0.0,0.0,0.0,0.0,0.0,0.0,0.0,0.0,0.0,0.0,0.0,0.0,0.0,0.0,0.0,0.0,0.0,0.0,0.0,0.0,0.0,0.0,0.0,0.0,0.0,0.0,0.0,0.0,0.0,0.0,0.0,0.0,0.0,0.0,0.0,0.0,0.0,0.0,0.0,0.0,0.0,0.0,0.0,0.0,0.0,0.0,0.0,0.0,0.0,0.0,0.0,0.0,0.0,0.0,0.0,0.0,0.0,0.0,0.0,0.0,0.0,0.0,0.0,0.0,0.0,0.0,0.0,0.0,0.0,0.0,0.0,0.0,0.0,0.0,0.0,0.0,0.0,0.0,0.0,0.0,0.0,0.0,0.0,0.0,0.0,0.0,0.0,0.0,0.0,0.0,0.0,0.0,0.0,0.0,0.0,0.0,0.0,0.0,0.0,0.0,0.0,0.0,0.0,0.0,0.0,0.0,0.0,0.0,0.0,0.0,0.0,0.0,0.0,0.0,0.0,0.0,0.0,0.0,0.0,0.0,0.0,0.0,0.0,0.0,0.0,0.0,0.0,0.0,0.0,0.0,0.0,0.0,0.0,0.0,0.0,0.0,0.0,0.0,0.0,0.0,0.0,0.0,0.0,0.0,0.0,0.0,0.0,0.0,0.0,0.0,0.0,0.0,0.0,0.0,0.0,0.0,0.0,0.0,0.0,0.0,0.0,0.0,0.0,0.0,0.0,0.0,0.0,0.0,0.0,0.0,0.0,0.0,0.0,0.0,0.0,0.0,0.0,0.0,0.0,0.0,0.0,0.0,0.0,0.0,0.0,0.0,0.0,0.0,0.0,0.0,0.0,0.0,0.0,0.0,0.0,0.0,0.0,0.0,0.0,0.0,0.0,0.0,0.0,0.0,0.0,0.0,0.0,0.0,0.0,0.0,0.0,0.0,0.0,0.0,0.0,0.0,0.0,0.0,0.0,0.0,0.0,0.0,0.0,0.0,0.0,0.0,0.0,0.0,0.0,0.0,0.0,0.0,0.0,0.0,0.0,0.0,0.0,0.0,0.0,0.0,0.0,0.0,0.0,0.0,0.0,0.0,0.0,0.0,0.0,0.0,0.0,0.0,0.0,0.0,0.0,0.0,0.0,0.0,0.0,0.0,0.0,0.0,0.0,0.0,0.0,0.0,0.0,0.0,0.0,0.0,0.0,0.0,0.0,0.0,0.0,0.0,0.0,0.0,0.0,0.0,0.0,0.0,0.0,0.0,0.0,0.0,0.0,0.0,0.0,0.0,0.0,0.0,0.0,0.0,0.0,0.0,0.0,0.0,0.0,0.0,0.0,0.0,0.0,0.0,0.0,0.0,0.0,0.0,0.0,0.0,0.0,0.0,0.0,0.0,0.0,0.0,0.0,0.0,0.0,0.0,0.0,0.0,0.0,0.0,0.0,0.0,0.0,0.0,0.0,0.0,0.0,0.0,0.0,0.0,0.0,0.0,0.0,0.0,0.0,0.0,0.0,0.0,0.0,0.0,0.0,0.0,0.0,0.0,0.0,0.0,0.0,0.0,0.0,0.0,0.0,0.0,0.0,0.0,0.0,0.0,0.0,0.0,0.0,0.0,0.0,0.0,0.0,0.0,0.0,0.0,0.0,0.0,0.0,0.0,0.0,0.0,0.0,0.0,0.0,0.0,0.0,0.0,0.0,0.0,0.0,0.0,0.0,0.0,0.0,0.0,0.0,0.0,0.0,0.0,0.0,0.0,0.0,0.0,0.0,0.0,0.0,0.0,0.0,0.0,0.0,0.0,0.0,0.0,0.0,0.0,0.0,0.0,0.0,0.0,0.0,0.0,0.0,0.0,0.0,0.0,0.0,0.0,0.0,0.0,0.0,0.0,0.0,0.0,0.0,0.0,0.0,0.0,0.0,0.0,0.0,0.0,0.0,0.0,0.0,0.0,0.0,0.0,0.0,0.0,0.0,0.0,0.0,0.0,0.0,0.0,0.0,0.0,0.0,0.0,0.0,0.0,0.0,0.0,0.0,0.0,0.0,0.0,0.0,0.0,0.0,0.0,0.0,0.0,0.0,0.0,0.0,0.0,0.0,0.0,0.0,0.0,0.0,0.0,0.0,0.0,0.0,0.0,0.0,0.0,0.0,0.0,0.0,0.0,0.0,0.0,0.0,0.0,0.0,0.0,0.0,0.0,0.0,0.0,0.0,0.0,0.0,0.0,0.0,0.0,0.0,0.0,0.0,0.0,0.0,0.0,0.0,0.0,0.0,0.0,0.0,0.0,0.0,0.0,0.0,0.0,0.0,0.0,0.0,0.0,0.0,0.0,0.0,0.0,0.0,0.0,0.0,0.0,0.0,0.0,0.0,0.0,0.0,0.0,0.0,0.0,0.0,0.0,0.0,0.0,0.0,0.0,0.0,0.0,0.0,0.0,0.0,0.0,0.0,0.0,0.0,0.0,0.0,0.0,0.0,0.0,0.0,0.0,0.0,0.0,0.0,0.0,0.0,0.0,0.0,0.0,0.0,0.0,0.0,0.0,0.0,0.0,0.0,0.0,0.0,0.0,0.0,0.0,0.0,0.0,0.0,0.0,0.0,0.0,0.0,0.0,0.0,0.0,0.0,0.0,0.0,0.0,0.0,0.0,0.0,0.0,0.0,0.0,0.0,0.0,0.0,0.0,0.0,0.0,0.0,0.0,0.0,0.0,0.0,0.0,0.0,0.0,0.0,0.0,0.0,0.0,0.0,0.0,0.0,0.0,0.0,0.0,0.0,0.0,0.0,0.0,0.0,0.0,0.0,0.0,0.0,0.0,0.0,0.0,0.0,0.0,0.0,0.0,0.0,0.0,0.0,0.0,0.0,0.0,0.0,0.0,0.0,0.0,0.0,0.0,0.0,0.0,0.0,0.0,0.0,0.0,0.0,0.0,0.0,0.0,0.0,0.0,0.0,0.0,0.0,0.0,0.0,0.0,0.0,0.0,0.0,0.0,0.0,0.0,0.0,0.0,0.0,0.0,0.0,0.0,0.0,0.0,0.0,0.0,0.0,0.0,0.0,0.0,0.0,0.0,0.0,0.0,0.0,0.0,0.0,0.0,0.0,0.0,0.0,0.0,0.0,0.0,0.0,0.0,0.0,0.0,0.0,0.0,0.0,0.0,0.0,0.0,0.0,0.0,0.0,0.0,0.0,0.0,0.0,0.0,0.0,0.0,0.0,0.0,0.0,0.0,0.0,0.0,0.0,0.0,0.0,0.0,-2.8469,0.0,0.0,0.0,-2.564,0.0,0.0,0.0,0.0,0.0,0.0,0.0,0.0,0.0,0.0,0.0,0.0,0.0,0.0,0.0,0.0,0.0,0.0,0.0,0.0,0.0,0.0,0.0,0.0,0.0,0.0,0.0,0.0,0.0,0.0,0.0,0.0,0.0,0.0,0.0,0.0,0.0,0.0,0.0,0.0,0.0,0.0,0.0,0.0,0.0,0.0,0.0,0.0,0.0,0.0,0.0,0.0,0.0,0.0,0.0,0.0,0.0,0.0,0.0,0.0,0.0,0.0,0.0,0.0,0.0,0.0,0.0,0.0,0.0,0.0,0.0,0.0,0.0,0.0,0.0,0.0,0.0,0.0,0.0,0.0,0.0,0.0,0.0,0.0,0.0,0.0,0.0,0.0,0.0,0.0,0.0,0.0,0.0,0.0,0.0,0.0,0.0,0.0,0.0,0.0,0.0,0.0,0.0,0.0,0.0,0.0,0.0,0.0,0.0,0.0,-2.9518,-2.8307,-2.777,-2.7155,-2.6306,0.0,0.0,0.0,0.0,0.0,0.0,0.0,0.0,0.0,0.0,0.0,0.0,0.0,0.0,0.0,0.0,0.0,0.0,0.0,0.0,0.0,0.0,0.0,0.0,0.0,0.0,0.0,0.0,0.0,0.0,0.0,0.0,0.0,0.0,0.0,0.0,0.0,0.0,0.0,0.0,0.0,0.0,0.0,0.0,0.0,0.0,0.0,0.0,0.0,0.0,0.0,0.0,0.0,0.0,0.0,0.0,0.0,0.0,0.0,0.0,0.0,0.0,0.0,0.0,0.0,0.0,0.0,0.0,0.0,0.0,0.0,0.0,0.0,0.0,0.0,0.0,0.0,0.0,0.0,0.0,0.0,0.0,0.0,0.0,0.0,0.0,0.0,0.0,0.0,0.0,0.0,0.0,0.0,0.0,0.0,0.0,0.0,0.0,0.0,0.0,0.0,0.0,0.0,0.0,0.0,0.0,0.0,0.0,0.0,0.0,0.0,0.0,-2.8579,-2.7576,-2.6533,0.0,0.0,0.0,0.0,0.0,0.0,0.0,0.0,0.0,0.0,0.0,0.0,0.0,0.0,0.0,0.0,0.0,0.0,0.0,0.0,0.0,0.0,0.0,0.0,0.0,0.0,0.0,0.0,0.0,0.0,0.0,0.0,0.0,0.0,0.0,0.0,0.0,0.0,0.0,0.0,0.0,0.0,0.0,0.0,0.0,0.0,0.0,0.0,0.0,0.0,0.0,0.0,0.0,0.0,0.0,0.0,0.0,0.0,0.0,0.0,0.0,0.0,0.0,0.0,0.0,0.0,0.0,0.0,0.0,0.0,0.0,0.0,0.0,0.0,0.0,0.0,0.0,0.0,0.0,0.0,0.0,0.0,0.0,0.0,0.0,0.0,0.0,0.0,0.0,0.0,0.0,0.0,0.0,0.0,0.0,0.0,0.0,0.0,0.0,0.0,0.0,0.0,0.0,0.0,0.0,0.0,0.0,0.0,0.0,0.0,-3.028,-2.9411,-2.8551,0.0,-2.5751,0.0,0.0,0.0,0.0,0.0,0.0,0.0,0.0,0.0,0.0,0.0,0.0,0.0,0.0,0.0,0.0,0.0,0.0,0.0,0.0,0.0,0.0,0.0,0.0,0.0,0.0,0.0,0.0,0.0,0.0,0.0,0.0,0.0,0.0,0.0,0.0,0.0,0.0,0.0,0.0,0.0,0.0,0.0,0.0,0.0,0.0,0.0,0.0,0.0,0.0,0.0,0.0,0.0,0.0,0.0,0.0,0.0,0.0,0.0,0.0,0.0,0.0,0.0,0.0,0.0,0.0,0.0,0.0,0.0,0.0,0.0,0.0,0.0,0.0,0.0,0.0,0.0,0.0,0.0,0.0,0.0,0.0,0.0,0.0,0.0,0.0,0.0,0.0,0.0,0.0,0.0,0.0,0.0,0.0,0.0,0.0,0.0,0.0,0.0,0.0,0.0,0.0,0.0,0.0,0.0,0.0,0.0,0.0,0.0,0.0,-3.0521,-3.0164,-2.8815,-2.7535,0.0,0.0,0.0,0.0,0.0,0.0,0.0,0.0,0.0,0.0,0.0,0.0,0.0,0.0,0.0,0.0,0.0,0.0,0.0,0.0,0.0,0.0,0.0,0.0,0.0,0.0,0.0,0.0,0.0,0.0,0.0,0.0,0.0,0.0,0.0,0.0,0.0,0.0,0.0,0.0,0.0,0.0,0.0,0.0,0.0,0.0,0.0,0.0,0.0,0.0,0.0,0.0,0.0,0.0,0.0,0.0,0.0,0.0,0.0,0.0,0.0,0.0,0.0,0.0,0.0,0.0,0.0,0.0,0.0,0.0,0.0,0.0,0.0,0.0,0.0,0.0,0.0,0.0,0.0,0.0,0.0,0.0,0.0,0.0,0.0,0.0,0.0,0.0,0.0,0.0,0.0,0.0,0.0,0.0,0.0,0.0,0.0,0.0,0.0,0.0,0.0,0.0,0.0,0.0,0.0,0.0,0.0,0.0,0.0,0.0,-3.069,-3.0591,-3.0288,-2.9109,-2.7923,-2.6823,0.0,0.0,0.0,0.0,0.0,0.0,0.0,0.0,0.0,0.0,0.0,0.0,0.0,0.0,0.0,0.0,0.0,0.0,0.0,0.0,0.0,0.0,0.0,0.0,0.0,0.0,0.0,0.0,0.0,0.0,0.0,0.0,0.0,0.0,0.0,0.0,0.0,0.0,0.0,0.0,0.0,0.0,0.0,0.0,0.0,0.0,0.0,0.0,0.0,0.0,0.0,0.0,0.0,0.0,0.0,0.0,0.0,0.0,0.0,0.0,0.0,0.0,0.0,0.0,0.0,0.0,0.0,0.0,0.0,0.0,0.0,0.0,0.0,0.0,0.0,0.0,0.0,0.0,0.0,0.0,0.0,0.0,0.0,0.0,0.0,0.0,0.0,0.0,0.0,0.0,0.0,0.0,0.0,0.0,0.0,0.0,0.0,0.0,0.0,0.0,0.0,0.0,0.0,0.0,0.0,0.0,0.0,0.0,-3.069,-3.0715,-3.0296,-2.9442,-2.9282,-2.8443,0.0,0.0,0.0,0.0,0.0,0.0,0.0,0.0,0.0,0.0,0.0,0.0,0.0,0.0,0.0,0.0,0.0,0.0,0.0,0.0,0.0,0.0,0.0,0.0,0.0,0.0,0.0,0.0,0.0,0.0,0.0,0.0,0.0,0.0,0.0,0.0,0.0,0.0,0.0,0.0,0.0,0.0,0.0,0.0,0.0,0.0,0.0,0.0,0.0,0.0,0.0,0.0,0.0,0.0,0.0,0.0,0.0,0.0,0.0,0.0,0.0,0.0,0.0,0.0,0.0,0.0,0.0,0.0,0.0,0.0,0.0,0.0,0.0,0.0,0.0,0.0,0.0,0.0,0.0,0.0,0.0,0.0,0.0,0.0,0.0,0.0,0.0,0.0,0.0,0.0,0.0,0.0,0.0,0.0,0.0,0.0,0.0,0.0,0.0,0.0,0.0,0.0,0.0,0.0,0.0,0.0,0.0,0.0,0.0,-3.0707,-3.0676,-3.0458,-3.0131,-2.9592,-2.8984,0.0,0.0,0.0,0.0,0.0,0.0,0.0,0.0,0.0,0.0,0.0,0.0,0.0,0.0,0.0,0.0,0.0,0.0,0.0,0.0,0.0,0.0,0.0,0.0,0.0,0.0,0.0,0.0,0.0,0.0,0.0,0.0,0.0,0.0,0.0,0.0,0.0,0.0,0.0,0.0,0.0,0.0,0.0,0.0,0.0,0.0,0.0,0.0,0.0,0.0,0.0,0.0,0.0,0.0,0.0,0.0,0.0,0.0,0.0,0.0,0.0,0.0,0.0,0.0,0.0,0.0,0.0,0.0,0.0,0.0,0.0,0.0,0.0,0.0,0.0,0.0,0.0,0.0,0.0,0.0,0.0,0.0,0.0,0.0,0.0,0.0,0.0,0.0,0.0,0.0,0.0,0.0,0.0,0.0,0.0,0.0,0.0,0.0,0.0,0.0,0.0,0.0,0.0,0.0,0.0,0.0,0.0,0.0,0.0,-3.1452,-3.1426,-3.1283,-3.1003,-3.0404,-2.9835,0.0,0.0,0.0,0.0,0.0,0.0,0.0,0.0,0.0,0.0,0.0,0.0,0.0,0.0,0.0,0.0,0.0,0.0,0.0,0.0,0.0,0.0,0.0,0.0,0.0,0.0,0.0,0.0,0.0,0.0,0.0,0.0,0.0,0.0,0.0,0.0,0.0,0.0,0.0,0.0,0.0,0.0,0.0,0.0,0.0,0.0,0.0,0.0,0.0,0.0,0.0,0.0,0.0,0.0,0.0,0.0,0.0,0.0,0.0,0.0,0.0,0.0,0.0,0.0,0.0,0.0,0.0,0.0,0.0,0.0,0.0,0.0,0.0,0.0,0.0,0.0,0.0,0.0,0.0,0.0,0.0,0.0,0.0,0.0,0.0,0.0,0.0,0.0,0.0,0.0,0.0,0.0,0.0,0.0,0.0,0.0,0.0,0.0,0.0,0.0,0.0,0.0,0.0,0.0,0.0,0.0,0.0,0.0,-3.2305,-3.3035,-3.3064,-3.2619,-3.1844,-3.1758,-3.0965,0.0,0.0,0.0,0.0,0.0,0.0,0.0,0.0,0.0,0.0,0.0,0.0,0.0,0.0,0.0,0.0,0.0,0.0,0.0,0.0,0.0,0.0,0.0,0.0,0.0,0.0,0.0,0.0,0.0,0.0,0.0,0.0,0.0,0.0,0.0,0.0,0.0,0.0,0.0,0.0,0.0,0.0,0.0,0.0,0.0,0.0,0.0,0.0,0.0,0.0,0.0,0.0,0.0,0.0,0.0,0.0,0.0,0.0,0.0,0.0,0.0,0.0,0.0,0.0,0.0,0.0,0.0,0.0,0.0,0.0,0.0,0.0,0.0,0.0,0.0,0.0,0.0,0.0,0.0,0.0,0.0,0.0,0.0,0.0,0.0,0.0,0.0,0.0,0.0,0.0,0.0,0.0,0.0,0.0,0.0,0.0,0.0,0.0,0.0,0.0,0.0,0.0,0.0,0.0,0.0,0.0,0.0,0.0,0.0,-3.3161,-3.3102,-3.2954,-3.2613,-3.2066,-3.1476,0.0,0.0,0.0,0.0,0.0,0.0,0.0,0.0,0.0,0.0,0.0,0.0,0.0,0.0,0.0,0.0,0.0,0.0,0.0,0.0,0.0,0.0,0.0,0.0,0.0,0.0,0.0,0.0,0.0,0.0,0.0,0.0,0.0,0.0,0.0,0.0,0.0,0.0,0.0,0.0,0.0,0.0,0.0,0.0,0.0,0.0,0.0,0.0,0.0,0.0,0.0,0.0,0.0,0.0,0.0,0.0,0.0,0.0,0.0,0.0,0.0,0.0,0.0,0.0,0.0,0.0,0.0,0.0,0.0,0.0,0.0,0.0,0.0,0.0,0.0,0.0,0.0,0.0,0.0,0.0,0.0,0.0,0.0,0.0,0.0,0.0,0.0,0.0,0.0,0.0,0.0,0.0,0.0,0.0,0.0,0.0,0.0,0.0,0.0,0.0,0.0,0.0,0.0,0.0,0.0,0.0,0.0,0.0,0.0,-3.5454,-3.5442,-3.5263,-3.4892,-3.4041,-3.3141,-3.2158,0.0,0.0,0.0,0.0,0.0,0.0,0.0,0.0,0.0,0.0,0.0,0.0,0.0,0.0,0.0,0.0,0.0,0.0,0.0,0.0,0.0,0.0,0.0,0.0,0.0,0.0,0.0,0.0,0.0,0.0,0.0,0.0,0.0,0.0,0.0,0.0,0.0,0.0,0.0,0.0,0.0,0.0,0.0,0.0,0.0,0.0,0.0,0.0,0.0,0.0,0.0,0.0,0.0,0.0,0.0,0.0,0.0,0.0,0.0,0.0,0.0,0.0,0.0,0.0,0.0,0.0,0.0,0.0,0.0,0.0,0.0,0.0,0.0,0.0,0.0,0.0,0.0,0.0,0.0,0.0,0.0,0.0,0.0,0.0,0.0,0.0,0.0,0.0,0.0,0.0,0.0,0.0,0.0,0.0,0.0,0.0,0.0,0.0,0.0,0.0,0.0,0.0,0.0,0.0,0.0,0.0,0.0,0.0,-3.9451,-3.9557,-3.9094,-3.8141,-3.727,-3.5675,0.0,0.0,0.0,0.0,0.0,0.0,0.0,0.0,0.0,0.0,0.0,0.0,0.0,0.0,0.0,0.0,0.0,0.0,0.0,0.0,0.0,0.0,0.0,0.0,0.0,0.0,0.0,0.0,0.0,0.0,0.0,0.0,0.0,0.0,0.0,0.0,0.0,0.0,0.0,0.0,0.0,0.0,0.0,0.0,0.0,0.0,0.0,0.0,0.0,0.0,0.0,0.0,0.0,0.0,0.0,0.0,0.0,0.0,0.0,0.0,0.0,0.0,0.0,0.0,0.0,0.0,0.0,0.0,0.0,0.0,0.0,0.0,0.0,0.0,0.0,0.0,0.0,0.0,0.0,0.0,0.0,0.0,0.0,0.0,0.0,0.0,0.0,0.0,0.0,0.0,0.0,0.0,0.0,0.0,0.0,0.0,0.0,0.0,0.0,0.0,0.0,0.0,0.0,0.0,0.0,0.0,0.0,0.0,0.0,-4.1054,-4.1771,-4.1386,-3.9869,-3.846,-3.7074,0.0,0.0,0.0,0.0,0.0,0.0,0.0,0.0,0.0,0.0,0.0,0.0,0.0,0.0,0.0,0.0,0.0,0.0,0.0,0.0,0.0,0.0,0.0,0.0,0.0,0.0,0.0,0.0,0.0,0.0,0.0,0.0,0.0,0.0,0.0,0.0,0.0,0.0,0.0,0.0,0.0,0.0,0.0,0.0,0.0,0.0,0.0,0.0,0.0,0.0,0.0,0.0,0.0,0.0,0.0,0.0,0.0,0.0,0.0,0.0,0.0,0.0,0.0,0.0,0.0,0.0,0.0,0.0,0.0,0.0,0.0,0.0,0.0,0.0,0.0,0.0,0.0,0.0,0.0,0.0,0.0,0.0,0.0,0.0,0.0,0.0,0.0,0.0,0.0,0.0,0.0,0.0,0.0,0.0,0.0,0.0,0.0,0.0,0.0,0.0,0.0,0.0,0.0,0.0,0.0,0.0,0.0,0.0,-4.1054,-4.281,-4.4064,-4.4239,-4.3239,-4.0861,-3.8862,0.0,0.0,0.0,0.0,0.0,0.0,0.0,0.0,0.0,0.0,0.0,0.0,0.0,0.0,0.0,0.0,0.0,0.0,0.0,0.0,0.0,0.0,0.0,0.0,0.0,0.0,0.0,0.0,0.0,0.0,0.0,0.0,0.0,0.0,0.0,0.0,0.0,0.0,0.0,0.0,0.0,0.0,0.0,0.0,0.0,0.0,0.0,0.0,0.0,0.0,0.0,0.0,0.0,0.0,0.0,0.0,0.0,0.0,0.0,0.0,0.0,0.0,0.0,0.0,0.0,0.0,0.0,0.0,0.0,0.0,0.0,0.0,0.0,0.0,0.0,0.0,0.0,0.0,0.0,0.0,0.0,0.0,0.0,0.0,0.0,0.0,0.0,0.0,0.0,0.0,0.0,0.0,0.0,0.0,0.0,0.0,0.0,0.0,0.0,0.0,0.0,0.0,0.0,0.0,0.0,0.0,0.0,0.0,-4.3464,-4.4432,-4.6047,-4.6894,-4.6817,-4.367,-4.0811,0.0,0.0,0.0,0.0,0.0,0.0,0.0,0.0,0.0,0.0,0.0,0.0,0.0,0.0,0.0,0.0,0.0,0.0,0.0,0.0,0.0,0.0,0.0,0.0,0.0,0.0,0.0,0.0,0.0,0.0,0.0,0.0,0.0,0.0,0.0,0.0,0.0,0.0,0.0,0.0,0.0,0.0,0.0,0.0,0.0,0.0,0.0,0.0,0.0,0.0,0.0,0.0,0.0,0.0,0.0,0.0,0.0,0.0,0.0,0.0,0.0,0.0,0.0,0.0,0.0,0.0,0.0,0.0,0.0,0.0,0.0,0.0,0.0,0.0,0.0,0.0,0.0,0.0,0.0,0.0,0.0,0.0,0.0,0.0,0.0,0.0,0.0,0.0,0.0,0.0,0.0,0.0,0.0,0.0,0.0,0.0,0.0,0.0,0.0,0.0,0.0,0.0,0.0,0.0,0.0,0.0,0.0,0.0,-4.3124,-4.5278,-4.6355,-4.6894,-4.6894,-4.4264,-4.2266,0.0,0.0,0.0,0.0,0.0,0.0,0.0,0.0,0.0,0.0,0.0,0.0,0.0,0.0,0.0,0.0,0.0,0.0,0.0,0.0,0.0,0.0,0.0,0.0,0.0,0.0,0.0,0.0,0.0,0.0,0.0,0.0,0.0,0.0,0.0,0.0,0.0,0.0,0.0,0.0,0.0,0.0,0.0,0.0,0.0,0.0,0.0,0.0,-3.869,0.0,0.0,0.0,0.0,0.0,0.0,0.0,0.0,0.0,0.0,0.0,0.0,0.0,0.0,0.0,0.0,0.0,0.0,0.0,0.0,0.0,0.0,0.0,0.0,0.0,0.0,0.0,0.0,0.0,0.0,0.0,0.0,0.0,0.0,0.0,0.0,0.0,0.0,0.0,0.0,0.0,0.0,0.0,0.0,0.0,0.0,0.0,0.0,0.0,0.0,0.0,0.0,0.0,0.0,0.0,0.0,0.0,0.0,0.0,-4.4624,-4.6719,-4.7625,-4.8086,-4.7991,-4.5627,-4.3475,0.0,0.0,0.0,0.0,0.0,0.0,0.0,0.0,0.0,0.0,0.0,0.0,0.0,0.0,0.0,0.0,0.0,0.0,0.0,0.0,0.0,0.0,0.0,0.0,0.0,0.0,0.0,0.0,0.0,0.0,0.0,0.0,0.0,0.0,0.0,0.0,0.0,0.0,0.0,0.0,0.0,0.0,0.0,0.0,0.0,0.0,0.0,0.0,0.0,0.0,0.0,0.0,0.0,0.0,0.0,0.0,0.0,0.0,0.0,0.0,0.0,0.0,0.0,0.0,0.0,0.0,0.0,0.0,0.0,0.0,0.0,0.0,0.0,0.0,0.0,0.0,0.0,0.0,0.0,0.0,0.0,0.0,0.0,0.0,0.0,0.0,0.0,0.0,0.0,0.0,0.0,0.0,0.0,0.0,0.0,0.0,0.0,0.0,0.0,0.0,0.0,0.0,0.0,0.0,0.0,0.0,0.0,-4.4509,-4.6604,-4.822,-4.9144,-4.9529,-4.9356,-4.7183,-4.4778,-4.2261,0.0,0.0,0.0,0.0,0.0,0.0,0.0,0.0,0.0,0.0,0.0,0.0,0.0,0.0,0.0,0.0,0.0,0.0,0.0,0.0,0.0,0.0,0.0,0.0,0.0,0.0,0.0,0.0,0.0,0.0,0.0,0.0,0.0,0.0,0.0,0.0,0.0,0.0,-3.6228,-3.7987,0.0,0.0,0.0,0.0,0.0,0.0,0.0,0.0,-4.2884,0.0,0.0,0.0,0.0,0.0,0.0,0.0,0.0,0.0,0.0,0.0,0.0,0.0,0.0,0.0,0.0,0.0,0.0,0.0,0.0,0.0,0.0,0.0,0.0,0.0,0.0,0.0,0.0,0.0,0.0,0.0,0.0,0.0,0.0,0.0,0.0,0.0,0.0,0.0,0.0,0.0,0.0,0.0,0.0,0.0,0.0,0.0,0.0,0.0,0.0,0.0,0.0,0.0,0.0,0.0,0.0,-4.2854,-4.5393,-4.7509,-4.9144,-5.0029,-5.0164,-4.9394,-4.826,-4.6493,-4.3936,0.0,0.0,0.0,0.0,0.0,0.0,0.0,0.0,0.0,0.0,0.0,0.0,0.0,0.0,0.0,0.0,0.0,0.0,0.0,0.0,0.0,0.0,0.0,0.0,0.0,0.0,0.0,0.0,0.0,0.0,0.0,0.0,0.0,0.0,0.0,0.0,0.0,0.0,0.0,-4.0106,-4.1283,0.0,0.0,0.0,0.0,0.0,0.0,0.0,0.0,-4.4487,0.0,0.0,0.0,0.0,0.0,0.0,0.0,0.0,0.0,0.0,0.0,0.0,0.0,0.0,0.0,0.0,0.0,0.0,0.0,0.0,0.0,0.0,0.0,0.0,0.0,0.0,0.0,0.0,0.0,0.0,0.0,0.0,0.0,0.0,0.0,0.0,0.0,0.0,0.0,0.0,0.0,0.0,0.0,0.0,0.0,0.0,0.0,0.0,0.0,0.0,0.0,0.0,0.0,0.0,0.0,-4.4316,-4.6471,-4.8355,-4.999,-5.0471,-5.049,-5.0066,-4.8836,-4.7183,0.0,0.0,0.0,0.0,0.0,0.0,0.0,0.0,0.0,0.0,0.0,0.0,0.0,0.0,0.0,0.0,0.0,0.0,0.0,0.0,0.0,0.0,0.0,0.0,0.0,0.0,0.0,0.0,0.0,0.0,0.0,0.0,0.0,0.0,0.0,0.0,0.0,0.0,0.0,0.0,-4.1902,-4.3078,-4.4803,0.0,0.0,0.0,0.0,0.0,0.0,-4.6911,-4.6171,0.0,0.0,0.0,0.0,0.0,0.0,0.0,0.0,0.0,0.0,0.0,0.0,0.0,0.0,0.0,0.0,0.0,0.0,0.0,0.0,0.0,0.0,0.0,0.0,0.0,0.0,0.0,0.0,0.0,0.0,0.0,0.0,0.0,0.0,0.0,0.0,0.0,0.0,0.0,0.0,0.0,0.0,0.0,0.0,0.0,0.0,0.0,0.0,0.0,0.0,0.0,0.0,0.0,0.0,0.0,-4.5813,-4.7545,-4.9162,-5.0664,-5.074,-5.0738,-5.0713,-4.9157,-4.7486,0.0,0.0,0.0,0.0,0.0,0.0,0.0,0.0,0.0,0.0,0.0,0.0,0.0,0.0,0.0,0.0,0.0,0.0,0.0,0.0,0.0,0.0,0.0,0.0,0.0,0.0,0.0,0.0,0.0,0.0,0.0,0.0,0.0,0.0,0.0,0.0,0.0,0.0,0.0,0.0,0.0,-4.4601,-4.6328,-4.6719,0.0,0.0,0.0,0.0,-4.9062,-4.8594,0.0,0.0,0.0,0.0,0.0,0.0,0.0,0.0,0.0,0.0,0.0,0.0,0.0,0.0,0.0,0.0,0.0,0.0,0.0,0.0,0.0,0.0,0.0,0.0,0.0,0.0,0.0,0.0,0.0,0.0,0.0,0.0,0.0,0.0,0.0,0.0,0.0,0.0,0.0,0.0,0.0,0.0,0.0,0.0,0.0,0.0,0.0,0.0,0.0,0.0,0.0,0.0,0.0,0.0,0.0,0.0,-4.6783,-4.848,-4.9791,-5.072,-5.0794,-5.0791,-5.0769,-4.917,-4.7477,0.0,0.0,0.0,0.0,0.0,0.0,0.0,0.0,0.0,0.0,0.0,0.0,0.0,0.0,0.0,0.0,0.0,0.0,0.0,0.0,0.0,0.0,0.0,0.0,0.0,0.0,0.0,0.0,0.0,0.0,0.0,0.0,0.0,0.0,0.0,0.0,0.0,0.0,0.0,0.0,0.0,-4.5469,-4.7226,-4.8125,-4.8633,0.0,0.0,-4.9922,-5.0039,-4.9961,0.0,0.0,0.0,0.0,0.0,0.0,0.0,0.0,0.0,0.0,0.0,0.0,0.0,0.0,0.0,0.0,0.0,0.0,0.0,0.0,0.0,0.0,0.0,0.0,0.0,0.0,0.0,0.0,0.0,0.0,0.0,0.0,0.0,0.0,0.0,0.0,0.0,0.0,0.0,0.0,0.0,0.0,0.0,0.0,0.0,0.0,0.0,0.0,0.0,0.0,0.0,0.0,0.0,0.0,0.0,-4.4909,-4.6992,-4.9114,-5.0426,-5.0794,-5.0829,-5.0863,-5.0819,-4.9235,-4.7789,0.0,0.0,0.0,0.0,0.0,0.0,0.0,0.0,0.0,0.0,0.0,0.0,0.0,0.0,0.0,0.0,0.0,0.0,0.0,0.0,0.0,0.0,0.0,0.0,0.0,0.0,0.0,0.0,0.0,0.0,0.0,0.0,0.0,0.0,0.0,0.0,0.0,0.0,0.0,0.0,0.0,0.0,-4.8164,-4.9453,0.0,0.0,0.0,-5.0859,-5.0898,0.0,0.0,0.0,0.0,0.0,0.0,0.0,0.0,0.0,0.0,0.0,0.0,0.0,0.0,0.0,0.0,0.0,0.0,0.0,0.0,0.0,0.0,0.0,0.0,0.0,0.0,0.0,0.0,0.0,0.0,0.0,0.0,0.0,0.0,0.0,0.0,0.0,0.0,0.0,0.0,0.0,0.0,0.0,0.0,0.0,0.0,0.0,0.0,0.0,0.0,0.0,0.0,0.0,0.0,0.0,0.0,0.0,-4.7333,-5.0074,-5.1348,-5.1172,-5.1421,-5.1454,-5.1215,-4.9784,0.0,0.0,0.0,0.0,0.0,0.0,0.0,0.0,0.0,0.0,0.0,0.0,0.0,0.0,0.0,0.0,0.0,0.0,0.0,0.0,0.0,0.0,0.0,0.0,0.0,0.0,0.0,-3.4814,0.0,0.0,0.0,0.0,0.0,0.0,0.0,0.0,0.0,0.0,0.0,0.0,0.0,0.0,-4.8008,-4.9062,-5.0469,-5.1406,0.0,0.0,-5.1406,-5.1406,-5.1094,-5.0703,0.0,0.0,0.0,0.0,0.0,0.0,0.0,0.0,0.0,0.0,0.0,0.0,0.0,0.0,0.0,0.0,0.0,0.0,0.0,0.0,0.0,0.0,0.0,0.0,0.0,0.0,0.0,0.0,0.0,0.0,0.0,0.0,0.0,0.0,0.0,0.0,0.0,0.0,0.0,0.0,0.0,0.0,0.0,0.0,0.0,0.0,0.0,0.0,0.0,0.0,0.0,0.0,0.0,0.0,0.0,-4.8377,-5.1602,-5.2879,-5.2144,-5.2917,-5.2917,-5.2121,-5.1215,-4.9575,0.0,0.0,0.0,0.0,0.0,0.0,0.0,0.0,0.0,0.0,0.0,0.0,0.0,0.0,0.0,0.0,0.0,0.0,0.0,0.0,0.0,0.0,0.0,0.0,0.0,0.0,0.0,0.0,0.0,0.0,0.0,0.0,0.0,0.0,0.0,0.0,0.0,0.0,0.0,0.0,0.0,-4.8203,-4.9883,-5.0859,-5.1406,0.0,0.0,-5.1406,-5.1406,-5.2031,-5.1992,-5.0469,0.0,0.0,0.0,0.0,0.0,0.0,0.0,0.0,0.0,0.0,0.0,0.0,0.0,0.0,0.0,0.0,0.0,0.0,0.0,0.0,0.0,0.0,0.0,0.0,0.0,0.0,0.0,0.0,0.0,0.0,0.0,0.0,0.0,0.0,0.0,0.0,0.0,0.0,0.0,0.0,0.0,0.0,0.0,0.0,0.0,0.0,0.0,0.0,0.0,0.0,0.0,0.0,0.0,-4.8029,-4.9939,-5.1757,-5.2801,-5.3011,-5.3343,-5.3343,-5.3,-5.2144,-5.0983,0.0,0.0,0.0,0.0,0.0,0.0,0.0,0.0,0.0,0.0,0.0,0.0,0.0,0.0,0.0,0.0,0.0,0.0,0.0,0.0,0.0,0.0,0.0,0.0,0.0,0.0,0.0,0.0,-4.1888,-4.2669,-4.3879,0.0,0.0,0.0,0.0,0.0,0.0,0.0,0.0,0.0,0.0,-4.9805,-5.1523,-5.1992,0.0,0.0,-5.3437,-5.3633,-5.3086,-5.375,-5.3906,-5.2734,-5.2344,0.0,0.0,0.0,0.0,0.0,0.0,0.0,0.0,0.0,0.0,0.0,0.0,0.0,0.0,0.0,0.0,0.0,0.0,0.0,0.0,0.0,0.0,0.0,0.0,0.0,0.0,0.0,0.0,0.0,0.0,0.0,0.0,0.0,0.0,0.0,0.0,0.0,0.0,0.0,0.0,0.0,0.0,0.0,0.0,0.0,0.0,0.0,0.0,0.0,0.0,0.0,0.0,-4.8856,-5.0906,-5.2763,-5.3884,-5.4249,-5.4735,-5.4757,-5.4276,-5.3636,-5.2685,0.0,0.0,0.0,0.0,0.0,0.0,0.0,0.0,0.0,0.0,0.0,0.0,0.0,0.0,0.0,0.0,0.0,0.0,0.0,0.0,0.0,0.0,0.0,0.0,0.0,0.0,0.0,0.0,-4.4588,-4.5168,-4.5012,0.0,0.0,0.0,0.0,0.0,0.0,0.0,0.0,0.0,0.0,-5.1484,-5.2891,-5.3516,-5.3984,-5.4336,-5.5117,-5.5469,-5.4883,-5.5508,-5.5781,-5.4922,0.0,0.0,0.0,0.0,0.0,0.0,0.0,0.0,0.0,0.0,0.0,0.0,0.0,0.0,0.0,0.0,0.0,0.0,0.0,0.0,0.0,0.0,0.0,0.0,0.0,0.0,0.0,0.0,0.0,0.0,-3.791,0.0,0.0,0.0,0.0,0.0,0.0,0.0,0.0,0.0,0.0,0.0,0.0,0.0,0.0,0.0,0.0,0.0,0.0,0.0,0.0,0.0,0.0,-5.0094,-5.0983,-5.5006,-5.6725,-5.6024,-5.7615,-5.7598,-5.6012,-5.5935,-5.4757,-5.2282,0.0,0.0,0.0,0.0,0.0,0.0,0.0,0.0,0.0,0.0,0.0,0.0,0.0,0.0,0.0,0.0,0.0,0.0,0.0,0.0,0.0,0.0,0.0,0.0,0.0,0.0,-4.593,-4.7757,-4.7748,0.0,0.0,0.0,0.0,0.0,0.0,0.0,0.0,0.0,0.0,-5.207,-5.2969,-5.3906,-5.543,-5.6172,-5.543,-5.6055,-5.6601,-5.6562,-5.7265,-5.7539,0.0,0.0,0.0,0.0,0.0,0.0,0.0,0.0,0.0,0.0,0.0,0.0,0.0,0.0,0.0,0.0,0.0,0.0,0.0,0.0,0.0,0.0,0.0,0.0,0.0,0.0,0.0,-4.2124,-4.2547,0.0,0.0,0.0,0.0,0.0,0.0,0.0,0.0,0.0,0.0,0.0,-4.58,-4.5529,0.0,0.0,0.0,0.0,0.0,0.0,0.0,0.0,0.0,0.0,0.0,0.0,-5.1757,-5.4233,-5.5702,-5.6863,-5.7693,-5.8312,-5.8333,-5.7755,-5.7735,-5.6786,-5.4796,0.0,0.0,0.0,0.0,0.0,0.0,0.0,0.0,0.0,0.0,0.0,0.0,0.0,0.0,0.0,0.0,0.0,0.0,0.0,0.0,0.0,0.0,0.0,0.0,0.0,-4.5807,0.0,0.0,0.0,0.0,0.0,0.0,0.0,0.0,0.0,0.0,0.0,-5.121,-5.2891,-5.3867,-5.5156,-5.7187,-5.7461,-5.7539,0.0,0.0,0.0,0.0,0.0,0.0,0.0,0.0,0.0,0.0,0.0,0.0,0.0,0.0,-5.6523,-5.5118,-5.4845,-5.4849,-5.4849,0.0,0.0,0.0,0.0,0.0,0.0,0.0,0.0,0.0,0.0,0.0,0.0,0.0,0.0,-4.4893,0.0,-4.5086,0.0,0.0,0.0,0.0,0.0,0.0,0.0,0.0,-4.9428,-4.9614,-4.932,-4.901,-4.8585,0.0,-4.8319,-4.7699,0.0,0.0,0.0,0.0,0.0,0.0,0.0,0.0,-5.3498,-5.5935,-5.7172,-5.8333,-5.9416,-6.0074,-6.0074,-5.9495,-5.8913,-5.8062,-5.694,-5.5032,-5.3177,0.0,0.0,0.0,0.0,0.0,0.0,0.0,0.0,0.0,0.0,0.0,0.0,0.0,0.0,0.0,0.0,0.0,0.0,0.0,0.0,0.0,0.0,0.0,-4.8863,0.0,0.0,0.0,0.0,0.0,0.0,0.0,0.0,0.0,-5.0068,-5.203,-5.4023,-5.5195,-5.6094,-5.7265,-5.8945,0.0,0.0,0.0,0.0,0.0,0.0,0.0,-6.1247,-6.1013,-6.0948,-6.0799,-6.051,-6.0705,-6.0978,-6.1247,0.0,0.0,-5.8788,-5.8358,-5.8363,-5.8363,-5.8363,-5.8363,-5.8363,-5.8363,-5.8796,0.0,0.0,0.0,0.0,0.0,0.0,0.0,0.0,-4.7124,-4.7586,0.0,-4.8279,0.0,0.0,0.0,0.0,0.0,-5.0817,0.0,0.0,-5.3816,-5.4259,-5.3498,-5.2685,-5.2298,-5.226,-5.1517,-5.1532,-5.2198,-5.0735,0.0,0.0,0.0,0.0,0.0,0.0,-5.5316,-5.6321,-5.9416,-6.1157,-6.1234,-6.2781,-6.2859,-6.1234,-5.9571,-5.872,-5.8758,-5.7814,-5.6578,-5.5006,-5.2492,0.0,0.0,0.0,0.0,0.0,0.0,0.0,0.0,0.0,0.0,0.0,0.0,0.0,0.0,0.0,0.0,0.0,0.0,0.0,0.0,-5.1247,0.0,0.0,0.0,0.0,0.0,0.0,0.0,0.0,0.0,0.0,-5.4375,-5.4922,-5.6055,-5.7695,0.0,0.0,0.0,0.0,-6.1445,-6.0664,-6.125,-6.207,-6.289,-6.3035,-6.3321,-6.4101,0.0,0.0,-6.3204,-6.375,-6.4023,-6.3316,-6.3901,-6.3906,-6.2306,-6.1837,-6.172,-6.1798,-6.1759,-6.1798,-6.1876,-6.1837,-6.2115,-5.0317,0.0,0.0,0.0,0.0,-4.924,-5.0048,-5.1395,-5.1395,-5.1895,-5.2626,-5.201,0.0,0.0,0.0,0.0,0.0,0.0,-5.3244,-5.3878,-5.4455,-5.4877,-5.5277,-5.5045,-5.4929,-5.4929,-5.5288,-5.5614,-5.583,-5.5968,-5.5161,-5.3391,0.0,0.0,0.0,0.0,-5.8217,-5.9648,-6.1234,-6.2317,-6.2955,-6.3439,-6.3439,-6.2936,-6.1273,-6.0963,-6.2162,-5.965,-5.8297,-5.8372,-5.5935,0.0,0.0,0.0,0.0,0.0,0.0,0.0,0.0,0.0,0.0,0.0,0.0,0.0,0.0,0.0,0.0,0.0,0.0,0.0,-5.1326,-5.2812,-5.3555,0.0,0.0,0.0,0.0,0.0,0.0,0.0,0.0,0.0,-5.9375,-5.8672,-5.8281,0.0,0.0,-6.0508,-6.1758,-6.2344,-6.2773,-6.3125,-6.3398,0.0,0.0,-6.3933,-6.4001,-6.4258,-6.4297,-6.4414,-6.4804,-6.5077,-6.5546,-6.6405,-6.6834,-6.7029,-6.7068,-6.5155,-6.3906,-6.4336,-6.4492,-6.4687,-6.5194,-6.5351,-6.559,-5.4318,-5.3587,-5.2279,-5.1702,-5.1702,-5.1702,-5.2279,-5.3203,-5.3203,-5.3664,-5.4511,-5.43,-5.3954,-5.3415,-5.2935,0.0,0.0,0.0,-5.5307,-5.6136,-5.6193,-5.6693,-5.7521,-5.7521,-5.7714,-5.8023,-5.8562,-5.8789,-5.8828,-5.9702,-5.9339,-5.7814,0.0,0.0,-5.8836,-5.9648,-6.0615,-6.1621,-6.282,-6.3671,-6.4213,-6.4213,-6.4213,-6.4174,-6.2859,-6.2627,-6.3632,-6.137,-6.0364,-6.0847,-5.841,-5.5952,0.0,0.0,0.0,0.0,0.0,0.0,0.0,0.0,0.0,0.0,0.0,-4.5018,0.0,0.0,0.0,0.0,-5.1359,-5.2731,-5.457,-5.5547,0.0,0.0,0.0,0.0,0.0,0.0,0.0,-5.875,-5.9961,-6.1094,-6.207,-6.164,-6.1211,-6.1211,-6.164,-6.2344,-6.3359,0.0,-6.3711,-6.4258,-6.4294,-6.4521,-6.5215,-6.529,-6.552,-6.6249,-6.6327,-6.6483,-6.6956,-6.7107,-6.7459,-6.8323,-6.863,-6.8786,-6.9333,-6.7654,-6.6444,-6.699,-6.7107,-6.7264,-6.7732,-6.781,-6.801,-5.755,-5.8011,-5.4934,-5.3626,-5.3587,-5.3587,-5.3626,-5.3587,-5.3626,-5.4049,-5.4857,-5.5651,-5.6056,-5.6113,-5.6192,0.0,-5.7506,-5.7506,-5.795,-5.88,-5.88,-5.9302,-6.019,-6.019,-6.0576,-6.1311,-6.131,-6.1328,-6.1328,-6.2104,-6.2549,-6.2569,-6.106,-6.0655,-6.135,-6.2162,-6.2627,-6.2627,-6.4251,-6.5064,-6.5102,-6.5102,-6.5102,-6.5102,-6.4251,-6.3826,-6.3864,-6.2994,-6.253,-6.2549,-6.0306,-5.8604,-5.7598,0.0,0.0,0.0,0.0,0.0,0.0,0.0,0.0,0.0,0.0,0.0,0.0,0.0,0.0,0.0,-5.5348,0.0,-5.793,-5.8711,0.0,0.0,0.0,-5.8164,-5.8281,-5.9023,-5.9805,-6.0625,0.0,0.0,-6.3203,-6.3906,-6.4453,-6.4609,-6.4414,-6.4336,-6.4414,-6.4453,-6.4531,-6.4765,-6.4711,-6.5312,-6.6834,-6.7029,-6.7498,-6.8825,-6.9411,-6.9215,-6.9221,-6.926,-6.9338,-6.9494,-6.9489,-6.9567,-6.9606,-6.9567,-6.9606,-6.9684,-6.9567,-6.9489,-6.9567,-6.9606,-6.9645,-5.8088,-5.8242,-5.7434,-5.7088,-5.7088,-5.7088,-5.7088,-5.7088,-5.7088,-5.7203,-5.7434,-5.761,-5.8094,-5.8693,-5.8757,-5.9282,-6.0094,-6.0092,-6.0576,-6.135,-6.1388,-6.1892,-6.2781,-6.2781,-6.2897,-6.3052,-6.311,-6.3071,-6.311,-6.3303,-6.3729,-6.4309,-6.3999,-6.3574,-6.3129,-6.3942,-6.4367,-6.4367,-6.5373,-6.5915,-6.5915,-6.5915,-6.5915,-6.5915,-6.5121,-6.4986,-6.5528,-6.4193,-6.369,-6.429,-6.3168,-6.1794,-6.0321,-5.7715,0.0,0.0,0.0,0.0,0.0,0.0,0.0,0.0,0.0,-5.0923,-5.2656,0.0,-5.5741,0.0,-5.7812,-5.8672,-5.8867,-5.9062,0.0,0.0,-5.9805,-6.0351,-6.164,-6.1953,-6.2422,-6.3281,-6.375,-6.4219,-6.4883,-6.5156,-6.5781,-6.7031,-6.5547,-6.457,-6.5195,-6.5859,-6.6522,-6.7129,-6.7698,-6.8318,-6.8708,-6.8786,-6.8981,-6.9333,-6.945,-6.9411,-6.9411,-6.9411,-6.9606,-7.023,-7.0387,-7.0621,-7.1245,-7.1402,-7.1636,-7.2104,-7.1324,-7.0621,-7.1206,-7.1363,-7.1558,-5.905,-5.9396,-5.9435,-5.9396,-5.9396,-5.9011,-5.8842,-5.8902,-5.9287,-5.9463,-5.9524,-5.9887,-6.0608,-6.1404,-6.1445,-6.1736,-6.2181,-6.22,-6.2452,-6.2935,-6.3322,-6.3961,-6.4793,-6.4793,-6.5025,-6.5373,-6.4986,-6.4831,-6.4831,-6.4811,-6.5043,-6.5507,-6.5507,-6.5296,-6.4831,-6.5296,-6.5528,-6.5528,-6.5953,-6.6185,-6.6224,-6.6572,-6.6592,-6.6264,-6.6205,-6.6205,-6.6303,-6.5043,-6.4733,-6.5508,-6.4459,-6.3352,-6.2438,-6.042,-5.8493,0.0,0.0,0.0,0.0,0.0,0.0,0.0,0.0,0.0,0.0,0.0,-5.8125,-5.8945,-5.9805,-6.0469,-6.0859,-6.125,-6.168,-6.207,-6.2148,-6.25,-6.3476,-6.3906,-6.4336,-6.4805,-6.5234,-6.5781,-6.664,-6.6758,-6.707,-6.808,-6.6945,-6.6363,-6.7187,-6.7773,-6.8239,-6.8674,-6.9093,-6.9723,-7.0387,-7.1206,-7.1675,-7.1675,-7.1675,-7.1675,-7.1675,-7.1675,-7.1831,-7.23,-7.2378,-7.2534,-7.3002,-7.3119,-7.3275,-7.351,-7.308,-7.2651,-7.3002,-7.308,-7.3315,-6.0435,-6.1127,-6.1243,-6.1281,-6.1243,-6.0589,-6.0173,-5.9986,-6.0834,-6.1241,-6.1345,-6.2133,-6.2969,-6.3826,-6.3864,-6.3922,-6.3999,-6.4019,-6.4019,-6.4058,-6.4793,-6.5566,-6.6379,-6.6379,-6.6843,-6.7617,-6.6882,-6.6533,-6.6533,-6.6533,-6.6533,-6.6533,-6.6533,-6.6533,-6.6533,-6.6533,-6.6456,-6.6379,-6.6495,-6.6533,-6.6554,-6.7289,-6.7348,-6.6709,-6.7406,-6.7406,-6.6605,-6.5872,-6.5732,-6.6322,-6.4993,-6.4231,-6.4178,-6.2614,-6.0989,0.0,-5.8538,0.0,0.0,0.0,0.0,0.0,0.0,0.0,0.0,-5.9805,-6.0156,-6.0859,-6.1601,-6.2344,-6.3086,-6.3867,-6.4336,-6.4453,-6.4453,-6.4492,-6.4648,-6.539,-6.5937,-6.5937,-6.6601,-6.7383,-6.8008,-6.8124,-6.8041,-6.8176,-6.8405,-6.8769,-6.9607,-6.9687,-6.9607,-6.9694,-6.9918,-7.0938,-7.2104,-7.351,-7.433,-7.4408,-7.4251,-7.4486,-7.429,-7.433,-7.4408,-7.4408,-7.433,-7.4408,-7.4486,-7.4447,-7.4486,-7.4642,-7.4564,-7.4486,-7.4408,-7.433,-7.453,-6.269,-6.2897,-6.3589,-6.3858,-6.3935,-6.4474,-6.3512,-6.1689,-6.2497,-6.2868,-6.2975,-6.3191,-6.3797,-6.4655,-6.4734,-6.5102,-6.5721,-6.5721,-6.5721,-6.5721,-6.5876,-6.6417,-6.723,-6.7268,-6.7694,-6.8506,-6.8372,-6.8315,-6.8315,-6.8315,-6.8295,-6.8313,-6.8313,-6.8313,-6.8313,0.0,0.0,0.0,-6.7926,-6.8334,-6.8394,-6.8549,-6.8586,-6.8485,-6.87,0.0,-6.7588,-6.7372,-6.7046,-6.6517,-6.6166,0.0,0.0,0.0,0.0,0.0,0.0,0.0,0.0,0.0,0.0,0.0,-6.0854,-6.1015,-6.2187,-6.293,-6.3398,-6.3555,-6.3711,-6.3867,-6.4023,-6.418,-6.457,-6.5273,-6.5351,-6.5625,-6.6328,-6.7187,-6.7695,-6.7695,-6.7851,-6.8008,-6.8109,-6.759,-6.7473,-6.8245,-6.9377,-7.0514,-7.1382,-7.0933,-7.078,-7.1431,-7.2557,-7.3603,-7.4062,-7.433,-7.4681,-7.4564,-7.4525,-7.4564,-7.4603,-7.4564,-7.4525,-7.4564,-7.4486,-7.4564,-7.4558,-7.4486,-7.4876,-7.5423,-7.5579,-7.5345,-7.4642,-7.4525,-7.472,-6.4564,0.0,-6.5051,-6.5243,0.0,-6.6128,-6.5782,-6.4551,-6.4624,-6.4694,-6.4784,-6.4844,-6.5097,-6.5564,-6.5585,-6.5799,-6.6185,-6.6185,-6.6456,-6.6843,-6.7268,-6.7926,-6.8738,-6.8738,-6.897,-6.9357,-6.8991,-6.8798,-6.8798,-6.8777,-6.8816,-6.8794,-6.8794,-6.8988,-6.9413,-6.9821,-6.9396,-6.8158,-6.8584,-6.8837,-6.8857,-6.9324,-6.9363,-6.9031,0.0,0.0,0.0,0.0,0.0,0.0,0.0,0.0,0.0,0.0,0.0,-6.3553,-6.2792,-6.2496,-6.2915,-6.2964,-6.3334,-6.417,-6.4295,-6.4101,-6.3672,-6.4453,-6.4765,-6.4375,-6.4687,-6.4961,-6.4961,-6.5312,-6.5937,-6.6758,-6.6871,-6.7099,-6.749,-6.7886,-6.7966,-6.7614,-6.7536,-6.7691,-6.8154,-6.8215,-6.8518,-6.9338,-7.0518,-7.169,-7.2466,-7.2635,-7.2837,-7.3267,-7.4314,-7.516,-7.5227,-7.5579,-7.5774,-7.5852,-7.5813,-7.5774,-7.5774,-7.5774,-7.5774,-7.5774,-7.5813,-7.5774,-7.5813,-7.6125,-7.6555,-7.7023,-7.7453,-7.757,-7.7062,-7.6399,-7.5891,-6.6346,-6.6359,-6.6513,-6.6551,-6.6628,-6.7308,-6.75,-6.732,0.0,0.0,0.0,-6.6397,-6.6397,-6.6417,-6.6611,-6.665,-6.665,-6.6495,-6.6882,-6.7771,-6.8313,-6.9087,-6.9976,-7.0015,-7.0092,-7.0208,-6.9551,-6.9241,-6.9241,-6.9259,-6.9237,-6.9275,-6.9275,-6.9568,-7.0264,-7.1021,-7.0789,-6.9589,-6.9357,-6.928,-6.934,-7.0075,-7.0176,-6.9511,-7.0331,-7.0377,-6.9577,-6.9556,-6.9483,-6.9302,-6.8702,-6.7936,-6.7071,-6.6238,-6.5394,-6.4622,-6.4519,-6.4834,-6.5563,-6.5598,-6.5925,-6.664,-6.6836,-6.6289,-6.4844,-6.539,-6.5547,-6.4844,-6.5547,-6.6015,-6.5859,-6.664,-6.7342,-6.7928,-6.7991,-6.7932,-6.7971,-6.8101,-6.7995,-6.7601,-6.7562,-6.7763,-6.8824,-6.9316,-6.9884,-7.067,-7.1698,-7.2873,-7.3749,-7.4408,-7.477,-7.5056,-7.5633,-7.6008,-7.6125,-7.6516,-7.714,-7.7218,-7.7296,-7.7375,-7.7531,-7.757,-7.757,-7.7531,-7.757,-7.757,-7.7609,-7.8077,-7.8624,-7.8624,-7.9326,-7.9912,-7.9834,-7.8936,-7.8038,-6.8037,-6.809,-6.8859,-6.9167,-6.9167,-6.9335,-6.9051,-6.8413,-6.747,-6.7108,-6.7222,-6.7261,-6.7244,-6.7366,-6.8081,-6.8429,-6.8372,-6.7655,-6.781,-6.8584,-6.7965,-6.8506,-6.9976,-7.0015,-7.0363,-7.1059,-7.0982,-7.0943,-7.0943,-7.0943,-7.1021,-7.1098,-7.1021,-7.1059,-7.1291,-7.1501,-7.1888,-7.2358,-7.1584,-7.1141,-7.1241,-7.1451,-7.1568,-7.1526,-7.1677,-7.1399,-7.0525,-7.0497,-7.0152,-6.9433,-6.9277,-6.8843,-6.8044,-6.7185,-6.6305,-6.5506,-6.543,-6.5468,-6.5586,-6.5625,-6.5663,-6.582,-6.6445,-6.6797,-6.6562,-6.664,-6.668,-6.6562,-6.7226,-6.7539,-6.6914,-6.7451,-6.7711,-6.7238,-6.7129,-6.7129,-6.7303,-6.7971,-6.8835,-6.9889,-6.9494,-6.965,-7.0909,-7.086,-7.0665,-7.1069,-7.2869,-7.474,-7.5858,-7.6086,-7.6047,-7.656,-7.6834,-7.6906,-7.6945,-7.7023,-7.7492,-7.8116,-7.8233,-7.8429,-7.9014,-7.9092,-7.9092,-7.9287,-7.9209,-7.9248,-7.9287,-7.9405,-7.9678,-7.9756,-8.042,-8.0927,-8.0966,-8.1044,-8.0888,-6.9756,-6.9821,-7.0206,-7.036,-7.036,-7.0401,-7.031,-6.9965,-6.9085,-6.8181,-6.7536,-6.7961,-6.7905,-6.7598,-6.8429,-6.8777,-6.8777,-6.839,-6.8661,-6.9396,-6.9048,-6.9512,-7.0634,-7.0711,-7.0943,-7.1369,-7.1407,-7.1446,-7.1485,-7.1523,-7.1756,-7.2319,-7.3154,-7.3627,-7.369,-7.3712,-7.3945,-7.4312,-7.3025,-7.2521,-7.2983,-7.3123,-7.3219,-7.3239,-7.289,-7.2514,-7.214,-7.1639,-7.1211,-7.0819,-7.0349,-6.9918,-6.9562,-6.8742,-6.8082,-6.7695,-6.7656,-6.7461,-6.7031,-6.6562,-6.6289,-6.6328,-6.668,-6.6914,-6.6914,-6.7344,-6.7422,-6.6953,-6.7305,-6.7343,-6.6943,-6.7255,-6.7526,-6.762,-6.8371,-6.8956,-6.9103,-7.0191,-7.1056,-7.1338,-7.1056,-7.1128,-7.1909,-7.2065,-7.2339,-7.2856,-7.4692,-7.6253,-7.7023,-7.7218,-7.7179,-7.7179,-7.7453,-7.7765,-7.7843,-7.8233,-7.8663,-7.9053,-7.9092,-7.9248,-7.9639,-7.9717,-7.9756,-7.9756,-8.0068,-8.0374,-8.0459,-8.12,-8.163,-8.1825,-8.245,-8.284,-8.2567,-8.2371,-8.1981,-7.0898,-7.0898,-7.0925,-7.0952,-7.0979,-7.103,-7.113,-7.1147,-7.049,-6.9391,-6.8274,-6.8777,-6.87,-6.8179,-6.897,-6.9357,-6.9336,-6.9203,-6.9551,-7.0286,-7.017,-7.0556,-7.133,-7.1407,-7.1446,-7.1562,-7.1717,-7.1893,-7.201,-7.2152,-7.2591,-7.3346,-7.4645,-7.5277,-7.5248,-7.53,-7.539,-7.5495,-7.4324,-7.3821,-7.4223,-7.4367,-7.445,-7.4405,-7.3894,-7.3594,-7.3555,-7.2969,-7.2578,-7.2539,-7.1953,-7.1484,-7.1289,-7.0469,-6.9844,-6.9492,-6.9219,-6.875,-6.7969,-6.75,-6.7187,-6.7226,-6.7539,-6.7695,-6.7539,-6.8242,-6.8203,-6.7148,-6.7305,-6.7459,-6.7331,-6.7646,-6.7963,-6.8531,-6.962,-7.028,-7.0748,-7.1919,-7.2817,-7.2475,-7.2427,-7.2378,-7.2885,-7.3432,-7.4173,-7.511,-7.6477,-7.7335,-7.7492,-7.8155,-7.8311,-7.8038,-7.8272,-7.8663,-7.8702,-7.917,-7.9678,-7.9912,-7.999,-8.0146,-8.0341,-8.0459,-8.0615,-8.0849,-8.1389,-8.1936,-8.2014,-8.2606,-8.3269,-8.3269,-8.3699,-8.4128,-8.3816,-8.3347,-8.2801,-7.0898,-7.0898,-7.0952,-7.1081,-7.1178,-7.1178,-7.1224,-7.1269,-7.1214,-7.0672,-6.9783,-6.986,-6.9821,-6.9881,-7.0595,-7.0982,-7.0943,-7.0363,-7.0539,-7.1158,-7.0655,-7.081,-7.1605,-7.1661,-7.1678,-7.1816,-7.2474,-7.2865,-7.2948,-7.361,-7.4023,-7.4134,-7.4486,-7.4741,-7.4614,-7.4661,-7.5078,-7.5857,-7.5701,-7.521,-7.4421,-7.4507,-7.4603,-7.4566,-7.4531,-7.4492,-7.4453,-7.4414,-7.4336,-7.4375,-7.4219,-7.3867,-7.3086,-7.2226,-7.1094,-6.9648,-6.8828,-6.793,-6.7226,-6.7695,-6.8086,-6.8203,-6.9375,-6.9844,-6.9219,-6.9922,-6.9414,-6.7773,-6.832,-6.8711,-6.828,-6.9325,-6.9788,-6.9332,-6.9638,-6.9823,-7.0753,-7.0839,-7.1768,-7.4179,-7.3771,-7.3744,-7.4987,-7.5384,-7.5852,-7.6633,-7.7453,-7.8194,-7.835,-7.9014,-7.9561,-7.9444,-7.9561,-7.96,-7.9639,-7.9639,-8.0224,-8.0771,-8.0927,-8.1239,-8.1864,-8.2528,-8.3074,-8.2489,-8.3426,-8.3894,-8.3887,-8.4089,-8.3543,-8.366,-8.3816,-8.3855,-8.4441,-8.4401,-8.4011,-7.0925,-7.0952,-7.0979,-7.1081,-7.1201,-7.1201,-7.1247,-7.1291,-7.1291,-7.1098,-7.0789,-7.0866,-7.0617,-7.0191,-7.0943,-7.1369,-7.1485,-7.1137,-7.1204,-7.1552,-7.1295,-7.1373,-7.1723,-7.2228,-7.2496,-7.2612,-7.3425,-7.3873,-7.4099,-7.4805,-7.5195,-7.5273,-7.582,-7.6094,-7.6076,-7.6119,-7.6336,-7.6649,-7.6638,-7.6496,-7.6115,-7.6079,-7.6133,-7.6094,-7.5664,-7.539,-7.5312,-7.4883,-7.457,-7.457,-7.457,-7.4453,-7.4101,-7.375,-7.3008,-7.1797,-7.043,-6.9531,-6.918,-6.9023,-6.8906,-6.8906,-6.957,-6.9844,-6.9531,-6.9765,-6.9397,-6.866,-6.8981,-6.9219,-6.9062,-6.9554,-6.9967,-7.0217,-7.1038,-7.1987,-7.2741,-7.367,-7.48,-7.5663,-7.5558,-7.5542,-7.6214,-7.6489,-7.6945,-7.7687,-7.8233,-7.8579,-7.9092,-7.9912,-8.042,-8.0537,-8.0888,-8.0966,-8.0654,-8.0927,-8.1513,-8.2176,-8.2489,-8.2801,-8.3386,-8.3426,-8.3465,-8.3504,-8.3894,-8.4128,-8.3848,-8.4323,-8.4284,-8.4089,-8.3699,-8.3621,-8.3972,-8.4011,-8.3699,-7.1068,-7.1082,-7.1146,-7.1221,-7.134,-7.134,-7.1363,-7.1407,-7.1407,-7.1407,-7.1407,-7.1523,-7.1236,-7.0793,-7.1184,-7.1494,-7.1661,-7.1601,-7.161,-7.1718,-7.177,-7.1901,-7.2174,-7.276,-7.3241,-7.362,-7.4382,-7.4967,-7.5351,-7.5898,-7.625,-7.6367,-7.6875,-7.7226,-7.7226,-7.7226,-7.7226,-7.7187,-7.7226,-7.7226,-7.7187,-7.7226,-7.7226,-7.7148,-7.6601,-7.625,-7.625,-7.5625,-7.5312,-7.5312,-7.5312,-7.5312,-7.5312,-7.5117,-7.4453,-7.332,-7.1914,-7.1055,-7.1055,-7.0703,-7.0469,-7.0508,-7.0686,-7.0837,-7.0844,-7.0743,-7.0667,-7.0688,-7.0653,-7.0664,-7.0075,-7.0197,-7.0684,-7.1612,-7.2877,-7.3765,-7.4511,-7.5727,-7.6288,-7.6575,-7.6498,-7.6858,-7.7027,-7.7206,-7.7599,-7.8379,-7.8818,-7.9101,-7.9851,-8.064,-8.1243,-8.129,-8.1851,-8.1981,-8.1552,-8.202,-8.284,-8.2996,-8.3113,-8.3465,-8.4167,-8.3582,-8.3504,-8.3504,-8.366,-8.3894,-8.4128,-8.4519,-8.4245,-8.405,-8.3621,-8.3191,-8.3152,-8.3191,-8.2957,-7.1402,-7.1326,-7.1491,-7.1611,-7.1661,-7.1661,-7.1661,-7.1665,-7.1683,-7.1661,-7.1644,-7.1678,-7.1678,-7.1644,-7.1661,-7.1699,-7.1725,-7.1739,-7.1781,-7.1822,-7.1963,-7.2422,-7.3203,-7.3281,-7.375,-7.4531,-7.539,-7.6211,-7.6953,-7.707,-7.7148,-7.7148,-7.7187,-7.7226,-7.7226,-7.7226,-7.7226,-7.7226,-7.7226,-7.7226,-7.7226,-7.7226,-7.7226,-7.7187,-7.7148,-7.707,-7.7109,-7.707,-7.7031,-7.707,-7.6953,-7.6992,-7.6992,-7.625,-7.5039,-7.3555,-7.25,-7.1992,-7.207,-7.2578,-7.2969,-7.3125,-7.3405,-7.4027,-7.3684,-7.3534,-7.3402,-7.376,-7.3393,-7.2923,-7.2041,-7.2072,-7.2779,-7.3767,-7.3936,-7.4402,-7.5175,-7.543,-7.5793,-7.6457,-7.6786,-7.7132,-7.7676,-7.7775,-7.8215,-7.8993,-7.9753,-8.0275,-8.0481,-8.1311,-8.1753,-8.1906,-8.2075,-8.2293,-8.2293,-8.2528,-8.2762,-8.2996,-8.323,-8.3426,-8.3035,-8.2879,-8.323,-8.3582,-8.3855,-8.4128,-8.4401,-8.4128,-8.3386,-8.2996,-8.2801,-8.2528,-8.2645,-8.2489,-8.2528,-7.1507,-7.149,-7.1636,-7.1684,-7.1675,-7.1675,-7.1675,-7.1675,-7.1675,-7.1675,-7.1708,-7.1746,-7.1756,-7.1799,-7.186,-7.1897,-7.1876,-7.1819,-7.1853,-7.1971,-7.2569,-7.3008,-7.3359,-7.4414,-7.5078,-7.5508,-7.6328,-7.6875,-7.7148,-7.7226,-7.7226,-7.7226,-7.7226,-7.7226,-7.7226,-7.7226,-7.7226,-7.7226,-7.7226,-7.7226,-7.7187,-7.7226,-7.7226,-7.7226,-7.7226,-7.7226,-7.7226,-7.7226,-7.7226,-7.7226,-7.7226,-7.7226,-7.7109,-7.6367,-7.5664,-7.5,-7.414,-7.3672,-7.3711,-7.3867,-7.3993,-7.4,-7.4099,-7.4256,-7.4218,-7.4108,-7.3983,-7.3938,-7.387,-7.3667,-7.3915,-7.37,-7.3937,-7.4732,-7.4907,-7.5139,-7.5752,-7.5946,-7.6234,-7.693,-7.7543,-7.818,-7.8438,-7.8611,-7.8961,-7.9737,-8.0203,-8.0631,-8.1154,-8.1615,-8.1804,-8.182,-8.1974,-8.2094,-8.2094,-8.2382,-8.2723,-8.3074,-8.3386,-8.3777,-8.3699,-8.3224,-8.3426,-8.3269,-8.3621,-8.3426,-8.3426,-8.3465,-8.2723,-8.2684,-8.2411,-8.2684,-8.2332,-8.2957,-8.323,-7.1659,-7.1741,-7.1784,-7.1792,-7.1792,-7.1792,-7.1792,-7.1792,-7.1792,-7.1792,-7.1807,-7.1835,-7.1875,-7.1862,-7.195,-7.1997,-7.1989,-7.1916,-7.2062,-7.2422,-7.3047,-7.3594,-7.4258,-7.5351,-7.6055,-7.6367,-7.6875,-7.7226,-7.7226,-7.7226,-7.7226,-7.7226,-7.7226,-7.7226,-7.7226,-7.7226,-7.7226,-7.7226,-7.7226,-7.7226,-7.7187,-7.6914,-7.6797,-7.6797,-7.6797,-7.6797,-7.6758,-7.6523,-7.6367,-7.6367,-7.6367,-7.6367,-7.6289,-7.6094,-7.5898,-7.5859,-7.5586,-7.5389,-7.5365,-7.5223,-7.5124,-7.5166,-7.4988,-7.483,-7.4834,-7.473,-7.4653,-7.4549,-7.4494,-7.4742,-7.5156,-7.5166,-7.5252,-7.5592,-7.558,-7.5847,-7.6494,-7.6623,-7.697,-7.7593,-7.8216,-7.876,-7.9215,-7.9315,-7.9703,-8.05,-8.0616,-8.0888,-8.1375,-8.1558,-8.16,-8.162,-8.177,-8.1866,-8.1881,-8.2091,-8.2366,-8.2733,-8.323,-8.3777,-8.3777,-8.3419,-8.3185,-8.3035,-8.284,-8.2489,-8.2411,-8.2567,-8.2645,-8.2684,-8.3191,-8.3621,-8.3699,-8.4011,-8.4128,-7.1862,-7.1992,-7.1992,-7.1992,-7.1953,-7.1953,-7.1992,-7.1992,-7.1992,-7.1953,-7.1953,-7.1992,-7.1954,-7.198,-7.2008,-7.1992,-7.1992,-7.207,-7.25,-7.3164,-7.332,-7.4258,-7.5625,-7.5898,-7.6406,-7.707,-7.7187,-7.7226,-7.7226,-7.7226,-7.7226,-7.7226,-7.7226,-7.7226,-7.7226,-7.7226,-7.7226,-7.7187,-7.7148,-7.7109,-7.7109,-7.6406,-7.6015,-7.5976,-7.5976,-7.6015,-7.5976,-7.5312,-7.5078,-7.4961,-7.4961,-7.4687,-7.5117,-7.5586,-7.5937,-7.6055,-7.6533,-7.688,-7.6863,-7.6595,-7.643,-7.6405,-7.6391,-7.6106,-7.6002,-7.5964,-7.5859,-7.5793,-7.5918,-7.6005,-7.6121,-7.6688,-7.685,-7.6441,-7.6263,-7.6563,-7.7112,-7.7352,-7.763,-7.8323,-7.8729,-7.8938,-7.9584,-7.9875,-8.0213,-8.079,-8.1022,-8.1022,-8.1196,-8.1323,-8.1401,-8.1437,-8.1558,-8.1679,-8.1698,-8.1717,-8.1961,-8.227,-8.2819,-8.3308,-8.2957,-8.2606,-8.2684,-8.2606,-8.2918,-8.2645,-8.2801,-8.2996,-8.3465,-8.3621,-8.4167,-8.4441,-8.448,-8.4597,-8.487,-7.1967,-7.1992,-7.1992,-7.1992,-7.1992,-7.1992,-7.1992,-7.1992,-7.1992,-7.1992,-7.1992,-7.1992,-7.1981,-7.1992,-7.1992,-7.1992,-7.2031,-7.2578,-7.3047,-7.3359,-7.3906,-7.4805,-7.582,-7.6523,-7.6953,-7.7148,-7.7226,-7.7226,-7.7226,-7.7226,-7.7226,-7.7226,-7.7226,-7.7226,-7.7226,-7.7226,-7.7226,-7.7148,-7.6601,-7.6328,-7.6289,-7.6055,-7.5898,-7.5898,-7.5898,-7.5898,-7.5898,-7.6211,-7.6367,-7.6289,-7.6381,-7.6365,-7.628,-7.6398,-7.6505,-7.6544,-7.6715,-7.6826,-7.6799,-7.6671,-7.6534,-7.6482,-7.6283,-7.6206,-7.6167,-7.6139,-7.6044,-7.6121,-7.6544,-7.6899,-7.7015,-7.763,-7.7766,-7.7081,-7.742,-7.7707,-7.8092,-7.8631,-7.9054,-7.94,-7.99,-8.04,-8.0592,-8.0669,-8.0746,-8.0977,-8.1093,-8.1093,-8.1124,-8.1146,-8.1205,-8.1196,-8.1337,-8.1469,-8.1469,-8.1514,-8.1698,-8.1881,-8.2323,-8.2702,-8.2326,-8.2176,-8.2215,-8.2528,-8.2801,-8.3074,-8.3269,-8.3699,-8.4206,-8.4441,-8.4714,-8.4831,-8.487,-8.5143,-8.5534,-7.1992,-7.1992,-7.1992,-7.1992,-7.1992,-7.1992,-7.1992,-7.1992,-7.1992,-7.1992,-7.1992,-7.1992,-7.1992,-7.1992,-7.1992,-7.1992,-7.2109,-7.289,-7.3476,-7.3867,-7.4687,-7.5547,-7.6328,-7.6914,-7.7226,-7.7226,-7.7226,-7.7226,-7.7226,-7.7226,-7.7226,-7.7226,-7.7226,-7.7226,-7.7226,-7.7187,-7.707,-7.668,-7.6172,-7.5898,-7.582,-7.5586,-7.5586,-7.582,-7.5859,-7.582,-7.5897,-7.6632,-7.675,-7.6301,-7.6093,-7.6051,-7.6001,-7.609,-7.6277,-7.6316,-7.6514,-7.6651,-7.6598,-7.6455,-7.6314,-7.6261,-7.6149,-7.6082,-7.6111,-7.6236,-7.6476,-7.6592,-7.7246,-7.7746,-7.7861,-7.8477,-7.8669,-7.8323,-7.8323,-7.8631,-7.8977,-7.9746,-8.0208,-8.04,-8.0708,-8.1016,-8.1093,-8.1093,-8.1093,-8.1093,-8.1093,-8.1093,-8.1093,-8.1093,-8.1093,-8.1124,-8.1196,-8.1269,-8.1296,-8.1375,-8.1437,-8.1561,-8.177,-8.1984,-8.1914,-8.1975,-8.202,-8.2684,-8.3113,-8.3621,-8.3855,-8.4675,-8.526,-8.5338,-8.5456,-8.5885,-8.6197,-8.6275,-8.6549,-7.1992,-7.1992,-7.1992,-7.1992,-7.1992,-7.1992,-7.1992,-7.1992,-7.1992,-7.1992,-7.1992,-7.1992,-7.1992,-7.1992,-7.1992,-7.1992,-7.2187,-7.3086,-7.3828,-7.4609,-7.5508,-7.6367,-7.7031,-7.7148,-7.7187,-7.7226,-7.7226,-7.7226,-7.7226,-7.7226,-7.7226,-7.7226,-7.7226,-7.7226,-7.7187,-7.7187,-7.668,-7.6094,-7.5742,-7.5586,-7.5703,-7.5039,-7.5039,-7.5806,-7.5885,-7.5882,-7.5996,-7.6439,-7.6132,-7.4844,-7.4861,-7.4865,-7.4641,-7.5092,-7.5594,-7.5658,-7.6095,-7.6314,-7.6338,-7.6276,-7.6133,-7.6129,-7.6198,-7.6092,-7.6284,-7.6899,-7.7361,-7.74,-7.8092,-7.8554,-7.8707,-7.9361,-7.9746,-7.9785,-7.9323,-7.9285,-7.9823,-8.0554,-8.0862,-8.0977,-8.1093,-8.1093,-8.1093,-8.1093,-8.1093,-8.1093,-8.1093,-8.1093,-8.1093,-8.1093,-8.1093,-8.1124,-8.1116,-8.1146,-8.1167,-8.1196,-8.1269,-8.1375,-8.1469,-8.1582,-8.1714,-8.1792,-8.2109,-8.278,-8.3582,-8.405,-8.4746,-8.5573,-8.608,-8.6197,-8.6588,-8.7212,-8.7368,-8.729,-8.7446,-7.1992,-7.1992,-7.1992,-7.1992,-7.1992,-7.1992,-7.1992,-7.1992,-7.1992,-7.1992,-7.1992,-7.1992,-7.1992,-7.1992,-7.1992,-7.1992,-7.2344,-7.3515,-7.4297,-7.4805,-7.6211,-7.6875,-7.7187,-7.7226,-7.7226,-7.7226,-7.7226,-7.7226,-7.7226,-7.7226,-7.7226,-7.7226,-7.7226,-7.7187,-7.7148,-7.6562,-7.6172,-7.5703,-7.457,-7.4375,-7.4844,-7.4661,-7.49,-7.5677,-7.621,-7.6466,-7.6488,-7.6534,-7.6498,-7.616,-7.5972,-7.5879,-7.5761,-7.589,-7.5941,-7.5979,-7.6095,-7.6222,-7.6195,-7.6184,-7.6118,-7.6111,-7.663,-7.6976,-7.6976,-7.7707,-7.813,-7.8323,-7.8938,-7.9477,-7.9592,-8.0208,-8.0631,-8.0746,-8.04,-8.0362,-8.0669,-8.0939,-8.1093,-8.1093,-8.1093,-8.1093,-8.1093,-8.1093,-8.1093,-8.1093,-8.1093,-8.1093,-8.1093,-8.1093,-8.1093,-8.1093,-8.1124,-8.1093,-8.1093,-8.1093,-8.1124,-8.1154,-8.1234,-8.1291,-8.1478,-8.1683,-8.2254,-8.2942,-8.4029,-8.4668,-8.5566,-8.6471,-8.6705,-8.6861,-8.7212,-8.7603,-8.772,-8.7759,-8.8188,-7.1992,-7.1992,-7.1992,-7.1992,-7.1992,-7.1992,-7.1992,-7.1992,-7.1992,-7.1992,-7.1992,-7.1992,-7.1992,-7.1992,-7.1992,-7.1992,-7.2187,-7.3437,-7.4219,-7.4883,-7.6367,-7.7109,-7.7226,-7.7226,-7.7226,-7.7226,-7.7226,-7.7226,-7.7226,-7.7226,-7.7226,-7.7226,-7.7226,-7.7031,-7.6601,-7.6211,-7.5469,-7.4765,-7.3754,-7.3647,-7.4409,-7.4365,-7.5101,-7.5907,-7.6536,-7.6632,-7.6543,-7.643,-7.6426,-7.648,-7.6456,-7.6379,-7.6326,-7.6222,-7.6145,-7.6145,-7.6118,-7.609,-7.6139,-7.636,-7.6563,-7.6698,-7.7361,-7.7746,-7.7938,-7.8554,-7.9054,-7.9131,-7.9862,-8.0246,-8.04,-8.0823,-8.1054,-8.1054,-8.1093,-8.1093,-8.1093,-8.1054,-8.1093,-8.1093,-8.1093,-8.1093,-8.1093,-8.1093,-8.1093,-8.1093,-8.1093,-8.1093,-8.1093,-8.1093,-8.1093,-8.1093,-8.1093,-8.1093,-8.1093,-8.1093,-8.1093,-8.1093,-8.1131,-8.117,-8.1362,-8.1701,-8.2587,-8.3415,-8.4462,-8.541,-8.6269,-8.6939,-8.7095,-8.7329,-8.7642,-8.7954,-8.8149,-8.8618,-8.9047,-7.1992,-7.1992,-7.1992,-7.1992,-7.1992,-7.1992,-7.1992,-7.1992,-7.1992,-7.1992,-7.1992,-7.1992,-7.1992,-7.1992,-7.1992,-7.1992,-7.2031,-7.3008,-7.3945,-7.5039,-7.6367,-7.7226,-7.7226,-7.7226,-7.7226,-7.7226,-7.7226,-7.7226,-7.7226,-7.7226,-7.7226,-7.7148,-7.7109,-7.668,-7.6055,-7.5664,-7.4726,-7.3672,-7.3106,-7.3393,-7.4141,-7.4314,-7.4983,-7.6343,-7.6466,-7.6403,-7.6276,-7.6206,-7.6226,-7.6349,-7.6249,-7.621,-7.621,-7.6118,-7.609,-7.6062,-7.6072,-7.6044,-7.6245,-7.6852,-7.7314,-7.7476,-7.8169,-7.8631,-7.8784,-7.94,-7.9939,-7.9939,-8.0631,-8.09,-8.0977,-8.1093,-8.1093,-8.1093,-8.1093,-8.1093,-8.1093,-8.1093,-8.1093,-8.1093,-8.1093,-8.1093,-8.1093,-8.1093,-8.1093,-8.1093,-8.1093,-8.1093,-8.1093,-8.1093,-8.1093,-8.1093,-8.1093,-8.1093,-8.1093,-8.1093,-8.1093,-8.1093,-8.1093,-8.117,-8.1362,-8.1847,-8.296,-8.3909,-8.4701,-8.5722,-8.6861,-8.729,-8.7401,-8.7759,-8.811,-8.8501,-8.8891,-8.9594,-9.014,-7.1992,-7.1992,-7.1992,-7.1992,-7.1992,-7.1992,-7.1992,-7.1992,-7.1992,-7.1992,-7.1992,-7.1992,-7.1992,-7.1992,-7.1992,-7.1992,-7.2109,-7.293,-7.4101,-7.5664,-7.664,-7.7148,-7.7226,-7.7226,-7.7226,-7.7226,-7.7226,-7.7226,-7.7226,-7.7187,-7.7187,-7.7148,-7.6562,-7.6094,-7.5742,-7.447,-7.3618,-7.3035,-7.2423,-7.2835,-7.3954,-7.4092,-7.4818,-7.6339,-7.6366,-7.621,-7.6156,-7.6111,-7.6121,-7.6111,-7.6101,-7.609,-7.6072,-7.6034,-7.6005,-7.6005,-7.6044,-7.6284,-7.6899,-7.7237,-7.7622,-7.8276,-7.9015,-7.9523,-7.9554,-8.0285,-8.0746,-8.0823,-8.1016,-8.1093,-8.1093,-8.1093,-8.1093,-8.1093,-8.1093,-8.1093,-8.1093,-8.1093,-8.1093,-8.1093,-8.1093,-8.1093,-8.1093,-8.1093,-8.1093,-8.1093,-8.1093,-8.1093,-8.1093,-8.1093,-8.1093,-8.1093,-8.1093,-8.1093,-8.1093,-8.1093,-8.1093,-8.1093,-8.1093,-8.1093,-8.1285,-8.2032,-8.3076,-8.3988,-8.4805,-8.5903,-8.7058,-8.7299,-8.736,-8.7971,-8.8564,-8.9008,-8.9506,-9.0343,-9.0929,-7.1992,-7.1992,-7.1992,-7.1992,-7.1992,-7.1992,-7.1992,-7.1992,-7.1992,-7.1992,-7.1992,-7.1992,-7.1992,-7.1992,-7.1992,-7.1992,-7.2187,-7.289,-7.3984,-7.5234,-7.6133,-7.6797,-7.7187,-7.7226,-7.7226,-7.7226,-7.7226,-7.7226,-7.7187,-7.7109,-7.7109,-7.6994,-7.6147,-7.5469,-7.5032,-7.3691,-7.2888,-7.2379,-7.1901,-7.2347,-7.3721,-7.3934,-7.4578,-7.5967,-7.6237,-7.6106,-7.6072,-7.6044,-7.6015,-7.6015,-7.6005,-7.6034,-7.6015,-7.5976,-7.5976,-7.5976,-7.6015,-7.6399,-7.7053,-7.7699,-7.8237,-7.9084,-7.9939,-8.0285,-8.0477,-8.09,-8.1054,-8.1093,-8.1093,-8.1093,-8.1093,-8.1093,-8.1093,-8.1093,-8.1093,-8.1093,-8.1093,-8.1093,-8.1093,-8.1093,-8.1093,-8.1093,-8.1093,-8.1093,-8.1093,-8.1093,-8.1093,-8.1093,-8.1093,-8.1093,-8.1093,-8.1093,-8.1093,-8.1093,-8.1093,-8.1093,-8.1093,-8.1093,-8.1093,-8.1093,-8.117,-8.2109,-8.3191,-8.404,-8.4893,-8.5954,-8.6917,-8.7142,-8.7468,-8.8013,-8.8623,-8.9313,-9.0093,-9.083,-9.1301,-7.1992,-7.1992,-7.1992,-7.1992,-7.1992,-7.1992,-7.1992,-7.1992,-7.1992,-7.1992,-7.1992,-7.1992,-7.1992,-7.1992,-7.1992,-7.1992,-7.2226,-7.289,-7.3867,-7.4765,-7.5664,-7.6445,-7.6992,-7.7148,-7.7109,-7.7148,-7.7148,-7.7148,-7.707,-7.6992,-7.6797,-7.6594,-7.5747,-7.4808,-7.4014,-7.3133,-7.2344,-7.1703,-7.151,-7.2167,-7.3523,-7.3781,-7.4526,-7.5782,-7.6118,-7.6052,-7.6005,-7.6015,-7.5976,-7.5976,-7.5976,-7.5976,-7.5976,-7.5976,-7.5976,-7.5976,-7.5976,-7.6553,-7.7476,-7.813,-7.8823,-7.9862,-8.0592,-8.1016,-8.1054,-8.1054,-8.1093,-8.1093,-8.1093,-8.1093,-8.1093,-8.1093,-8.1093,-8.1093,-8.1093,-8.1093,-8.1093,-8.1093,-8.1093,-8.1093,-8.1093,-8.1093,-8.1093,-8.1093,-8.1093,-8.1093,-8.1093,-8.1093,-8.1093,-8.1093,-8.1093,-8.1093,-8.1093,-8.1093,-8.1093,-8.1093,-8.1093,-8.117,-8.1131,-8.1285,-8.1439,-8.2763,-8.3826,-8.4196,-8.5014,-8.6068,-8.6809,-8.7156,-8.7545,-8.8028,-8.8885,-8.9819,-9.0625,-9.1339,-9.1576,-7.1992,-7.1992,-7.1992,-7.1992,-7.1992,-7.1992,-7.1992,-7.1992,-7.1992,-7.1992,-7.1992,-7.1992,-7.1992,-7.1992,-7.1992,-7.1992,-7.2187,-7.2812,-7.3633,-7.4492,-7.5351,-7.6172,-7.6723,-7.6943,-7.6902,-7.6855,-7.6861,-7.6836,-7.6758,-7.6719,-7.6484,-7.57,-7.4808,-7.3968,-7.3187,-7.2175,-7.1678,-7.14,-7.126,-7.2045,-7.3292,-7.3921,-7.4511,-7.589,-7.6034,-7.6005,-7.6044,-7.6015,-7.5976,-7.5976,-7.5976,-7.6015,-7.5976,-7.5976,-7.5976,-7.5976,-7.6015,-7.6592,-7.7823,-7.8361,-7.9361,-8.0439,-8.1016,-8.1054,-8.1093,-8.1093,-8.1093,-8.1093,-8.1093,-8.1093,-8.1093,-8.1093,-8.1093,-8.1093,-8.1093,-8.1093,-8.1093,-8.1093,-8.1093,-8.1093,-8.1093,-8.1093,-8.1093,-8.1093,-8.1093,-8.1093,-8.1093,-8.1093,-8.1093,-8.1093,-8.1093,-8.1093,-8.1093,-8.1093,-8.1093,-8.1093,-8.1093,-8.1246,-8.1362,-8.1785,-8.2317,-8.3695,-8.4542,-8.4555,-8.5066,-8.6076,-8.6674,-8.7023,-8.7719,-8.8262,-8.928,-9.0298,-9.085,-9.1345,-9.147,-7.1992,-7.1992,-7.1992,-7.1992,-7.1992,-7.1992,-7.1992,-7.1992,-7.1992,-7.1992,-7.1992,-7.1992,-7.1992,-7.1992,-7.1992,-7.1992,-7.2148,-7.2383,-7.3086,-7.3843,-7.467,-7.5439,-7.6185,-7.6494,-7.6623,-7.6566,-7.6549,-7.6636,-7.6601,-7.6562,-7.6263,-7.573,-7.4617,-7.3691,-7.3073,-7.1979,-7.1326,-7.1133,-7.121,-7.1878,-7.3559,-7.4225,-7.5351,-7.5707,-7.5976,-7.5976,-7.6092,-7.6515,-7.6438,-7.6207,-7.6438,-7.6361,-7.6169,-7.5976,-7.5976,-7.5976,-7.6015,-7.6515,-7.7746,-7.8207,-7.9092,-8.0177,-8.0785,-8.1093,-8.1093,-8.1093,-8.1054,-8.1054,-8.1093,-8.1093,-8.1093,-8.1093,-8.1093,-8.1093,-8.1093,-8.1093,-8.1093,-8.1093,-8.1131,-8.117,-8.1208,-8.1208,-8.1093,-8.1093,-8.1093,-8.1093,-8.1093,-8.1093,-8.1093,-8.1093,-8.1093,-8.1093,-8.1093,-8.1093,-8.1093,-8.1061,-8.1061,-8.1177,-8.1477,-8.19,-8.2484,-8.3522,-8.417,-8.4407,-8.5185,-8.5961,-8.6184,-8.6415,-8.7403,-8.8382,-8.8969,-8.9632,-9.0635,-9.1269,-9.1339,-7.1992,-7.1992,-7.1992,-7.1992,-7.1992,-7.1992,-7.1992,-7.1992,-7.1992,-7.1992,-7.1992,-7.1992,-7.1992,-7.1992,-7.1953,-7.1953,-7.1928,-7.1953,-7.2422,-7.3064,-7.3691,-7.4432,-7.5309,-7.584,-7.6222,-7.6338,-7.6261,-7.6284,-7.6403,-7.6365,-7.6233,-7.5617,-7.4436,-7.3768,-7.3356,-7.2174,-7.1493,-7.1197,-7.1056,-7.1876,-7.3437,-7.5053,-7.5976,-7.5976,-7.6015,-7.6053,-7.6399,-7.6831,-7.7053,-7.6861,-7.6938,-7.6976,-7.6361,-7.6092,-7.6015,-7.5976,-7.5976,-7.6476,-7.7207,-7.7823,-7.8631,-7.9831,-8.0446,-8.0823,-8.0977,-8.09,-8.0785,-8.0823,-8.0785,-8.0746,-8.0708,-8.0977,-8.1054,-8.1093,-8.1093,-8.1093,-8.117,-8.1285,-8.1516,-8.1516,-8.1439,-8.1362,-8.1285,-8.1093,-8.1093,-8.1093,-8.1093,-8.1093,-8.1093,-8.1093,-8.1093,-8.1093,-8.1093,-8.1093,-8.1093,-8.1061,-8.0991,-8.1029,-8.1407,-8.1862,-8.2304,-8.2928,-8.3542,-8.4237,-8.478,-8.5398,-8.555,-8.6047,-8.7151,-8.7955,-8.8346,-8.9151,-9.0415,-9.0951,-9.0985,-7.1992,-7.1992,-7.1992,-7.1992,-7.1992,-7.1992,-7.1992,-7.1992,-7.1992,-7.1992,-7.1875,-7.1992,-7.1992,-7.1953,-7.1887,-7.1783,-7.1775,-7.1784,-7.2095,-7.2696,-7.3085,-7.3779,-7.486,-7.5116,-7.56,-7.5918,-7.6044,-7.6015,-7.613,-7.6169,-7.5784,-7.5197,-7.4889,-7.435,-7.3663,-7.2519,-7.2118,-7.1887,-7.131,-7.1783,-7.3437,-7.5091,-7.5784,-7.5976,-7.6092,-7.6399,-7.6976,-7.737,-7.76,-7.8015,-7.7553,-7.7323,-7.7015,-7.6361,-7.6092,-7.5976,-7.6092,-7.6399,-7.7053,-7.7468,-7.8083,-7.9177,-7.9831,-8.0331,-8.0477,-8.0246,-7.9977,-7.9939,-8.0015,-8.0092,-8.0285,-8.0708,-8.0977,-8.1093,-8.1093,-8.1093,-8.117,-8.167,-8.1862,-8.217,-8.2208,-8.1785,-8.1516,-8.1285,-8.1093,-8.1093,-8.1093,-8.1093,-8.1093,-8.1093,-8.1093,-8.1093,-8.1023,-8.1023,-8.1029,-8.0991,-8.0959,-8.0926,-8.1189,-8.1644,-8.2155,-8.2633,-8.3448,-8.4098,-8.4557,-8.5093,-8.5552,-8.6164,-8.7044,-8.7656,-8.8154,-8.9185,-9.0367,-9.0635,-9.0714,-7.1893,-7.1991,-7.1915,-7.1887,-7.1872,-7.1854,-7.1819,-7.1858,-7.1864,-7.1591,-7.1299,-7.1711,-7.1854,-7.1836,-7.1762,-7.1711,-7.1665,-7.1629,-7.1707,-7.2073,-7.2431,-7.2954,-7.3559,-7.435,-7.5082,-7.5351,-7.5774,-7.6015,-7.6015,-7.5976,-7.5784,-7.5447,-7.4985,-7.4591,-7.4109,-7.2888,-7.2349,-7.208,-7.1937,-7.2283,-7.3476,-7.4591,-7.5515,-7.6015,-7.6438,-7.6899,-7.74,-7.8369,-7.8485,-7.8707,-7.8477,-7.8438,-7.7938,-7.7246,-7.6746,-7.6707,-7.6245,-7.6207,-7.6515,-7.7044,-7.7737,-7.8246,-7.8784,-7.9208,-7.9477,-7.9323,-7.9054,-7.9054,-7.9554,-7.9746,-7.9939,-8.0592,-8.0939,-8.1093,-8.1093,-8.1093,-8.1246,-8.1869,-8.2292,-8.267,-8.2939,-8.2593,-8.2247,-8.2093,-8.167,-8.1093,-8.1093,-8.1093,-8.1093,-8.1093,-8.1093,-8.1093,-8.1023,-8.0959,-8.0926,-8.0893,-8.086,-8.086,-8.0711,-8.1244,-8.1824,-8.2485,-8.3066,-8.3754,-8.4289,-8.4901,-8.5473,-8.5893,-8.643,-8.7194,-8.7995,-8.895,-8.9829,-9.0517,-9.0635,-7.1799,-7.193,-7.1801,-7.1804,-7.176,-7.1708,-7.1679,-7.1718,-7.1771,-7.1381,-7.1044,-7.1469,-7.1738,-7.1653,-7.1642,-7.1579,-7.1506,-7.1505,-7.1339,-7.1453,-7.1734,-7.2157,-7.2657,-7.3553,-7.4245,-7.4707,-7.5284,-7.5707,-7.5938,-7.5976,-7.5976,-7.5976,-7.5408,-7.5101,-7.4668,-7.3745,-7.2899,-7.2168,-7.2129,-7.2591,-7.3476,-7.4284,-7.5322,-7.6169,-7.6929,-7.7506,-7.8054,-7.8946,-7.9292,-7.9515,-7.9438,-7.9285,-7.8784,-7.8092,-7.763,-7.7515,-7.7092,-7.6707,-7.6669,-7.6813,-7.7083,-7.7468,-7.7968,-7.8661,-7.8592,-7.84,-7.84,-7.8592,-7.8977,-7.9438,-7.99,-8.0592,-8.0977,-8.1093,-8.1093,-8.1093,-8.1246,-8.1946,-8.2638,-8.3131,-8.3439,-8.3638,-8.333,-8.3131,-8.2477,-8.14,-8.1093,-8.1131,-8.1093,-8.1061,-8.1023,-8.0991,-8.0926,-8.0893,-8.086,-8.0826,-8.0792,-8.072,-8.0643,-8.0761,-8.1339,-8.1724,-8.2148,-8.2951,-8.3983,-8.4632,-8.5244,-8.5473,-8.5779,-8.6696,-8.7575,-8.8301,-8.9103,-8.9944,-9.0555,-7.1704,-7.1726,-7.169,-7.1692,-7.17,-7.1683,-7.1665,-7.1629,-7.1686,-7.1659,-7.1459,-7.1589,-7.151,-7.1531,-7.1429,-7.1376,-7.1235,-7.1183,-7.1069,-7.1082,-7.1133,-7.1568,-7.2041,-7.2552,-7.3245,-7.4322,-7.487,-7.537,-7.5822,-7.5938,-7.5976,-7.5938,-7.5745,-7.5822,-7.5515,-7.463,-7.3322,-7.2591,-7.2322,-7.2745,-7.3553,-7.4437,-7.5553,-7.6823,-7.7352,-7.8006,-7.9477,-7.9831,-8.0138,-8.0516,-8.0208,-7.9977,-7.9592,-7.89,-7.8477,-7.8361,-7.8092,-7.7669,-7.7361,-7.6746,-7.6621,-7.7237,-7.7805,-7.8122,-7.8015,-7.7669,-7.7784,-7.8438,-7.89,-7.9323,-7.99,-8.0516,-8.1016,-8.1093,-8.1093,-8.1093,-8.14,-8.2131,-8.2824,-8.3478,-8.383,-8.3989,-8.3841,-8.3495,-8.3067,-8.2029,-8.1407,-8.1407,-8.1068,-8.0991,-8.0959,-8.0926,-8.086,-8.0792,-8.0792,-8.0758,-8.0688,-8.0614,-8.054,-8.0654,-8.0886,-8.1193,-8.1765,-8.276,-8.3907,-8.4441,-8.4975,-8.5358,-8.5817,-8.6467,-8.7192,-8.7918,-8.8797,-8.9711,-9.0287,-7.1446,-7.1468,-7.1436,-7.1494,-7.1562,-7.1485,-7.1446,-7.1446,-7.1523,-7.1549,-7.1474,-7.0926,-7.086,-7.1131,-7.1207,-7.1185,-7.1082,-7.1069,-7.1005,-7.0952,-7.1002,-7.1156,-7.1514,-7.1975,-7.2591,-7.336,-7.4063,-7.4793,-7.5139,-7.5668,-7.5938,-7.5976,-7.5976,-7.5976,-7.5707,-7.5091,-7.3822,-7.286,-7.2745,-7.3245,-7.363,-7.4861,-7.6053,-7.713,-7.8545,-7.9007,-7.9785,-8.0362,-8.0746,-8.09,-8.0708,-8.0592,-8.0439,-7.9708,-7.9361,-7.9208,-7.8938,-7.8477,-7.8015,-7.7246,-7.6784,-7.6399,-7.6775,-7.7044,-7.7207,-7.7092,-7.7669,-7.8323,-7.9054,-7.9669,-8.0554,-8.0939,-8.1093,-8.1093,-8.1093,-8.1093,-8.14,-8.2023,-8.283,-8.3413,-8.3917,-8.4268,-8.4003,-8.37,-8.3269,-8.2726,-8.215,-8.1612,-8.1305,-8.0926,-8.086,-8.0788,-8.072,-8.0685,-8.065,-8.0614,-8.058,-8.0581,-8.0658,-8.0964,-8.1231,-8.1346,-8.1957,-8.2913,-8.3792,-8.4403,-8.4937,-8.5358,-8.5741,-8.6123,-8.6772,-8.7575,-8.8489,-8.9405,-8.9787,-7.1291,-7.1291,-7.1291,-7.133,-7.1407,-7.133,-7.1291,-7.1291,-7.1347,-7.1379,-7.127,-7.0575,-7.0367,-7.0753,-7.1004,-7.0825,-7.0733,-7.0837,-7.0887,-7.0925,-7.0898,-7.0898,-7.1129,-7.1475,-7.1937,-7.2399,-7.3206,-7.3986,-7.4832,-7.5332,-7.5707,-7.5899,-7.5976,-7.5976,-7.5784,-7.5091,-7.4091,-7.3399,-7.3168,-7.3745,-7.4014,-7.5207,-7.663,-7.763,-7.8968,-7.9815,-8.0246,-8.0746,-8.0977,-8.1054,-8.1016,-8.1054,-8.0862,-8.0592,-8.0246,-7.9977,-7.9669,-7.9169,-7.8746,-7.8122,-7.7314,-7.6784,-7.6553,-7.6438,-7.6284,-7.6823,-7.7707,-7.89,-7.9708,-8.0592,-8.1516,-8.1785,-8.1631,-8.1631,-8.117,-8.1093,-8.1253,-8.1753,-8.2534,-8.3341,-8.3734,-8.4122,-8.455,-8.4246,-8.3588,-8.3048,-8.2318,-8.1853,-8.1551,-8.1172,-8.0758,-8.0685,-8.0614,-8.0614,-8.0578,-8.0848,-8.1155,-8.1308,-8.1422,-8.1765,-8.1995,-8.2034,-8.2416,-8.3448,-8.4174,-8.4517,-8.4937,-8.5397,-8.5511,-8.555,-8.6352,-8.7231,-8.7651,-8.845,-8.8985,-7.1291,-7.1291,-7.1291,-7.1291,-7.1291,-7.1291,-7.1291,-7.1269,-7.1224,-7.1178,-7.1144,-7.094,-7.0516,-7.0285,-7.0606,-7.0475,-7.0206,-7.0552,-7.0821,-7.086,-7.0898,-7.0898,-7.0937,-7.1129,-7.1475,-7.2014,-7.2591,-7.3399,-7.4447,-7.4832,-7.5255,-7.5745,-7.5899,-7.5976,-7.5899,-7.5168,-7.4707,-7.4514,-7.3899,-7.4207,-7.4784,-7.5784,-7.713,-7.8361,-7.9469,-8.0315,-8.0746,-8.0939,-8.1093,-8.1093,-8.1093,-8.1093,-8.1016,-8.1016,-8.09,-8.0862,-8.0862,-8.0477,-7.9823,-7.8968,-7.8199,-7.7438,-7.7246,-7.6967,-7.6476,-7.6976,-7.8054,-7.94,-8.0477,-8.1747,-8.2477,-8.2785,-8.2439,-8.1946,-8.1484,-8.1177,-8.1298,-8.1574,-8.2424,-8.2932,-8.332,-8.3747,-8.4556,-8.4825,-8.4056,-8.3326,-8.2483,-8.2096,-8.1904,-8.1489,-8.1035,-8.0844,-8.0771,-8.0542,-8.0658,-8.1346,-8.169,-8.1881,-8.2187,-8.2454,-8.2646,-8.2684,-8.3218,-8.4097,-8.444,-8.4708,-8.509,-8.5511,-8.5511,-8.5588,-8.6084,-8.6772,-8.7116,-8.7536,-8.8148,-7.1269,-7.1247,-7.1247,-7.1201,-7.1178,-7.1224,-7.1201,-7.1178,-7.113,-7.1106,-7.1056,-7.1043,-7.0555,-7.0079,-6.9963,-7.0014,-6.9871,-6.9898,-7.0244,-7.0898,-7.0898,-7.0898,-7.0898,-7.0937,-7.1091,-7.1398,-7.1849,-7.2311,-7.3004,-7.4014,-7.4716,-7.5139,-7.5784,-7.5976,-7.5976,-7.5592,-7.5361,-7.4899,-7.4938,-7.5361,-7.5707,-7.6861,-7.813,-7.9285,-8.0131,-8.0746,-8.1054,-8.1093,-8.1093,-8.1093,-8.1093,-8.1093,-8.1093,-8.1093,-8.1093,-8.1093,-8.1093,-8.1016,-8.0708,-8.0238,-7.9546,-7.8669,-7.8054,-7.7707,-7.7092,-7.8246,-7.9169,-7.99,-8.1054,-8.2285,-8.3131,-8.3285,-8.2978,-8.2298,-8.1804,-8.1387,-8.1392,-8.1704,-8.2207,-8.2444,-8.2756,-8.3485,-8.4251,-8.4557,-8.4021,-8.3714,-8.3062,-8.2756,-8.2603,-8.1994,-8.1499,-8.1231,-8.1078,-8.0697,-8.0773,-8.169,-8.2034,-8.2034,-8.2569,-8.3104,-8.3219,-8.3371,-8.3945,-8.4748,-8.4824,-8.486,-8.5244,-8.5511,-8.5511,-8.5702,-8.6008,-8.6352,-8.6696,-8.708,-8.7462,-7.1201,-7.1178,-7.1178,-7.113,-7.1081,-7.113,-7.113,-7.1081,-7.1056,-7.103,-7.0979,-7.0952,-7.0502,-6.991,-6.9717,-6.9706,-6.9679,-6.9717,-7.0129,-7.0821,-7.0898,-7.0898,-7.0898,-7.0898,-7.0937,-7.1091,-7.136,-7.1849,-7.2388,-7.363,-7.4591,-7.5284,-7.5707,-7.5938,-7.5976,-7.5861,-7.5745,-7.5399,-7.563,-7.6015,-7.6669,-7.7669,-7.8823,-7.9746,-8.0477,-8.1093,-8.1093,-8.1093,-8.1093,-8.1093,-8.1093,-8.1093,-8.1093,-8.1093,-8.1093,-8.1093,-8.1093,-8.1093,-8.1016,-8.1016,-8.0285,-7.9669,-7.9208,-7.84,-7.79,-7.8707,-7.94,-8.0246,-8.14,-8.2484,-8.333,-8.3484,-8.3144,-8.2463,-8.2165,-8.1747,-8.1901,-8.2211,-8.2176,-8.2336,-8.2414,-8.3142,-8.3831,-8.3945,-8.3869,-8.3716,-8.3601,-8.341,-8.3141,-8.2454,-8.2034,-8.1958,-8.1576,-8.1194,-8.1499,-8.234,-8.2493,-8.2264,-8.2951,-8.3868,-8.4059,-8.4249,-8.4824,-8.5169,-8.49,-8.4822,-8.5282,-8.5511,-8.5511,-8.5511,-8.5626,-8.5932,-8.6315,-8.6545,-8.6774,-7.1106,-7.1106,-7.1106,-7.1056,-7.103,-7.1056,-7.1056,-7.1005,-7.1005,-7.0952,-7.0898,-7.0898,-7.0475,-6.9833,-6.9717,-6.9629,-6.9617,-6.9629,-7.0129,-7.0629,-7.0821,-7.086,-7.0898,-7.0898,-7.0898,-7.0898,-7.1052,-7.1503,-7.2157,-7.3234,-7.4399,-7.5553,-7.5899,-7.5976,-7.5976,-7.5976,-7.5899,-7.5861,-7.5899,-7.6476,-7.7323,-7.8054,-7.9054,-7.9939,-8.0708,-8.1016,-8.1093,-8.1093,-8.1093,-8.1093,-8.1093,-8.1093,-8.1093,-8.1093,-8.1093,-8.1093,-8.1093,-8.1093,-8.1093,-8.1093,-8.1054,-8.0516,-8.0023,-7.8908,-7.8477,-7.8977,-7.9669,-8.0246,-8.11,-8.2336,-8.3303,-8.3154,-8.3005,-8.2706,-8.2518,-8.2483,-8.2636,-8.2677,-8.2413,-8.2376,-8.2225,-8.2684,-8.3448,-8.3677,-8.3792,-8.3945,-8.3869,-8.3639,-8.3295,-8.2646,-8.2416,-8.2875,-8.2416,-8.1805,-8.2187,-8.2684,-8.2607,-8.2264,-8.3945,-8.49,-8.5053,-8.4899,-8.5129,-8.5168,-8.4785,-8.4822,-8.532,-8.5511,-8.5511,-8.5511,-8.5511,-8.5588,-8.5932,-8.5817,-8.597,-7.1081,-7.103,-7.103,-7.0979,-7.0925,-7.0952,-7.0952,-7.0925,-7.0925,-7.0925,-7.0898,-7.0898,-7.0448,-6.9717,-6.9706,-6.9348,-6.9271,-6.9348,-6.9706,-7.0167,-7.0706,-7.0821,-7.0898,-7.0898,-7.0898,-7.0898,-7.0937,-7.1091,-7.1629,-7.2706,-7.4399,-7.5745,-7.5887,-7.5955,-7.5947,-7.5976,-7.5976,-7.5976,-7.5976,-7.6823,-7.7707,-7.8361,-7.9323,-8.0362,-8.0862,-8.1093,-8.1093,-8.1093,-8.1093,-8.1093,-8.1093,-8.1093,-8.1093,-8.1093,-8.1093,-8.1093,-8.1093,-8.1093,-8.1093,-8.1093,-8.1093,-8.0907,-8.0229,-7.9338,-7.8946,-7.9285,-7.9946,-8.01,-8.0914,-8.2155,-8.3043,-8.3124,-8.3285,-8.3405,-8.31,-8.2832,-8.2872,-8.2491,-8.2301,-8.2186,-8.2073,-8.276,-8.341,-8.3486,-8.3639,-8.3983,-8.4136,-8.3945,-8.3563,-8.2951,-8.2875,-8.3333,-8.2722,-8.1958,-8.2149,-8.2607,-8.2455,-8.2569,-8.425,-8.532,-8.4975,-8.4899,-8.5206,-8.5244,-8.5013,-8.5129,-8.5397,-8.5511,-8.5511,-8.5511,-8.5511,-8.5511,-8.5511,-8.5511,-8.5511,-7.1005,-7.0952,-7.0952,-7.0925,-7.0898,-7.0898,-7.0898,-7.0898,-7.0898,-7.0898,-7.0898,-7.0898,-7.0629,-7.0179,-6.9898,-6.9629,-6.9578,-6.9617,-6.9886,-7.0437,-7.0706,-7.0821,-7.0898,-7.0937,-7.0898,-7.0898,-7.0975,-7.1168,-7.1745,-7.3073,-7.4734,-7.5532,-7.5714,-7.5704,-7.5692,-7.5686,-7.5818,-7.5917,-7.6207,-7.7053,-7.7823,-7.8554,-7.9592,-8.0708,-8.1054,-8.1093,-8.1093,-8.1093,-8.1093,-8.1093,-8.1093,-8.1093,-8.1093,-8.1093,-8.1093,-8.1093,-8.1093,-8.1061,-8.1023,-8.0984,-8.1023,-8.0728,-8.0087,-7.9281,-7.9121,-7.9313,-7.9198,-7.9198,-8.0625,-8.1935,-8.2591,-8.3211,-8.3751,-8.4251,-8.3639,-8.3066,-8.2646,-8.2187,-8.2034,-8.192,-8.234,-8.3066,-8.341,-8.341,-8.3715,-8.4403,-8.4671,-8.448,-8.4059,-8.3486,-8.3486,-8.383,-8.2875,-8.192,-8.2302,-8.2837,-8.299,-8.3295,-8.4404,-8.5168,-8.4862,-8.4975,-8.5358,-8.5473,-8.5473,-8.5511,-8.5511,-8.5511,-8.5511,-8.5511,-8.5511,-8.5511,-8.5511,-8.5511,-8.5511,-7.0898,-7.0898,-7.0898,-7.0898,-7.0898,-7.0898,-7.0898,-7.0898,-7.0898,-7.0898,-7.0898,-7.0898,-7.086,-7.0629,-7.0217,-7.014,-7.009,-7.004,-7.0271,-7.0898,-7.1129,-7.1206,-7.1168,-7.1014,-7.1091,-7.1014,-7.1168,-7.1668,-7.2591,-7.3688,-7.4599,-7.5203,-7.527,-7.5243,-7.5279,-7.5379,-7.5551,-7.5787,-7.6109,-7.6784,-7.8015,-7.8707,-7.9285,-8.0746,-8.1093,-8.1093,-8.1093,-8.1093,-8.1093,-8.1093,-8.1093,-8.1061,-8.1093,-8.1093,-8.1093,-8.1061,-8.1061,-8.0991,-8.0844,-8.0728,-8.0619,-8.0323,-7.9795,-7.8837,-7.8492,-7.921,-7.9095,-7.8941,-8.0136,-8.1601,-8.2485,-8.2947,-8.3409,-8.4022,-8.406,-8.3716,-8.3525,-8.299,-8.2493,-8.2416,-8.2531,-8.3219,-8.383,-8.3907,-8.4174,-8.49,-8.5129,-8.4938,-8.4594,-8.4021,-8.4098,-8.4327,-8.3524,-8.276,-8.3066,-8.3524,-8.3792,-8.4327,-8.4978,-8.5054,-8.4824,-8.5053,-8.5473,-8.5511,-8.5511,-8.5511,-8.5511,-8.5511,-8.5511,-8.5511,-8.5511,-8.5511,-8.5511,-8.5511,-8.5511,-7.0898,-7.0898,-7.0898,-7.0898,-7.0898,-7.0898,-7.0898,-7.0898,-7.0898,-7.0898,-7.0898,-7.0898,-7.0898,-7.0821,-7.0667,-7.0486,-7.0102,-7.0475,-7.0706,-7.1129,-7.1437,-7.1591,-7.1822,-7.1706,-7.1475,-7.1283,-7.1591,-7.2476,-7.338,-7.4059,-7.4456,-7.4819,-7.4846,-7.4832,-7.4863,-7.5018,-7.5274,-7.5485,-7.5801,-7.6655,-7.8031,-7.8669,-7.9285,-8.0516,-8.1093,-8.1054,-8.1023,-8.0959,-8.1029,-8.1061,-8.0991,-8.0991,-8.1093,-8.1093,-8.1023,-8.0959,-8.0882,-8.074,-8.0553,-8.0174,-7.9867,-7.934,-7.862,-7.7781,-7.7739,-7.8841,-7.9335,-7.9148,-7.9689,-8.1186,-8.2375,-8.2721,-8.3219,-8.3868,-8.4403,-8.4327,-8.425,-8.3639,-8.299,-8.299,-8.2913,-8.3372,-8.4059,-8.448,-8.4785,-8.5053,-8.532,-8.5282,-8.5053,-8.4671,-8.4671,-8.4747,-8.4365,-8.3907,-8.4021,-8.3983,-8.4174,-8.4365,-8.4863,-8.4824,-8.4748,-8.513,-8.5511,-8.5511,-8.5511,-8.5511,-8.5511,-8.5511,-8.5511,-8.5511,-8.5511,-8.5511,-8.5511,-8.5511,-8.5511,-7.0898,-7.0898,-7.0898,-7.0898,-7.0898,-7.0898,-7.0898,-7.0898,-7.0898,-7.0898,-7.0898,-7.0898,-7.0898,-7.0898,-7.0898,-7.0744,-7.0294,-7.0667,-7.1168,-7.1552,-7.1629,-7.1783,-7.2014,-7.2322,-7.1975,-7.1783,-7.2591,-7.3486,-7.4067,-7.4334,-7.4563,-7.4402,-7.4362,-7.4387,-7.445,-7.4667,-7.4866,-7.5018,-7.5348,-7.625,-7.7648,-7.8276,-7.9361,-8.0554,-8.1023,-8.0946,-8.076,-8.0696,-8.0711,-8.0783,-8.0711,-8.0646,-8.072,-8.0826,-8.0893,-8.074,-8.0515,-8.0251,-7.9953,-7.9459,-7.8888,-7.8321,-7.7708,-7.6981,-7.71,-7.8088,-7.8585,-7.855,-7.9698,-8.1154,-8.2377,-8.299,-8.3792,-8.4594,-8.4441,-8.4174,-8.383,-8.3295,-8.3333,-8.3754,-8.3677,-8.3639,-8.4212,-8.4441,-8.4785,-8.5244,-8.5473,-8.5511,-8.532,-8.5167,-8.5206,-8.5091,-8.4671,-8.4365,-8.4212,-8.4212,-8.4365,-8.4594,-8.4862,-8.5015,-8.5129,-8.532,-8.5511,-8.5511,-8.5511,-8.5511,-8.5511,-8.5511,-8.5511,-8.5511,-8.5511,-8.5511,-8.5511,-8.5511,-8.5511,-7.0898,-7.0898,-7.0898,-7.0898,-7.0898,-7.0898,-7.0898,-7.0898,-7.0898,-7.0898,-7.0898,-7.0898,-7.0898,-7.0898,-7.0898,-7.0898,-7.0898,-7.086,-7.136,-7.2014,-7.1745,-7.2399,-7.2678,-7.2611,-7.2496,-7.2678,-7.3283,-7.3705,-7.4056,-7.4255,-7.4275,-7.3997,-7.3936,-7.3939,-7.3934,-7.4056,-7.4243,-7.4544,-7.4899,-7.5398,-7.65,-7.7692,-7.9166,-8.0229,-8.0811,-8.0509,-8.0356,-8.0294,-8.0348,-8.0239,-8.0277,-8.039,-8.0391,-8.054,-8.0455,-8.0375,-7.9987,-7.9539,-7.9012,-7.8362,-7.7946,-7.7528,-7.6876,-7.6644,-7.6723,-7.7144,-7.764,-7.8557,-7.9704,-8.1003,-8.2225,-8.3181,-8.4098,-8.4976,-8.4594,-8.4289,-8.383,-8.3333,-8.3792,-8.4365,-8.4289,-8.4174,-8.4403,-8.4632,-8.49,-8.5358,-8.5511,-8.5511,-8.5473,-8.5397,-8.5358,-8.5167,-8.4824,-8.4594,-8.4518,-8.4556,-8.4747,-8.4938,-8.5244,-8.5397,-8.5511,-8.5511,-8.5511,-8.5511,-8.5511,-8.5511,-8.5511,-8.5511,-8.5511,-8.5511,-8.5511,-8.5511,-8.5511,-8.5511,-8.5511,-7.0898,-7.0898,-7.0898,-7.0898,-7.0898,-7.0898,-7.0898,-7.0898,-7.0898,-7.0898,-7.0898,-7.0898,-7.0898,-7.0898,-7.0898,-7.0898,-7.0898,-7.0937,-7.2014,-7.2937,-7.2591,-7.3322,-7.3667,-7.3329,-7.3423,-7.3522,-7.3545,-7.3682,-7.3938,-7.411,-7.3945,-7.361,-7.3573,-7.355,-7.3615,-7.3752,-7.3963,-7.4192,-7.44,-7.4838,-7.5842,-7.7075,-7.8435,-7.9354,-8.0046,-8.0042,-8.0042,-8.0049,-7.9756,-7.9569,-7.9538,-7.9882,-8.0045,-8.0124,-7.9973,-7.9665,-7.928,-7.8673,-7.8027,-7.7189,-7.6732,-7.658,-7.6045,-7.5737,-7.6004,-7.6425,-7.7149,-7.8102,-7.94,-8.1079,-8.2225,-8.2837,-8.3677,-8.4862,-8.5091,-8.5091,-8.4862,-8.4441,-8.4403,-8.4632,-8.4671,-8.4785,-8.5091,-8.5206,-8.5206,-8.5511,-8.5511,-8.5511,-8.5511,-8.5511,-8.5511,-8.5282,-8.5015,-8.5206,-8.5282,-8.5129,-8.5244,-8.5435,-8.5511,-8.5511,-8.5511,-8.5511,-8.5511,-8.5511,-8.5511,-8.5511,-8.5511,-8.5511,-8.5511,-8.5511,-8.5511,-8.5511,-8.5511,-8.5511,-8.5511]}]]